[[{"header":{"parameterUnit":"m.s-1","parameterCategory":1,"la1":31.0,"la2":29.5877,"lo1":-88.7671,"lo2":-86.6584,"dy":0.0162,"dx":0.0185,"nx":115,"ny":88,"refTime":"2024-04-22T00:00:00:Z","depth":0,"parameterNumber":2,"parameterNumberName":"U-component_of_WINDS"},"data":[0.0,0.0,0.0,0.0,0.0,0.0,0.0,0.0,0.0,0.0,0.0,0.0,0.0,0.0,0.0,0.0,0.0,0.0,0.0,0.0,0.0,0.0,0.0,0.0,0.0,0.0,0.0,0.0,0.0,0.0,0.0,0.0,0.0,0.0,0.0,0.0,0.0,0.0,0.0,0.0,0.0,0.0,0.0,0.0,0.0,0.0,0.0,0.0,0.0,0.0,0.0,0.0,0.0,0.0,0.0,0.0,0.0,0.0,0.0,0.0,0.0,0.0,0.0,0.0,0.0,0.0,0.0,0.0,0.0,0.0,0.0,0.0,0.0,0.0,0.0,0.0,0.0,0.0,0.0,0.0,0.0,0.0,0.0,0.0,0.0,0.0,0.0,0.0,0.0,0.0,0.0,0.0,0.0,0.0,0.0,0.0,0.0,0.0,0.0,0.0,0.0,0.0,0.0,0.0,0.0,0.0,0.0,0.0,0.0,0.0,0.0,0.0,0.0,0.0,0.0,0.0,0.0,0.0,0.0,0.0,0.0,0.0,0.0,0.0,0.0,0.0,0.0,0.0,0.0,0.0,0.0,0.0,0.0,0.0,0.0,0.0,0.0,0.0,0.0,0.0,0.0,0.0,0.0,0.0,0.0,0.0,0.0,0.0,0.0,0.0,0.0,0.0,0.0,0.0,0.0,0.0,0.0,0.0,0.0,0.0,0.0,0.0,0.0,0.0,0.0,0.0,0.0,0.0,0.0,0.0,0.0,0.0,0.0,0.0,0.0,0.0,0.0,0.0,0.0,0.0,0.0,0.0,0.0,0.0,0.0,0.0,0.0,0.0,0.0,0.0,0.0,0.0,0.0,0.0,0.0,0.0,0.0,0.0,0.0,0.0,0.0,0.0,0.0,0.0,0.0,0.0,0.0,0.0,0.0,0.0,0.0,0.0,0.0,0.0,0.0,0.0,0.0,0.0,0.0,0.0,0.0,0.0,0.0,0.0,0.0,0.0,0.0,0.0,0.0,0.0,0.0,0.0,0.0,0.0,0.0,0.0,0.0,0.0,0.0,0.0,0.0,0.0,0.0,0.0,0.0,0.0,0.0,0.0,0.0,0.0,0.0,0.0,0.0,0.0,0.0,0.0,0.0,0.0,0.0,0.0,0.0,0.0,0.0,0.0,0.0,0.0,0.0,0.0,0.0,0.0,0.0,0.0,0.0,0.0,0.0,0.0,0.0,0.0,0.0,0.0,0.0,0.0,0.0,0.0,0.0,0.0,0.0,0.0,0.0,0.0,0.0,0.0,0.0,0.0,0.0,0.0,0.0,0.0,0.0,0.0,0.0,0.0,0.0,0.0,0.0,0.0,0.0,0.0,0.0,0.0,0.0,0.0,0.0,0.0,0.0,0.0,0.0,0.0,0.0,0.0,0.0,0.0,0.0,0.0,0.0,0.0,0.0,0.0,0.0,0.0,0.0,0.0,0.0,0.0,0.0,0.0,0.0,0.0,0.0,0.0,0.0,0.0,0.0,0.0,0.0,0.0,0.0,0.0,0.0,0.0,0.0,0.0,0.0,0.0,0.0,0.0,0.0,0.0,0.0,0.0,0.0,0.0,0.0,0.0,0.0,0.0,0.0,0.0,0.0,0.0,0.0,0.0,0.0,0.0,0.0,0.0,0.0,0.0,0.0,0.0,0.0,0.0,0.0,0.0,0.0,0.0,0.0,0.0,0.0,0.0,0.0,0.0,0.0,0.0,0.0,0.0,0.0,0.0,0.0,0.0,0.0,0.0,0.0,0.0,0.0,0.0,0.0,0.0,0.0,0.0,0.0,0.0,0.0,0.0,0.0,0.0,0.0,0.0,0.0,0.0,0.0,0.0,0.0,0.0,0.0,0.0,0.0,0.0,0.0,0.0,0.0,0.0,0.0,0.0,0.0,0.0,0.0,0.0,0.0,0.0,0.0,0.0,0.0,0.0,0.0,0.0,0.0,0.0,0.0,0.0,0.0,0.0,0.0,0.0,0.0,0.0,0.0,0.0,0.0,0.0,0.0,0.0,0.0,0.0,0.0,0.0,0.0,0.0,0.0,0.0,0.0,0.0,0.0,0.0,0.0,0.0,0.0,0.0,0.0,0.0,0.0,0.0,0.0,0.0,0.0,0.0,0.0,0.0,0.0,0.0,0.0,0.0,0.0,0.0,0.0,0.0,0.0,0.0,0.0,0.0,0.0,0.0,0.0,0.0,0.0,0.0,0.0,0.0,0.0,0.0,0.0,0.0,0.0,0.0,0.0,0.0,0.0,0.0,0.0,0.0,0.0,0.0,0.0,0.0,0.0,0.0,0.0,0.0,0.0,0.0,0.0,0.0,0.0,0.0,0.0,0.0,0.0,0.0,0.0,0.0,0.0,0.0,0.0,0.0,0.0,0.0,0.0,0.0,0.0,0.0,0.0,0.0,0.0,0.0,0.0,0.0,0.0,0.0,0.0,0.0,0.0,0.0,0.0,0.0,0.0,0.0,0.0,0.0,0.0,0.0,0.0,0.0,0.0,0.0,0.0,0.0,0.0,0.0,0.0,0.0,0.0,0.0,0.0,0.0,0.0,0.0,0.0,0.0,0.0,0.0,0.0,0.0,0.0,0.0,0.0,0.0,0.0,0.0,0.0,0.0,0.0,0.0,0.0,0.0,0.0,0.0,0.0,0.0,0.0,0.0,0.0,0.0,0.0,0.0,0.0,0.0,0.0,0.0,0.0,0.0,0.0,0.0,0.0,0.0,0.0,0.0,0.0,0.0,0.0,0.0,0.0,0.0,0.0,0.0,0.0,0.0,0.0,0.0,0.0,0.0,0.0,0.0,0.0,0.0,0.0,0.0,0.0,0.0,0.0,0.0,0.0,0.0,0.0,0.0,0.0,0.0,0.0,0.0,0.0,0.0,0.0,0.0,0.0,0.0,0.0,0.0,0.0,0.0,0.0,0.0,0.0,0.0,0.0,0.0,0.0,0.0,0.0,0.0,0.0,0.0,0.0,0.0,0.0,0.0,0.0,0.0,0.0,0.0,0.0,0.0,0.0,0.0,0.0,0.0,0.0,0.0,0.0,0.0,0.0,0.0,0.0,0.0,0.0,0.0,0.0,0.0,0.0,0.0,0.0,0.0,0.0,0.0,0.0,0.0,0.0,0.0,0.0,0.0,0.0,0.0,0.0,0.0,0.0,0.0,0.0,0.0,0.0,0.0,0.0,0.0,0.0,0.0,0.0,0.0,0.0,0.0,0.0,0.0,0.0,0.0,0.0,0.0,0.0,0.0,0.0,0.0,0.0,0.0,0.0,0.0,0.0,0.0,0.0,0.0,0.0,0.0,0.0,0.0,0.0,0.0,0.0,0.0,0.0,0.0,0.0,0.0,0.0,0.0,0.0,0.0,0.0,0.0,0.0,0.0,0.0,0.0,0.0,0.0,0.0,0.0,0.0,0.0,0.0,0.0,0.0,0.0,0.0,0.0,0.0,0.0,0.0,0.0,0.0,0.0,0.0,0.0,0.0,0.0,0.0,0.0,0.0,0.0,0.0,0.0,0.0,0.0,0.0,0.0,0.0,0.0,0.0,0.0,0.0,0.0,0.0,0.0,0.0,0.0,0.0,0.0,0.0,0.0,0.0,0.0,0.0,0.0,0.0,0.0,0.0,0.0,0.0,0.0,0.0,0.0,0.0,0.0,0.0,0.0,0.0,0.0,0.0,0.0,0.0,0.0,0.0,0.0,0.0,0.0,0.0,0.0,0.0,0.0,0.0,0.0,0.0,0.0,0.0,0.0,0.0,0.0,0.0,0.0,0.0,0.0,0.0,0.0,0.0,0.0,0.0,0.0,0.0,0.0,0.0,0.0,0.0,0.0,0.0,0.0,0.0,0.0,0.0,0.0,0.0,0.0,0.0,0.0,0.0,0.0,0.0,0.0,0.0,0.0,0.0,0.0,0.0,0.0,0.0,0.0,0.0,0.0,0.0,0.0,0.0,0.0,0.0,0.0,0.0,0.0,0.0,0.0,0.0,0.0,0.0,0.0,0.0,0.0,0.0,0.0,0.0,0.0,0.0,0.0,0.0,0.0,0.0,0.0,0.0,0.0,0.0,0.0,0.0,0.0,0.0,0.0,0.0,0.0,0.0,0.0,0.0,0.0,0.0,0.0,0.0,0.0,0.0,0.0,0.0,0.0,0.0,0.0,0.0,0.0,0.0,0.0,0.0,0.0,0.0,0.0,0.0,0.0,0.0,0.0,0.0,0.0,0.0,0.0,-2.6226,0.0,0.0,0.0,0.0,0.0,0.0,0.0,0.0,0.0,0.0,0.0,0.0,0.0,0.0,0.0,0.0,0.0,0.0,0.0,0.0,0.0,0.0,0.0,0.0,0.0,0.0,0.0,0.0,0.0,0.0,0.0,0.0,0.0,0.0,0.0,0.0,0.0,0.0,0.0,0.0,0.0,0.0,0.0,0.0,0.0,0.0,0.0,0.0,0.0,0.0,0.0,0.0,0.0,0.0,0.0,0.0,0.0,0.0,0.0,0.0,0.0,0.0,0.0,0.0,0.0,0.0,0.0,0.0,0.0,0.0,0.0,0.0,0.0,0.0,0.0,0.0,0.0,0.0,0.0,0.0,0.0,0.0,0.0,0.0,0.0,0.0,0.0,0.0,0.0,0.0,0.0,0.0,0.0,0.0,0.0,0.0,0.0,0.0,0.0,0.0,0.0,0.0,0.0,0.0,0.0,0.0,0.0,0.0,0.0,0.0,-2.9211,-2.8762,-2.8208,-2.7572,-2.6744,0.0,0.0,0.0,0.0,0.0,0.0,0.0,0.0,0.0,0.0,0.0,0.0,0.0,0.0,0.0,0.0,0.0,0.0,0.0,0.0,0.0,0.0,0.0,0.0,0.0,0.0,0.0,0.0,0.0,0.0,0.0,0.0,0.0,0.0,0.0,0.0,0.0,0.0,0.0,0.0,0.0,0.0,0.0,0.0,0.0,0.0,0.0,0.0,0.0,0.0,0.0,0.0,0.0,0.0,0.0,0.0,0.0,0.0,0.0,0.0,0.0,0.0,0.0,0.0,0.0,0.0,0.0,0.0,0.0,0.0,0.0,0.0,0.0,0.0,0.0,0.0,0.0,0.0,0.0,0.0,0.0,0.0,0.0,0.0,0.0,0.0,0.0,0.0,0.0,0.0,0.0,0.0,0.0,0.0,0.0,0.0,0.0,0.0,0.0,0.0,0.0,0.0,0.0,0.0,0.0,0.0,0.0,0.0,0.0,0.0,0.0,0.0,-2.8983,-2.814,-2.698,0.0,0.0,0.0,0.0,0.0,0.0,0.0,0.0,0.0,0.0,0.0,0.0,0.0,0.0,0.0,0.0,0.0,0.0,0.0,0.0,0.0,0.0,0.0,0.0,0.0,0.0,0.0,0.0,0.0,0.0,0.0,0.0,0.0,0.0,0.0,0.0,0.0,0.0,0.0,0.0,0.0,0.0,0.0,0.0,0.0,0.0,0.0,0.0,0.0,0.0,0.0,0.0,0.0,0.0,0.0,0.0,0.0,0.0,0.0,0.0,0.0,0.0,0.0,0.0,0.0,0.0,0.0,0.0,0.0,0.0,0.0,0.0,0.0,0.0,0.0,0.0,0.0,0.0,0.0,0.0,0.0,0.0,0.0,0.0,0.0,0.0,0.0,0.0,0.0,0.0,0.0,0.0,0.0,0.0,0.0,0.0,0.0,0.0,0.0,0.0,0.0,0.0,0.0,0.0,0.0,0.0,0.0,0.0,0.0,0.0,-3.0758,-3.0647,-3.0089,0.0,-2.6678,0.0,0.0,0.0,0.0,0.0,0.0,0.0,0.0,0.0,0.0,0.0,0.0,0.0,0.0,0.0,0.0,0.0,0.0,0.0,0.0,0.0,0.0,0.0,0.0,0.0,0.0,0.0,0.0,0.0,0.0,0.0,0.0,0.0,0.0,0.0,0.0,0.0,0.0,0.0,0.0,0.0,0.0,0.0,0.0,0.0,0.0,0.0,0.0,0.0,0.0,0.0,0.0,0.0,0.0,0.0,0.0,0.0,0.0,0.0,0.0,0.0,0.0,0.0,0.0,0.0,0.0,0.0,0.0,0.0,0.0,0.0,0.0,0.0,0.0,0.0,0.0,0.0,0.0,0.0,0.0,0.0,0.0,0.0,0.0,0.0,0.0,0.0,0.0,0.0,0.0,0.0,0.0,0.0,0.0,0.0,0.0,0.0,0.0,0.0,0.0,0.0,0.0,0.0,0.0,0.0,0.0,0.0,0.0,0.0,0.0,-3.1307,-3.096,-2.9951,-2.8773,0.0,0.0,0.0,0.0,0.0,0.0,0.0,0.0,0.0,0.0,0.0,0.0,0.0,0.0,0.0,0.0,0.0,0.0,0.0,0.0,0.0,0.0,0.0,0.0,0.0,0.0,0.0,0.0,0.0,0.0,0.0,0.0,0.0,0.0,0.0,0.0,0.0,0.0,0.0,0.0,0.0,0.0,0.0,0.0,0.0,0.0,0.0,0.0,0.0,0.0,0.0,0.0,0.0,0.0,0.0,0.0,0.0,0.0,0.0,0.0,0.0,0.0,0.0,0.0,0.0,0.0,0.0,0.0,0.0,0.0,0.0,0.0,0.0,0.0,0.0,0.0,0.0,0.0,0.0,0.0,0.0,0.0,0.0,0.0,0.0,0.0,0.0,0.0,0.0,0.0,0.0,0.0,0.0,0.0,0.0,0.0,0.0,0.0,0.0,0.0,0.0,0.0,0.0,0.0,0.0,0.0,0.0,0.0,0.0,0.0,-3.1964,-3.1801,-3.1199,-2.9897,-2.8857,-2.8027,0.0,0.0,0.0,0.0,0.0,0.0,0.0,0.0,0.0,0.0,0.0,0.0,0.0,0.0,0.0,0.0,0.0,0.0,0.0,0.0,0.0,0.0,0.0,0.0,0.0,0.0,0.0,0.0,0.0,0.0,0.0,0.0,0.0,0.0,0.0,0.0,0.0,0.0,0.0,0.0,0.0,0.0,0.0,0.0,0.0,0.0,0.0,0.0,0.0,0.0,0.0,0.0,0.0,0.0,0.0,0.0,0.0,0.0,0.0,0.0,0.0,0.0,0.0,0.0,0.0,0.0,0.0,0.0,0.0,0.0,0.0,0.0,0.0,0.0,0.0,0.0,0.0,0.0,0.0,0.0,0.0,0.0,0.0,0.0,0.0,0.0,0.0,0.0,0.0,0.0,0.0,0.0,0.0,0.0,0.0,0.0,0.0,0.0,0.0,0.0,0.0,0.0,0.0,0.0,0.0,0.0,0.0,0.0,-3.3064,-3.2937,-3.2449,-3.1607,-3.0411,-2.9211,0.0,0.0,0.0,0.0,0.0,0.0,0.0,0.0,0.0,0.0,0.0,0.0,0.0,0.0,0.0,0.0,0.0,0.0,0.0,0.0,0.0,0.0,0.0,0.0,0.0,0.0,0.0,0.0,0.0,0.0,0.0,0.0,0.0,0.0,0.0,0.0,0.0,0.0,0.0,0.0,0.0,0.0,0.0,0.0,0.0,0.0,0.0,0.0,0.0,0.0,0.0,0.0,0.0,0.0,0.0,0.0,0.0,0.0,0.0,0.0,0.0,0.0,0.0,0.0,0.0,0.0,0.0,0.0,0.0,0.0,0.0,0.0,0.0,0.0,0.0,0.0,0.0,0.0,0.0,0.0,0.0,0.0,0.0,0.0,0.0,0.0,0.0,0.0,0.0,0.0,0.0,0.0,0.0,0.0,0.0,0.0,0.0,0.0,0.0,0.0,0.0,0.0,0.0,0.0,0.0,0.0,0.0,0.0,0.0,-3.3168,-3.3513,-3.3381,-3.2641,-3.1559,-3.0213,0.0,0.0,0.0,0.0,0.0,0.0,0.0,0.0,0.0,0.0,0.0,0.0,0.0,0.0,0.0,0.0,0.0,0.0,0.0,0.0,0.0,0.0,0.0,0.0,0.0,0.0,0.0,0.0,0.0,0.0,0.0,0.0,0.0,0.0,0.0,0.0,0.0,0.0,0.0,0.0,0.0,0.0,0.0,0.0,0.0,0.0,0.0,0.0,0.0,0.0,0.0,0.0,0.0,0.0,0.0,0.0,0.0,0.0,0.0,0.0,0.0,0.0,0.0,0.0,0.0,0.0,0.0,0.0,0.0,0.0,0.0,0.0,0.0,0.0,0.0,0.0,0.0,0.0,0.0,0.0,0.0,0.0,0.0,0.0,0.0,0.0,0.0,0.0,0.0,0.0,0.0,0.0,0.0,0.0,0.0,0.0,0.0,0.0,0.0,0.0,0.0,0.0,0.0,0.0,0.0,0.0,0.0,0.0,0.0,-3.3736,0.0,-3.4281,-3.3612,-3.2346,-3.0846,0.0,0.0,0.0,0.0,0.0,0.0,0.0,0.0,0.0,0.0,0.0,0.0,0.0,0.0,0.0,0.0,0.0,0.0,0.0,0.0,0.0,0.0,0.0,0.0,0.0,0.0,0.0,0.0,0.0,0.0,0.0,0.0,0.0,0.0,0.0,0.0,0.0,0.0,0.0,0.0,0.0,0.0,0.0,0.0,0.0,0.0,0.0,0.0,0.0,0.0,0.0,0.0,0.0,0.0,0.0,0.0,0.0,0.0,0.0,0.0,0.0,0.0,0.0,0.0,0.0,0.0,0.0,0.0,0.0,0.0,0.0,0.0,0.0,0.0,0.0,0.0,0.0,0.0,0.0,0.0,0.0,0.0,0.0,0.0,0.0,0.0,0.0,0.0,0.0,0.0,0.0,0.0,0.0,0.0,0.0,0.0,0.0,0.0,0.0,0.0,0.0,0.0,0.0,0.0,0.0,0.0,0.0,0.0,-3.4038,-3.4848,-3.5249,-3.5085,-3.4404,-3.2698,-3.108,0.0,0.0,0.0,0.0,0.0,0.0,0.0,0.0,0.0,0.0,0.0,0.0,0.0,0.0,0.0,0.0,0.0,0.0,0.0,0.0,0.0,0.0,0.0,0.0,0.0,0.0,0.0,0.0,0.0,0.0,0.0,0.0,0.0,0.0,0.0,0.0,0.0,0.0,0.0,0.0,0.0,0.0,0.0,0.0,0.0,0.0,0.0,0.0,0.0,0.0,0.0,0.0,0.0,0.0,0.0,0.0,0.0,0.0,0.0,0.0,0.0,0.0,0.0,0.0,0.0,0.0,0.0,0.0,0.0,0.0,0.0,0.0,0.0,0.0,0.0,0.0,0.0,0.0,0.0,0.0,0.0,0.0,0.0,0.0,0.0,0.0,0.0,0.0,0.0,0.0,0.0,0.0,0.0,0.0,0.0,0.0,0.0,0.0,0.0,0.0,0.0,0.0,0.0,0.0,0.0,0.0,0.0,0.0,0.0,-3.6082,-3.6064,-3.5689,-3.4952,-3.3576,-3.196,0.0,0.0,0.0,0.0,0.0,0.0,0.0,0.0,0.0,0.0,0.0,0.0,0.0,0.0,0.0,0.0,0.0,0.0,0.0,0.0,0.0,0.0,0.0,0.0,0.0,0.0,0.0,0.0,0.0,0.0,0.0,0.0,0.0,0.0,0.0,0.0,0.0,0.0,0.0,0.0,0.0,0.0,0.0,0.0,0.0,0.0,0.0,0.0,0.0,0.0,0.0,0.0,0.0,0.0,0.0,0.0,0.0,0.0,0.0,0.0,0.0,0.0,0.0,0.0,0.0,0.0,0.0,0.0,0.0,0.0,0.0,0.0,0.0,0.0,0.0,0.0,0.0,0.0,0.0,0.0,0.0,0.0,0.0,0.0,0.0,0.0,0.0,0.0,0.0,0.0,0.0,0.0,0.0,0.0,0.0,0.0,0.0,0.0,0.0,0.0,0.0,0.0,0.0,0.0,0.0,0.0,0.0,0.0,0.0,-3.7358,-3.718,-3.6764,-3.611,-3.4764,-3.298,-3.0834,0.0,0.0,0.0,0.0,0.0,0.0,0.0,0.0,0.0,0.0,0.0,0.0,0.0,0.0,0.0,0.0,0.0,0.0,0.0,0.0,0.0,0.0,0.0,0.0,0.0,0.0,0.0,0.0,0.0,0.0,0.0,0.0,0.0,0.0,0.0,0.0,0.0,0.0,0.0,0.0,0.0,0.0,0.0,0.0,0.0,0.0,0.0,0.0,0.0,0.0,0.0,0.0,0.0,0.0,0.0,0.0,0.0,0.0,0.0,0.0,0.0,0.0,0.0,0.0,0.0,0.0,0.0,0.0,0.0,0.0,0.0,0.0,0.0,0.0,0.0,0.0,0.0,0.0,0.0,0.0,0.0,0.0,0.0,0.0,0.0,0.0,0.0,0.0,0.0,0.0,0.0,0.0,0.0,0.0,0.0,0.0,0.0,0.0,0.0,0.0,0.0,0.0,0.0,0.0,0.0,0.0,0.0,0.0,-3.8841,-3.8652,-3.8247,-3.7597,-3.6132,-3.4149,0.0,0.0,0.0,0.0,0.0,0.0,0.0,0.0,0.0,0.0,0.0,0.0,0.0,0.0,0.0,0.0,0.0,0.0,0.0,0.0,0.0,0.0,0.0,0.0,0.0,0.0,0.0,0.0,0.0,0.0,0.0,0.0,0.0,0.0,0.0,0.0,0.0,0.0,0.0,0.0,0.0,0.0,0.0,0.0,0.0,0.0,0.0,0.0,0.0,0.0,0.0,0.0,0.0,0.0,0.0,0.0,0.0,0.0,0.0,0.0,0.0,0.0,0.0,0.0,0.0,0.0,0.0,0.0,0.0,0.0,0.0,0.0,0.0,0.0,0.0,0.0,0.0,0.0,0.0,0.0,0.0,0.0,0.0,0.0,0.0,0.0,0.0,0.0,0.0,0.0,0.0,0.0,0.0,0.0,0.0,0.0,0.0,0.0,0.0,0.0,0.0,0.0,0.0,0.0,0.0,0.0,0.0,0.0,0.0,-4.0514,-4.0103,-3.9346,-3.8206,-3.65,-3.4774,0.0,0.0,0.0,0.0,0.0,0.0,0.0,0.0,0.0,0.0,0.0,0.0,0.0,0.0,0.0,0.0,0.0,0.0,0.0,0.0,0.0,0.0,0.0,0.0,0.0,0.0,0.0,0.0,0.0,0.0,0.0,0.0,0.0,0.0,0.0,0.0,0.0,0.0,0.0,0.0,0.0,0.0,0.0,0.0,0.0,0.0,0.0,0.0,0.0,0.0,0.0,0.0,0.0,0.0,0.0,0.0,0.0,0.0,0.0,0.0,0.0,0.0,0.0,0.0,0.0,0.0,0.0,0.0,0.0,0.0,0.0,0.0,0.0,0.0,0.0,0.0,0.0,0.0,0.0,0.0,0.0,0.0,0.0,0.0,0.0,0.0,0.0,0.0,0.0,0.0,0.0,0.0,0.0,0.0,0.0,0.0,0.0,0.0,0.0,0.0,0.0,0.0,0.0,0.0,0.0,0.0,0.0,0.0,-3.973,-4.1272,-4.1404,-4.0998,-4.0032,-3.7991,-3.5942,0.0,0.0,0.0,0.0,0.0,0.0,0.0,0.0,0.0,0.0,0.0,0.0,0.0,0.0,0.0,0.0,0.0,0.0,0.0,0.0,0.0,0.0,0.0,0.0,0.0,0.0,0.0,0.0,0.0,0.0,0.0,0.0,0.0,0.0,0.0,0.0,0.0,0.0,0.0,0.0,0.0,0.0,0.0,0.0,0.0,0.0,0.0,0.0,0.0,0.0,0.0,0.0,0.0,0.0,0.0,0.0,0.0,0.0,0.0,0.0,0.0,0.0,0.0,0.0,0.0,0.0,0.0,0.0,0.0,0.0,0.0,0.0,0.0,0.0,0.0,0.0,0.0,0.0,0.0,0.0,0.0,0.0,0.0,0.0,0.0,0.0,0.0,0.0,0.0,0.0,0.0,0.0,0.0,0.0,0.0,0.0,0.0,0.0,0.0,0.0,0.0,0.0,0.0,0.0,0.0,0.0,0.0,0.0,-4.0827,-4.1507,-4.25,-4.2788,-4.2208,-3.9927,-3.7392,0.0,0.0,0.0,0.0,0.0,0.0,0.0,0.0,0.0,0.0,0.0,0.0,0.0,0.0,0.0,0.0,0.0,0.0,0.0,0.0,0.0,0.0,0.0,0.0,0.0,0.0,0.0,0.0,0.0,0.0,0.0,0.0,0.0,0.0,0.0,0.0,0.0,0.0,0.0,0.0,0.0,0.0,0.0,0.0,0.0,0.0,0.0,0.0,0.0,0.0,0.0,0.0,0.0,0.0,0.0,0.0,0.0,0.0,0.0,0.0,0.0,0.0,0.0,0.0,0.0,0.0,0.0,0.0,0.0,0.0,0.0,0.0,0.0,0.0,0.0,0.0,0.0,0.0,0.0,0.0,0.0,0.0,0.0,0.0,0.0,0.0,0.0,0.0,0.0,0.0,0.0,0.0,0.0,0.0,0.0,0.0,0.0,0.0,0.0,0.0,0.0,0.0,0.0,0.0,0.0,0.0,0.0,0.0,-4.1561,-4.2631,-4.2892,-4.2969,-4.2823,-4.082,-3.8589,0.0,0.0,0.0,0.0,0.0,0.0,0.0,0.0,0.0,0.0,0.0,0.0,0.0,0.0,0.0,0.0,0.0,0.0,0.0,0.0,0.0,0.0,0.0,0.0,0.0,0.0,0.0,0.0,0.0,0.0,0.0,0.0,0.0,0.0,0.0,0.0,0.0,0.0,0.0,0.0,0.0,0.0,0.0,0.0,0.0,0.0,0.0,0.0,-2.6515,0.0,0.0,0.0,0.0,0.0,0.0,0.0,0.0,0.0,0.0,0.0,0.0,0.0,0.0,0.0,0.0,0.0,0.0,0.0,0.0,0.0,0.0,0.0,0.0,0.0,0.0,0.0,0.0,0.0,0.0,0.0,0.0,0.0,0.0,0.0,0.0,0.0,0.0,0.0,0.0,0.0,0.0,0.0,0.0,0.0,0.0,0.0,0.0,0.0,0.0,0.0,0.0,0.0,0.0,0.0,0.0,0.0,0.0,0.0,-4.2265,-4.3389,-4.3702,-4.375,-4.3579,-4.1976,-3.9849,0.0,0.0,0.0,0.0,0.0,0.0,0.0,0.0,0.0,0.0,0.0,0.0,0.0,0.0,0.0,0.0,0.0,0.0,0.0,0.0,0.0,0.0,0.0,0.0,0.0,0.0,0.0,0.0,0.0,0.0,0.0,0.0,0.0,0.0,0.0,0.0,0.0,0.0,0.0,0.0,0.0,0.0,0.0,0.0,0.0,0.0,0.0,0.0,0.0,0.0,0.0,0.0,0.0,0.0,0.0,0.0,0.0,0.0,0.0,0.0,0.0,0.0,0.0,0.0,0.0,0.0,0.0,0.0,0.0,0.0,0.0,0.0,0.0,0.0,0.0,0.0,0.0,0.0,0.0,0.0,0.0,0.0,0.0,0.0,0.0,0.0,0.0,0.0,0.0,0.0,0.0,0.0,0.0,0.0,0.0,0.0,0.0,0.0,0.0,0.0,0.0,0.0,0.0,0.0,0.0,0.0,0.0,-4.1664,-4.2866,-4.3833,-4.4434,-4.4559,-4.4287,-4.2933,-4.0891,-3.8074,0.0,0.0,0.0,0.0,0.0,0.0,0.0,0.0,0.0,0.0,0.0,0.0,0.0,0.0,0.0,0.0,0.0,0.0,0.0,0.0,0.0,0.0,0.0,0.0,0.0,0.0,0.0,0.0,0.0,0.0,0.0,0.0,0.0,0.0,0.0,0.0,0.0,0.0,-2.6206,-2.7427,0.0,0.0,0.0,0.0,0.0,0.0,0.0,0.0,-2.755,0.0,0.0,0.0,0.0,0.0,0.0,0.0,0.0,0.0,0.0,0.0,0.0,0.0,0.0,0.0,0.0,0.0,0.0,0.0,0.0,0.0,0.0,0.0,0.0,0.0,0.0,0.0,0.0,0.0,0.0,0.0,0.0,0.0,0.0,0.0,0.0,0.0,0.0,0.0,0.0,0.0,0.0,0.0,0.0,0.0,0.0,0.0,0.0,0.0,0.0,0.0,0.0,0.0,0.0,0.0,0.0,-4.0409,-4.203,-4.3206,-4.3912,-4.4434,-4.4559,-4.4287,-4.2933,-4.1226,-3.9161,0.0,0.0,0.0,0.0,0.0,0.0,0.0,0.0,0.0,0.0,0.0,0.0,0.0,0.0,0.0,0.0,0.0,0.0,0.0,0.0,0.0,0.0,0.0,0.0,0.0,0.0,0.0,0.0,0.0,0.0,0.0,0.0,0.0,0.0,0.0,0.0,0.0,0.0,0.0,-2.9021,-2.9973,0.0,0.0,0.0,0.0,0.0,0.0,0.0,0.0,-2.8779,0.0,0.0,0.0,0.0,0.0,0.0,0.0,0.0,0.0,0.0,0.0,0.0,0.0,0.0,0.0,0.0,0.0,0.0,0.0,0.0,0.0,0.0,0.0,0.0,0.0,0.0,0.0,0.0,0.0,0.0,0.0,0.0,0.0,0.0,0.0,0.0,0.0,0.0,0.0,0.0,0.0,0.0,0.0,0.0,0.0,0.0,0.0,0.0,0.0,0.0,0.0,0.0,0.0,0.0,0.0,-4.0853,-4.224,-4.3441,-4.4278,-4.4591,-4.4613,-4.4505,-4.304,-4.1382,0.0,0.0,0.0,0.0,0.0,0.0,0.0,0.0,0.0,0.0,0.0,0.0,0.0,0.0,0.0,0.0,0.0,0.0,0.0,0.0,0.0,0.0,0.0,0.0,0.0,0.0,0.0,0.0,0.0,0.0,0.0,0.0,0.0,0.0,0.0,0.0,0.0,0.0,0.0,0.0,-2.9559,-3.0325,-3.1257,0.0,0.0,0.0,0.0,0.0,0.0,-3.0058,-2.9584,0.0,0.0,0.0,0.0,0.0,0.0,0.0,0.0,0.0,0.0,0.0,0.0,0.0,0.0,0.0,0.0,0.0,0.0,0.0,0.0,0.0,0.0,0.0,0.0,0.0,0.0,0.0,0.0,0.0,0.0,0.0,0.0,0.0,0.0,0.0,0.0,0.0,0.0,0.0,0.0,0.0,0.0,0.0,0.0,0.0,0.0,0.0,0.0,0.0,0.0,0.0,0.0,0.0,0.0,0.0,-4.1272,-4.2448,-4.3572,-4.467,-4.4694,-4.4694,-4.4668,-4.3093,-4.1487,0.0,0.0,0.0,0.0,0.0,0.0,0.0,0.0,0.0,0.0,0.0,0.0,0.0,0.0,0.0,0.0,0.0,0.0,0.0,0.0,0.0,0.0,0.0,0.0,0.0,0.0,0.0,0.0,0.0,0.0,0.0,0.0,0.0,0.0,0.0,0.0,0.0,0.0,0.0,0.0,0.0,-3.0739,-3.165,-3.1857,0.0,0.0,0.0,0.0,-3.1431,-3.0898,0.0,0.0,0.0,0.0,0.0,0.0,0.0,0.0,0.0,0.0,0.0,0.0,0.0,0.0,0.0,0.0,0.0,0.0,0.0,0.0,0.0,0.0,0.0,0.0,0.0,0.0,0.0,0.0,0.0,0.0,0.0,0.0,0.0,0.0,0.0,0.0,0.0,0.0,0.0,0.0,0.0,0.0,0.0,0.0,0.0,0.0,0.0,0.0,0.0,0.0,0.0,0.0,0.0,0.0,0.0,0.0,-4.1272,-4.2448,-4.3572,-4.4615,-4.4694,-4.4694,-4.4668,-4.3093,-4.154,0.0,0.0,0.0,0.0,0.0,0.0,0.0,0.0,0.0,0.0,0.0,0.0,0.0,0.0,0.0,0.0,0.0,0.0,0.0,0.0,0.0,0.0,0.0,0.0,0.0,0.0,0.0,0.0,0.0,0.0,0.0,0.0,0.0,0.0,0.0,0.0,0.0,0.0,0.0,0.0,0.0,-3.2126,-3.3016,-3.3492,-3.382,0.0,0.0,-3.3623,-3.3328,-3.2557,0.0,0.0,0.0,0.0,0.0,0.0,0.0,0.0,0.0,0.0,0.0,0.0,0.0,0.0,0.0,0.0,0.0,0.0,0.0,0.0,0.0,0.0,0.0,0.0,0.0,0.0,0.0,0.0,0.0,0.0,0.0,0.0,0.0,0.0,0.0,0.0,0.0,0.0,0.0,0.0,0.0,0.0,0.0,0.0,0.0,0.0,0.0,0.0,0.0,0.0,0.0,0.0,0.0,0.0,0.0,-4.0357,-4.1794,-4.3258,-4.4408,-4.5138,-4.5245,-4.5245,-4.519,-4.3408,-4.1903,0.0,0.0,0.0,0.0,0.0,0.0,0.0,0.0,0.0,0.0,0.0,0.0,0.0,0.0,0.0,0.0,0.0,0.0,0.0,0.0,0.0,0.0,0.0,0.0,0.0,0.0,0.0,0.0,0.0,0.0,0.0,0.0,0.0,0.0,0.0,0.0,0.0,0.0,0.0,0.0,0.0,0.0,-3.3285,-3.3762,0.0,0.0,0.0,-3.4072,-3.3893,0.0,0.0,0.0,0.0,0.0,0.0,0.0,0.0,0.0,0.0,0.0,0.0,0.0,0.0,0.0,0.0,0.0,0.0,0.0,0.0,0.0,0.0,0.0,0.0,0.0,0.0,0.0,0.0,0.0,0.0,0.0,0.0,0.0,0.0,0.0,0.0,0.0,0.0,0.0,0.0,0.0,0.0,0.0,0.0,0.0,0.0,0.0,0.0,0.0,0.0,0.0,0.0,0.0,0.0,0.0,0.0,0.0,-4.2369,-4.3938,-4.5114,-4.5794,-4.5846,-4.5767,-4.5555,-4.3931,0.0,0.0,0.0,0.0,0.0,0.0,0.0,0.0,0.0,0.0,0.0,0.0,0.0,0.0,0.0,0.0,0.0,0.0,0.0,0.0,0.0,0.0,0.0,0.0,0.0,0.0,0.0,-2.459,0.0,0.0,0.0,0.0,0.0,0.0,0.0,0.0,0.0,0.0,0.0,0.0,0.0,0.0,-3.3141,-3.3782,-3.4279,-3.4631,0.0,0.0,-3.4755,-3.4755,-3.4367,-3.3919,0.0,0.0,0.0,0.0,0.0,0.0,0.0,0.0,0.0,0.0,0.0,0.0,0.0,0.0,0.0,0.0,0.0,0.0,0.0,0.0,0.0,0.0,0.0,0.0,0.0,0.0,0.0,0.0,0.0,0.0,0.0,0.0,0.0,0.0,0.0,0.0,0.0,0.0,0.0,0.0,0.0,0.0,0.0,0.0,0.0,0.0,0.0,0.0,0.0,0.0,0.0,0.0,0.0,0.0,-4.1272,-4.2944,-4.4147,-4.5323,-4.6369,-4.6421,-4.6159,-4.5581,-4.471,-4.3325,0.0,0.0,0.0,0.0,0.0,0.0,0.0,0.0,0.0,0.0,0.0,0.0,0.0,0.0,0.0,0.0,0.0,0.0,0.0,0.0,0.0,0.0,0.0,0.0,0.0,0.0,0.0,0.0,0.0,0.0,0.0,0.0,0.0,0.0,0.0,0.0,0.0,0.0,0.0,0.0,0.0,-3.3803,-3.5107,-3.5687,-3.6121,0.0,0.0,-3.6618,-3.6618,-3.5894,-3.5211,-3.4861,0.0,0.0,0.0,0.0,0.0,0.0,0.0,0.0,0.0,0.0,0.0,0.0,0.0,0.0,0.0,0.0,0.0,0.0,0.0,0.0,0.0,0.0,0.0,0.0,0.0,0.0,0.0,0.0,0.0,0.0,0.0,0.0,0.0,0.0,0.0,0.0,0.0,0.0,0.0,0.0,0.0,0.0,0.0,0.0,0.0,0.0,0.0,0.0,0.0,0.0,0.0,0.0,0.0,-4.1821,-4.352,-4.5062,-4.6212,-4.697,-4.6996,-4.6891,-4.6626,-4.5317,-4.4009,0.0,0.0,0.0,0.0,0.0,0.0,0.0,0.0,0.0,0.0,0.0,0.0,0.0,0.0,0.0,0.0,0.0,0.0,0.0,0.0,0.0,0.0,0.0,0.0,0.0,0.0,0.0,0.0,-2.7552,-2.809,-2.809,0.0,0.0,0.0,0.0,0.0,0.0,0.0,0.0,0.0,0.0,-3.4838,-3.5355,-3.6059,0.0,0.0,-3.6804,-3.6804,-3.6804,-3.6515,-3.612,-3.5705,-3.4902,0.0,0.0,0.0,0.0,0.0,0.0,0.0,0.0,0.0,0.0,0.0,0.0,0.0,0.0,0.0,0.0,0.0,0.0,0.0,0.0,0.0,0.0,0.0,0.0,0.0,0.0,0.0,0.0,0.0,0.0,0.0,0.0,0.0,0.0,0.0,0.0,0.0,0.0,0.0,0.0,0.0,0.0,0.0,0.0,0.0,0.0,0.0,0.0,0.0,0.0,0.0,0.0,-4.2657,-4.4382,-4.6107,-4.7257,-4.7832,-4.8015,-4.7937,-4.7571,-4.6421,-4.5161,0.0,0.0,0.0,0.0,0.0,0.0,0.0,0.0,0.0,0.0,0.0,0.0,0.0,0.0,0.0,0.0,0.0,0.0,0.0,0.0,0.0,0.0,0.0,0.0,0.0,0.0,0.0,0.0,-2.8359,-2.8876,-2.9001,0.0,0.0,0.0,0.0,0.0,0.0,0.0,0.0,0.0,0.0,-3.579,-3.6183,-3.6804,-3.7322,-3.7591,-3.7632,-3.7632,-3.7612,-3.7405,-3.7115,-3.6784,0.0,0.0,0.0,0.0,0.0,0.0,0.0,0.0,0.0,0.0,0.0,0.0,0.0,0.0,0.0,0.0,0.0,0.0,0.0,0.0,0.0,0.0,0.0,0.0,0.0,0.0,0.0,-3.6044,0.0,0.0,-3.607,0.0,0.0,0.0,0.0,0.0,0.0,0.0,0.0,0.0,0.0,0.0,0.0,0.0,0.0,0.0,0.0,0.0,0.0,0.0,0.0,0.0,0.0,-4.3833,-4.5558,-4.7257,-4.8433,-4.9035,-4.9557,-4.9296,-4.8224,-4.812,-4.6908,-4.4338,0.0,0.0,0.0,0.0,0.0,0.0,0.0,0.0,0.0,0.0,0.0,0.0,0.0,0.0,0.0,0.0,0.0,0.0,0.0,0.0,0.0,0.0,0.0,0.0,0.0,0.0,-2.8504,-2.9001,-2.9477,0.0,0.0,0.0,0.0,0.0,0.0,0.0,0.0,0.0,0.0,-3.579,-3.6597,-3.7902,-3.815,-3.846,-3.9261,-3.9385,-3.9475,-3.9433,-3.873,-3.815,0.0,0.0,0.0,0.0,0.0,0.0,0.0,0.0,0.0,0.0,0.0,0.0,0.0,0.0,0.0,0.0,0.0,0.0,0.0,0.0,0.0,0.0,0.0,0.0,0.0,0.0,0.0,-3.7639,-3.7351,0.0,0.0,0.0,0.0,0.0,0.0,0.0,0.0,0.0,0.0,0.0,-4.3023,-4.3415,0.0,0.0,0.0,0.0,0.0,0.0,0.0,0.0,0.0,0.0,0.0,0.0,-4.4434,-4.6159,-4.7519,-4.8643,-4.9584,-4.9793,-4.9714,-4.9322,-4.859,-4.6986,-4.439,0.0,0.0,0.0,0.0,0.0,0.0,0.0,0.0,0.0,0.0,0.0,0.0,0.0,0.0,0.0,0.0,0.0,0.0,0.0,0.0,0.0,0.0,0.0,0.0,0.0,-2.8856,0.0,0.0,0.0,0.0,0.0,0.0,0.0,0.0,0.0,0.0,0.0,-3.4797,-3.6163,-3.7011,-3.7777,-3.8523,-3.8895,-3.9309,0.0,0.0,0.0,0.0,0.0,0.0,0.0,0.0,0.0,0.0,0.0,0.0,0.0,0.0,-3.4101,-3.2812,-3.2578,-3.2578,-3.2578,0.0,0.0,0.0,0.0,0.0,0.0,0.0,0.0,0.0,0.0,0.0,0.0,0.0,0.0,-3.9416,0.0,-3.9468,0.0,0.0,0.0,0.0,0.0,0.0,0.0,0.0,-4.3441,-4.433,-4.5088,-4.5454,-4.5741,0.0,-4.5166,-4.399,0.0,0.0,0.0,0.0,0.0,0.0,0.0,0.0,-4.5587,-4.7048,-4.8407,-4.9453,-5.0159,-5.0394,-5.0394,-5.0185,-4.9087,-4.7482,-4.5438,-4.4013,-4.209,0.0,0.0,0.0,0.0,0.0,0.0,0.0,0.0,0.0,0.0,0.0,0.0,0.0,0.0,0.0,0.0,0.0,0.0,0.0,0.0,0.0,0.0,0.0,-3.0139,0.0,0.0,0.0,0.0,0.0,0.0,0.0,0.0,0.0,-3.432,-3.5148,-3.6163,-3.7363,-3.8171,-3.8874,-3.9475,0.0,0.0,0.0,0.0,0.0,0.0,0.0,-4.0593,-4.0303,-3.9847,-3.9419,-3.9073,-3.8413,-3.7817,-3.754,0.0,0.0,-3.4648,-3.4336,-3.4336,-3.4336,-3.4316,-3.4336,-3.4316,-3.4551,-3.4883,0.0,0.0,0.0,0.0,0.0,0.0,0.0,0.0,-4.1428,-4.1428,0.0,-4.1428,0.0,0.0,0.0,0.0,-4.2316,-4.2866,0.0,0.0,-4.5399,-4.626,-4.7336,-4.733,-4.7702,-4.8146,-4.71,-4.6552,-4.6369,-4.3808,0.0,0.0,0.0,0.0,0.0,0.0,-4.71,-4.825,-4.9923,-5.0812,-5.0864,-5.1387,-5.1387,-5.0812,-4.974,-4.859,-4.7383,-4.6529,-4.4815,-4.1989,-4.0087,0.0,0.0,0.0,0.0,0.0,0.0,0.0,0.0,0.0,0.0,0.0,0.0,0.0,0.0,0.0,0.0,0.0,0.0,0.0,0.0,-3.0864,0.0,0.0,0.0,0.0,0.0,0.0,0.0,0.0,0.0,0.0,-3.6266,-3.6991,-3.7881,-3.8792,0.0,0.0,0.0,0.0,-4.1255,-4.2198,-4.2269,-4.2269,-4.2269,-4.1897,-4.1607,-4.1638,0.0,0.0,-4.0515,-4.0443,-4.0135,-3.9433,-3.9176,-3.8608,-3.6534,-3.6133,-3.6094,-3.6094,-3.6094,-3.6094,-3.6094,-3.6152,-3.6289,-4.6525,0.0,0.0,0.0,0.0,-4.3755,-4.3755,-4.3755,-4.3781,-4.3781,-4.3781,-4.3755,0.0,0.0,0.0,0.0,0.0,0.0,-4.5663,-4.6055,-4.744,-4.8277,-4.859,-4.8982,-4.9244,-4.9374,-4.9061,-4.8695,-4.8303,-4.7519,-4.5976,-4.3807,0.0,0.0,0.0,0.0,-4.825,-4.9401,-5.0707,-5.157,-5.2014,-5.2589,-5.2406,-5.1413,-5.0681,-4.9766,-4.8616,-4.7782,-4.6334,-4.4306,-4.1958,0.0,0.0,0.0,0.0,0.0,0.0,0.0,0.0,0.0,0.0,0.0,0.0,0.0,0.0,0.0,0.0,0.0,0.0,0.0,-3.1264,-3.1692,-3.1981,0.0,0.0,0.0,0.0,0.0,0.0,0.0,0.0,0.0,-3.8874,-3.8688,-3.8916,0.0,0.0,-4.082,-4.1804,-4.1928,-4.2062,-4.2642,-4.2725,0.0,-4.2745,-4.2621,-4.2414,-4.2104,-4.2032,-4.1855,-4.1803,-4.151,-4.1142,-4.0626,-4.031,-3.9855,-3.896,-3.8262,-3.7891,-3.7851,-3.7832,-3.7851,-3.7851,-3.8066,-3.8301,-4.9819,-4.8695,-4.6891,-4.6107,-4.6133,-4.6107,-4.6107,-4.6107,-4.6107,-4.6133,-4.6133,-4.6107,-4.6107,-4.6107,-4.6107,0.0,0.0,0.0,-4.7492,-4.7571,-4.9061,-4.9871,-5.0106,-5.0655,-5.1047,-5.1256,-5.1047,-5.076,-5.042,-5.0185,-4.9191,-4.7492,0.0,0.0,-4.7519,-4.8643,-4.9662,-5.0577,-5.1727,-5.2485,-5.2851,-5.3217,-5.2929,-5.1988,-5.1622,-5.0943,-4.9819,-4.9247,-4.8221,-4.659,-4.4389,-4.1959,0.0,0.0,0.0,0.0,0.0,0.0,0.0,0.0,0.0,0.0,0.0,-2.8173,-2.8442,0.0,0.0,0.0,-3.0864,-3.1754,-3.2747,-3.3016,0.0,0.0,0.0,0.0,0.0,0.0,0.0,-3.7674,-3.8295,-3.9123,-4.0551,-4.0427,-4.051,-4.1317,-4.1493,-4.169,-4.2414,0.0,-4.2952,-4.3408,-4.3615,-4.3739,-4.376,-4.3739,-4.3635,-4.3387,-4.3346,-4.3346,-4.3346,-4.3194,-4.2891,-4.251,-4.2032,-4.1649,-4.1207,-4.0602,-3.9844,-3.9238,-3.9101,-3.9101,-3.9101,-3.9297,-3.9473,-5.2563,-5.2328,-4.9714,-4.8538,-4.846,-4.846,-4.846,-4.846,-4.8407,-4.8381,-4.8381,-4.8329,-4.8329,-4.8329,-4.8329,0.0,-4.8407,-4.9008,-4.9322,-4.9401,-5.0498,-5.1256,-5.1753,-5.2302,-5.2851,-5.3373,-5.2825,-5.2563,-5.2511,-5.1988,-5.1727,-5.1675,-4.9636,-4.8852,-4.9374,-5.0394,-5.1204,-5.1727,-5.2877,-5.3478,-5.353,-5.3478,-5.3191,-5.2668,-5.2589,-5.204,-5.0995,-5.0864,-5.0219,-4.8765,-4.7095,-4.4878,-4.2136,0.0,0.0,0.0,0.0,0.0,0.0,0.0,0.0,0.0,0.0,0.0,0.0,0.0,0.0,0.0,-3.2768,0.0,-3.4297,-3.4733,0.0,0.0,0.0,-3.5997,-3.6929,-3.7032,-3.7715,-3.9495,0.0,0.0,-4.1565,-4.2042,-4.2405,-4.2414,-4.2467,-4.2538,-4.2973,-4.3428,-4.3884,-4.4256,-4.4691,-4.496,-4.4857,-4.4877,-4.4857,-4.4836,-4.5002,-4.4898,-4.4877,-4.4898,-4.4803,-4.4348,-4.4015,-4.3479,-4.3121,-4.2585,-4.1933,-4.0391,-4.0137,-4.0137,-4.0156,-4.0195,-4.0215,-5.3191,-5.3138,-5.2433,-5.1622,-5.0786,-5.0786,-5.0786,-5.076,-5.0342,-5.0185,-5.0132,-4.9688,-4.9479,-4.9479,-4.9479,-4.974,-5.0211,-5.0734,-5.123,-5.1727,-5.2433,-5.2851,-5.2981,-5.3112,-5.3269,-5.3373,-5.3243,-5.3191,-5.3191,-5.3034,-5.2981,-5.2955,-5.2406,-5.1988,-5.1701,-5.1962,-5.238,-5.2955,-5.3661,-5.4236,-5.468,-5.4236,-5.3949,-5.3792,-5.34,-5.2825,-5.2119,-5.1648,-5.0949,-4.9878,-4.8247,-4.627,-4.4072,-4.1646,0.0,0.0,0.0,0.0,0.0,0.0,0.0,0.0,0.0,-3.1029,-3.1306,0.0,-3.2582,0.0,-3.4341,-3.5273,-3.6059,-3.6246,0.0,0.0,-3.7529,-3.7881,-3.8792,-3.8895,-3.9454,-4.0903,-4.1172,-4.1586,-4.2476,-4.2704,-4.3014,-4.3698,-4.3511,-4.3449,-4.3905,-4.436,-4.4691,-4.4815,-4.494,-4.4981,-4.5022,-4.5002,-4.5022,-4.5002,-4.5002,-4.5002,-4.5002,-4.5002,-4.4844,-4.445,-4.4035,-4.3618,-4.3181,-4.2742,-4.2324,-4.1914,-4.1836,-4.1836,-4.1816,-4.1797,-4.1797,-5.4367,-5.4158,-5.4158,-5.3766,-5.3112,-5.2616,-5.238,-5.238,-5.2067,-5.1936,-5.1936,-5.1596,-5.1439,-5.1439,-5.1439,-5.1622,-5.1962,-5.225,-5.2563,-5.2929,-5.3504,-5.3766,-5.3766,-5.4027,-5.4158,-5.4158,-5.4158,-5.4158,-5.4158,-5.4158,-5.4158,-5.4158,-5.4158,-5.4001,-5.3661,-5.34,-5.3426,-5.3739,-5.4314,-5.4759,-5.5072,-5.4785,-5.4471,-5.421,-5.3922,-5.3373,-5.2511,-5.2171,-5.1664,-5.0903,-4.943,-4.7825,-4.5944,-4.3578,-4.1329,0.0,0.0,0.0,0.0,0.0,0.0,0.0,0.0,0.0,0.0,0.0,-3.43,-3.5211,-3.6121,-3.6949,-3.7653,-3.7715,-3.8088,-3.8999,-3.9102,-3.9433,-4.0344,-4.0448,-4.0882,-4.2042,-4.2166,-4.2518,-4.3408,-4.3532,-4.378,-4.4505,-4.4567,-4.4546,-4.4629,-4.5002,-4.5312,-4.5291,-4.5478,-4.5602,-4.5602,-4.5602,-4.5602,-4.5602,-4.5602,-4.5602,-4.5602,-4.5602,-4.5522,-4.5283,-4.4703,-4.4221,-4.3979,-4.3394,-4.2988,-4.2988,-4.2988,-4.2851,-4.25,-4.2422,-4.2422,-5.5752,-5.5334,-5.5229,-5.5203,-5.5125,-5.4079,-5.3635,-5.3609,-5.353,-5.3452,-5.34,-5.34,-5.34,-5.34,-5.34,-5.3426,-5.3504,-5.3504,-5.3556,-5.3635,-5.4105,-5.4314,-5.4341,-5.4863,-5.5099,-5.5099,-5.5099,-5.5099,-5.5099,-5.5099,-5.5099,-5.5099,-5.5099,-5.5099,-5.5072,-5.4576,-5.4314,-5.4314,-5.4837,-5.5099,-5.5099,-5.5099,-5.4863,-5.4341,-5.4314,-5.3766,-5.2668,-5.2616,-5.2302,-5.1622,-5.0503,-4.9214,-4.7758,-4.5417,-4.3296,0.0,-4.012,0.0,0.0,0.0,0.0,0.0,0.0,0.0,0.0,-3.5562,-3.6183,-3.6991,-3.786,-3.8564,-3.8993,-3.9055,-3.9475,-4.0365,-4.0489,-4.082,-4.1628,-4.1731,-4.2104,-4.2994,-4.3097,-4.3428,-4.4236,-4.4381,-4.4546,-4.5002,-4.5354,-4.5478,-4.5291,-4.5519,-4.5768,-4.5768,-4.6099,-4.6163,-4.6264,-4.6204,-4.6285,-4.6225,-4.6204,-4.6266,-4.6204,-4.6225,-4.6266,-4.6247,-4.5678,-4.5126,-4.5104,-4.4466,-4.3887,-4.3867,-4.3867,-4.3613,-4.2891,-4.2656,-4.2598,-5.6562,-5.6432,-5.5961,-5.5752,-5.57,-5.5046,-5.4785,-5.4733,-5.4262,-5.3792,-5.34,-5.34,-5.34,-5.34,-5.34,-5.3635,-5.4053,-5.4053,-5.4314,-5.4785,-5.4889,-5.4942,-5.4942,-5.5046,-5.5099,-5.5099,-5.5099,-5.5099,-5.5099,-5.5099,-5.5099,-5.5099,-5.5099,-5.5099,-5.5099,0.0,0.0,0.0,-5.5046,-5.5099,-5.5099,-5.5099,-5.5046,-5.4942,-5.4942,0.0,-5.3295,-5.3217,-5.272,-5.1675,-5.0865,0.0,0.0,0.0,0.0,0.0,0.0,0.0,0.0,0.0,0.0,0.0,-3.9714,-3.8829,-3.7548,-3.7847,-3.8207,-3.8393,-3.8978,-3.962,-4.0406,-4.0489,-4.0862,-4.1752,-4.1876,-4.2083,-4.26,-4.2663,-4.3014,-4.3925,-4.4049,-4.4236,-4.4753,-4.4857,-4.5043,-4.5478,-4.5643,-4.5809,-4.6037,-4.606,-4.6202,-4.6163,-4.6204,-4.6266,-4.6266,-4.6287,-4.6308,-4.6266,-4.6266,-4.6287,-4.6308,-4.6308,-4.6432,-4.6741,-4.6167,-4.573,-4.6031,-4.5376,-4.4726,-4.4766,-4.4746,-4.4512,-4.3652,-4.3457,-4.3457,-5.7059,-5.6771,-5.6484,-5.6353,0.0,-5.6066,-5.5935,-5.5883,-5.502,-5.4497,-5.4236,-5.4236,-5.4236,-5.4236,-5.4236,-5.4393,-5.4654,-5.4654,-5.4811,-5.5099,-5.5099,-5.5099,-5.5099,-5.5099,-5.5099,-5.5099,-5.5099,-5.5099,-5.5099,-5.5099,-5.5099,-5.5099,-5.5099,-5.5099,-5.5099,-5.5099,-5.5099,-5.5099,-5.5099,-5.5099,-5.5099,-5.5099,-5.5099,-5.5099,-5.5099,0.0,0.0,0.0,0.0,0.0,0.0,0.0,0.0,-4.9078,0.0,-4.707,-4.5722,-4.4789,-4.4463,-4.3611,-4.3085,-4.3241,-4.2823,-4.1697,-3.9862,-4.0351,-4.0668,-4.048,-4.0896,-4.1284,-4.1576,-4.1545,-4.1908,-4.2497,-4.258,-4.2766,-4.318,-4.347,-4.378,-4.4215,-4.4505,-4.4815,-4.5271,-4.5333,-4.5519,-4.5933,-4.6016,-4.6099,-4.6204,-4.6266,-4.6266,-4.6266,-4.6266,-4.643,-4.6555,-4.6678,-4.6782,-4.6947,-4.701,-4.701,-4.701,-4.701,-4.7092,-4.7237,-4.6615,-4.6132,-4.6229,-4.5633,-4.5039,-4.5039,-4.5039,-4.4902,-4.4433,-4.4355,-4.4355,-5.7529,-5.7111,-5.7007,-5.6954,-5.6954,-5.685,-5.6824,-5.6745,0.0,0.0,0.0,-5.5099,-5.5099,-5.5099,-5.5099,-5.5099,-5.5099,-5.5099,-5.5099,-5.5125,-5.5203,-5.5229,-5.5229,-5.536,-5.5412,-5.5412,-5.5412,-5.5412,-5.5412,-5.5412,-5.5412,-5.5412,-5.5412,-5.536,-5.5255,-5.5151,-5.5099,-5.5099,-5.5099,-5.5099,-5.5099,-5.5099,-5.5099,-5.5099,-5.5099,-5.4811,-5.4236,-5.421,-5.3949,-5.3426,-5.2724,-5.2174,-5.1885,-5.0754,-4.9751,-4.9194,-4.8403,-4.7695,-4.7025,-4.6281,-4.5783,-4.5709,-4.5217,-4.4024,-4.1994,-4.2543,-4.2754,-4.2487,-4.2752,-4.2858,-4.25,-4.2521,-4.2633,-4.2994,-4.3118,-4.3325,-4.3698,-4.4153,-4.4443,-4.4546,-4.4898,-4.5291,-4.5726,-4.5809,-4.5933,-4.6244,-4.6306,-4.6409,-4.637,-4.6411,-4.6513,-4.6432,-4.6535,-4.6761,-4.703,-4.7154,-4.7299,-4.7548,-4.7631,-4.7672,-4.7672,-4.7672,-4.7713,-4.7796,-4.7084,-4.6639,-4.651,-4.591,-4.5254,-4.5254,-4.5254,-4.5254,-4.5254,-4.5254,-4.5195,-5.834,-5.8235,-5.7739,-5.7599,-5.7573,-5.7007,-5.6824,-5.6745,-5.6092,-5.5543,-5.5099,-5.5099,-5.5099,-5.5099,-5.5099,-5.5099,-5.5099,-5.5099,-5.5099,-5.5125,-5.5569,-5.5804,-5.583,-5.6327,-5.6562,-5.6562,-5.6562,-5.6562,-5.6562,-5.6562,-5.6562,-5.6562,-5.6562,-5.6301,-5.5804,-5.5334,-5.5099,-5.5099,-5.5099,-5.5099,-5.5099,-5.5099,-5.5099,-5.5099,-5.5099,-5.4811,-5.4236,-5.421,-5.3949,-5.3426,-5.2724,-5.2265,-5.2174,-5.1172,-5.0588,-5.0454,-4.9775,-4.9184,-4.8776,-4.8021,-4.7214,-4.6348,-4.6209,-4.5489,-4.3788,-4.3448,-4.3388,-4.3316,-4.3422,-4.3351,-4.3341,-4.335,-4.341,-4.3566,-4.3863,-4.4132,-4.4215,-4.4608,-4.5043,-4.5374,-4.554,-4.5747,-4.6119,-4.6223,-4.6244,-4.6246,-4.6471,-4.6432,-4.6762,-4.6927,-4.6947,-4.6907,-4.7258,-4.7506,-4.7589,-4.7589,-4.7651,-4.7672,-4.7734,-4.7796,-4.7796,-4.7796,-4.792,-4.821,-4.7617,-4.7163,-4.7379,-4.6741,-4.6142,-4.6035,-4.6016,-4.6035,-4.6016,-4.6035,-4.5859,-5.881,-5.8497,-5.8235,-5.8131,-5.8104,-5.7843,-5.7556,-5.7268,-5.6981,-5.6536,-5.6066,-5.6013,-5.6013,-5.604,-5.6013,-5.6013,-5.6013,-5.604,-5.6013,-5.604,-5.6275,-5.6379,-5.6405,-5.6693,-5.6824,-5.6824,-5.6824,-5.6824,-5.6824,-5.6824,-5.6824,-5.6824,-5.6824,-5.6667,-5.6405,-5.6144,-5.604,-5.6013,-5.5412,-5.5099,-5.5099,-5.5099,-5.5099,-5.5099,-5.5099,-5.4994,-5.4707,-5.468,-5.4576,-5.4314,-5.3653,-5.3228,-5.3202,-5.2354,-5.1879,-5.1879,-5.147,-5.099,-5.0575,-4.9671,-4.8662,-4.7545,-4.7463,-4.7001,-4.583,-4.542,-4.498,-4.4611,-4.4537,-4.4507,-4.46,-4.4567,-4.4681,-4.5013,-4.5265,-4.5293,-4.5101,-4.5399,-4.5674,-4.5744,-4.5892,-4.6119,-4.6246,-4.6266,-4.639,-4.6576,-4.6885,-4.7154,-4.7382,-4.761,-4.7672,-4.7465,-4.7568,-4.7775,-4.8003,-4.8045,-4.8148,-4.8376,-4.8438,-4.8438,-4.8438,-4.8438,-4.8521,-4.8686,-4.8151,-4.7804,-4.7788,-4.7181,-4.6658,-4.6308,-4.6308,-4.6308,-4.6308,-4.6308,-4.6152,-5.9228,-5.8706,-5.8706,-5.8653,-5.8523,-5.8523,-5.8261,-5.7869,-5.7843,-5.7608,-5.719,-5.6928,-5.6824,-5.6824,-5.6824,-5.6798,-5.6824,-5.6824,-5.6798,-5.6824,-5.6928,-5.7007,-5.7033,-5.7111,-5.719,-5.719,-5.719,-5.719,-5.719,-5.719,-5.719,-5.719,-5.7059,-5.7007,-5.6981,-5.6876,-5.6824,-5.6771,-5.5935,-5.5491,-5.5491,-5.5491,-5.5412,-5.5282,-5.5282,-5.5229,-5.5099,-5.5099,-5.5032,-5.4965,-5.4335,-5.3929,-5.3861,-5.3247,-5.2861,-5.2861,-5.2654,-5.2308,-5.182,-5.0934,-4.9984,-4.907,-4.8872,-4.8575,-4.7891,-4.7448,-4.6809,-4.5974,-4.589,-4.5901,-4.5822,-4.5831,-4.5924,-4.6287,-4.6436,-4.6245,-4.6031,-4.6332,-4.6526,-4.6191,-4.6301,-4.6449,-4.6552,-4.6513,-4.6617,-4.7134,-4.7548,-4.7817,-4.7879,-4.8231,-4.8334,-4.8127,-4.8003,-4.8148,-4.8479,-4.8521,-4.8666,-4.9038,-4.9038,-4.8976,-4.8976,-4.9038,-4.9059,-4.9017,-4.8695,-4.8179,-4.7788,-4.7268,-4.6832,-4.6396,-4.6308,-4.6328,-4.6465,-4.6484,-4.6387,-5.9803,-5.9307,-5.9281,-5.8967,-5.8523,-5.8523,-5.847,-5.8418,-5.8418,-5.8418,-5.8209,-5.7268,-5.685,-5.6824,-5.685,-5.6876,-5.685,-5.6824,-5.685,-5.6928,-5.7346,-5.7582,-5.7608,-5.8104,-5.8366,-5.8314,-5.8287,-5.8261,-5.8261,-5.8287,-5.834,-5.8287,-5.7843,-5.7651,-5.7529,-5.7085,-5.6824,-5.6824,-5.6693,-5.6667,-5.6641,-5.6641,-5.6379,-5.583,-5.583,-5.5595,-5.5177,-5.5099,-5.4965,-5.4578,-5.4225,-5.3887,-5.3572,-5.3161,-5.2886,-5.2886,-5.2886,-5.2585,-5.187,-5.158,-5.1202,-5.0696,-5.0417,-5.0133,-4.9611,-4.926,-4.8501,-4.7459,-4.7247,-4.7138,-4.6807,-4.6807,-4.6695,-4.6514,-4.6734,-4.6826,-4.6869,-4.7172,-4.747,-4.747,-4.7153,-4.708,-4.7354,-4.7235,-4.7175,-4.7568,-4.8024,-4.8314,-4.8334,-4.8645,-4.8914,-4.8893,-4.8914,-4.8893,-4.8955,-4.8997,-4.8997,-4.9059,-4.9059,-4.9059,-4.9059,-4.908,-4.908,-4.9204,-4.8925,-4.8428,-4.7889,-4.7354,-4.6979,-4.666,-4.6484,-4.6445,-4.6758,-4.6875,-4.6758,-6.0405,-5.9856,-5.9516,-5.9045,-5.8549,-5.8523,-5.8523,-5.8523,-5.8523,-5.8523,-5.847,-5.8026,-5.7817,-5.7817,-5.7817,-5.7817,-5.7817,-5.7817,-5.7817,-5.7843,-5.8052,-5.8183,-5.8209,-5.8392,-5.8523,-5.8523,-5.8523,-5.8523,-5.8523,-5.8523,-5.8523,-5.8497,-5.8261,-5.8157,-5.8131,-5.7921,-5.7817,-5.7817,-5.7817,-5.7817,-5.7739,-5.7137,-5.6693,-5.6484,-5.6458,-5.6353,-5.6144,-5.6118,-5.5888,-5.552,-5.5203,-5.4883,-5.4467,-5.4119,-5.3909,-5.3884,-5.3673,-5.3417,-5.3134,-5.2618,-5.2164,-5.1777,-5.1384,-5.106,-5.0639,-5.0296,-4.9859,-4.9299,-4.8656,-4.8189,-4.8069,-4.8057,-4.7934,-4.7883,-4.8021,-4.8028,-4.7734,-4.7905,-4.8018,-4.7954,-4.7877,-4.7824,-4.8,-4.7984,-4.7879,-4.8127,-4.85,-4.8748,-4.879,-4.8955,-4.9038,-4.9059,-4.9059,-4.9059,-4.9059,-4.9059,-4.908,-4.908,-4.9059,-4.9059,-4.9121,-4.9349,-4.9473,-4.9473,-4.9465,-4.9174,-4.8614,-4.831,-4.7957,-4.7386,-4.7051,-4.7129,-4.7285,-4.7305,-4.7207,-6.1006,-6.0405,-5.983,-5.9281,-5.8758,-5.8758,-5.8653,-5.8523,-5.8523,-5.8523,-5.8523,-5.8523,-5.8523,-5.8523,-5.8523,-5.8523,-5.8523,-5.8523,-5.8523,-5.8523,-5.8523,-5.8523,-5.8523,-5.8523,-5.8523,-5.8523,-5.8523,-5.8523,-5.8523,-5.8523,-5.8523,-5.8523,-5.8523,-5.8523,-5.8523,-5.8523,-5.8523,-5.8497,-5.8523,-5.8523,-5.8392,-5.7712,-5.7216,-5.7059,-5.7033,-5.6981,-5.6824,-5.6824,-5.6591,-5.6106,-5.5853,-5.5504,-5.5011,-5.4703,-5.4561,-5.4561,-5.4348,-5.4135,-5.3992,-5.3638,-5.3205,-5.2671,-5.2425,-5.2101,-5.1703,-5.1385,-5.1192,-5.1093,-5.0338,-4.9729,-4.9229,-4.9141,-4.924,-4.9258,-4.9302,-4.9065,-4.8727,-4.8757,-4.8836,-4.8677,-4.8665,-4.8677,-4.8732,-4.8756,-4.8816,-4.8858,-4.8916,-4.9059,-4.9059,-4.9059,-4.9059,-4.908,-4.9162,-4.929,-4.91,-4.9224,-4.9224,-4.9307,-4.9369,-4.9514,-4.9431,-4.9763,-4.9928,-4.997,-5.0259,-5.0099,-4.927,-4.8997,-4.8673,-4.7937,-4.7598,-4.7637,-4.7734,-4.7734,-4.7812,-6.1607,-6.1006,-6.0431,-5.9856,-5.9333,-5.9307,-5.9019,-5.8575,-5.8523,-5.8523,-5.8523,-5.8523,-5.8523,-5.8523,-5.8523,-5.8523,-5.8523,-5.8523,-5.8523,-5.8523,-5.8523,-5.8523,-5.8523,-5.8523,-5.8523,-5.8523,-5.8523,-5.8523,-5.8523,-5.8523,-5.8523,-5.8523,-5.8523,-5.8523,-5.8523,-5.8523,-5.8523,-5.8523,-5.8523,-5.8523,-5.8523,-5.8444,-5.8104,-5.7686,-5.7634,-5.7373,-5.6954,-5.685,-5.6505,-5.5784,-5.5791,-5.5414,-5.4754,-5.4683,-5.4637,-5.4637,-5.4612,-5.447,-5.4188,-5.4442,-5.4326,-5.3692,-5.3588,-5.3477,-5.308,-5.2599,-5.2418,-5.2465,-5.2219,-5.1608,-5.0488,-5.0209,-5.0076,-5.0065,-5.0087,-4.9875,-4.9482,-4.9822,-4.9861,-4.9679,-4.9643,-4.9643,-4.9656,-4.9681,-4.9616,-4.9488,-4.938,-4.9144,-4.9144,-4.9144,-4.908,-4.9183,-4.939,-4.9576,-4.9224,-4.9473,-4.9701,-4.9763,-4.9928,-5.0239,-5.0342,-5.0384,-5.0384,-5.0425,-5.057,-5.0414,-4.9848,-4.9227,-4.8703,-4.8204,-4.7883,-4.7871,-4.8144,-4.8183,-4.8242,-6.1633,-6.111,-6.0901,-6.0457,-5.9908,-5.9516,-5.9255,-5.9019,-5.8653,-5.8523,-5.8523,-5.8523,-5.8523,-5.8523,-5.8523,-5.8523,-5.8523,-5.8523,-5.8523,-5.8523,-5.8523,-5.8523,-5.8523,-5.8523,-5.8523,-5.8523,-5.8523,-5.8523,-5.8523,-5.8523,-5.8523,-5.8523,-5.8523,-5.8523,-5.8523,-5.8523,-5.8523,-5.8523,-5.8523,-5.8523,-5.8523,-5.8523,-5.8392,-5.8235,-5.8209,-5.8104,-5.7895,-5.7685,-5.7261,-5.679,-5.655,-5.6192,-5.5688,-5.5616,-5.5616,-5.5616,-5.5616,-5.5544,-5.5424,-5.5355,-5.5187,-5.4893,-5.4448,-5.4122,-5.3873,-5.337,-5.2992,-5.2992,-5.2764,-5.2323,-5.2171,-5.1491,-5.0766,-5.0344,-5.0457,-5.0636,-5.0567,-5.0823,-5.1063,-5.091,-5.0796,-5.0582,-5.0522,-5.0315,-5.0146,-5.0061,-4.9742,-4.9486,-4.9401,-4.923,-4.9269,-4.9538,-4.9638,-4.9804,-4.999,-5.0052,-5.0177,-5.0197,-5.0322,-5.0384,-5.0466,-5.0777,-5.0839,-5.0901,-5.0984,-5.095,-5.0482,-4.9763,-4.9151,-4.8646,-4.8372,-4.8262,-4.8594,-4.8516,-4.8613,-6.1738,-6.1424,-6.1398,-6.1058,-6.0509,-6.0091,-5.9803,-5.9594,-5.9045,-5.8784,-5.8758,-5.8601,-5.8523,-5.8523,-5.8523,-5.8523,-5.8523,-5.8523,-5.8523,-5.8523,-5.8523,-5.8523,-5.8523,-5.8523,-5.8523,-5.8523,-5.8523,-5.8523,-5.8523,-5.8523,-5.8523,-5.8523,-5.8523,-5.8523,-5.8523,-5.8523,-5.8523,-5.8523,-5.8523,-5.8523,-5.8523,-5.8523,-5.8523,-5.8523,-5.8523,-5.8523,-5.8523,-5.8141,-5.7713,-5.7379,-5.7019,-5.6656,-5.6292,-5.6219,-5.6219,-5.6219,-5.6194,-5.6219,-5.6219,-5.5901,-5.5754,-5.5632,-5.509,-5.4794,-5.457,-5.4122,-5.3819,-5.3788,-5.3632,-5.3594,-5.3565,-5.3008,-5.2178,-5.1601,-5.1639,-5.1685,-5.1571,-5.1898,-5.2047,-5.1899,-5.1651,-5.1474,-5.1265,-5.0929,-5.0675,-5.0654,-5.0252,-5.0018,-5.0081,-4.9973,-4.9969,-5.0408,-5.0659,-5.0889,-5.1186,-5.1375,-5.098,-5.0892,-5.0948,-5.0907,-5.0818,-5.1129,-5.1294,-5.1377,-5.1411,-5.1417,-5.1066,-5.0337,-4.9787,-4.9216,-4.8842,-4.8633,-4.8769,-4.8808,-4.8828,-6.1973,-6.1921,-6.2048,-6.1607,-6.1136,-6.1006,-6.0718,-6.0169,-5.962,-5.9333,-5.9202,-5.8784,-5.8575,-5.8523,-5.8523,-5.8523,-5.8523,-5.8523,-5.8523,-5.8523,-5.8523,-5.8523,-5.8523,-5.8523,-5.8523,-5.8523,-5.8523,-5.8523,-5.8523,-5.8523,-5.8523,-5.8523,-5.8523,-5.8523,-5.8523,-5.8575,-5.8575,-5.8601,-5.8653,-5.8653,-5.8549,-5.8653,-5.8679,-5.8627,-5.8653,-5.8653,-5.8504,-5.8096,-5.7713,-5.7379,-5.7019,-5.6583,-5.6292,-5.6219,-5.6219,-5.6219,-5.6219,-5.6219,-5.6219,-5.612,-5.5974,-5.5705,-5.5558,-5.5362,-5.5139,-5.499,-5.5013,-5.5126,-5.5148,-5.5138,-5.4902,-5.4819,-5.446,-5.4163,-5.3566,-5.3297,-5.3072,-5.2958,-5.2867,-5.2508,-5.2415,-5.2187,-5.1874,-5.1455,-5.1181,-5.1013,-5.0824,-5.0613,-5.0953,-5.0888,-5.125,-5.1675,-5.1885,-5.19,-5.2394,-5.2779,-5.214,-5.1631,-5.1729,-5.1792,-5.1619,-5.1785,-5.1674,-5.1716,-5.1626,-5.161,-5.1248,-5.0519,-5.0154,-4.9604,-4.9308,-4.894,-4.8848,-4.8848,-4.8848,-6.2048,-6.2048,-6.2048,-6.1868,-6.1659,-6.1293,-6.1006,-6.0771,-6.0195,-5.9725,-5.9385,-5.9176,-5.8889,-5.8575,-5.8523,-5.8523,-5.8523,-5.8523,-5.8523,-5.8523,-5.8523,-5.8523,-5.8523,-5.8523,-5.8523,-5.8523,-5.8523,-5.8523,-5.8523,-5.8523,-5.8523,-5.8523,-5.8523,-5.8523,-5.8575,-5.8889,-5.9098,-5.915,-5.949,-5.9699,-5.9699,-5.9673,-5.9673,-5.9699,-5.9699,-5.9372,-5.8739,-5.7945,-5.7379,-5.7019,-5.6583,-5.6365,-5.6219,-5.6219,-5.6219,-5.6219,-5.6219,-5.6219,-5.6219,-5.6244,-5.6171,-5.5999,-5.5779,-5.5757,-5.5906,-5.5731,-5.5827,-5.6143,-5.6241,-5.6309,-5.6594,-5.6663,-5.5974,-5.4391,-5.4413,-5.4545,-5.4274,-5.4084,-5.3779,-5.3386,-5.3101,-5.2686,-5.2353,-5.202,-5.1896,-5.1688,-5.1462,-5.1509,-5.1574,-5.1723,-5.1783,-5.223,-5.2485,-5.2765,-5.3088,-5.3327,-5.2996,-5.2576,-5.2566,-5.2423,-5.2333,-5.2242,-5.2152,-5.1972,-5.1882,-5.1701,-5.1248,-5.0884,-5.0428,-4.9971,-4.9604,-4.9328,-4.894,-4.894,-4.9032,-6.2048,-6.2048,-6.2048,-6.2048,-6.1947,-6.1581,-6.1424,-6.1346,-6.0797,-6.0352,-6.0039,-5.9777,-5.9359,-5.8915,-5.881,-5.8706,-5.8549,-5.8523,-5.8523,-5.8523,-5.8523,-5.8523,-5.8523,-5.8523,-5.8523,-5.8523,-5.8523,-5.8523,-5.8523,-5.8706,-5.8836,-5.8836,-5.9019,-5.9176,-5.9176,-5.949,-5.9673,-5.9725,-6.0013,-6.0222,-6.0222,-6.0222,-6.0222,-6.0222,-6.0076,-5.9601,-5.8946,-5.8174,-5.7451,-5.6903,-5.6438,-5.6219,-5.6219,-5.6219,-5.6219,-5.6244,-5.6394,-5.652,-5.652,-5.6746,-5.6846,-5.6747,-5.6599,-5.6601,-5.6825,-5.675,-5.6847,-5.7141,-5.7188,-5.741,-5.7724,-5.777,-5.7131,-5.5926,-5.5747,-5.562,-5.5372,-5.502,-5.4638,-5.4171,-5.376,-5.3326,-5.2852,-5.2886,-5.2869,-5.2623,-5.2531,-5.2712,-5.2735,-5.278,-5.2907,-5.3142,-5.3424,-5.3706,-5.379,-5.3854,-5.3854,-5.3544,-5.3387,-5.3051,-5.2782,-5.2782,-5.2692,-5.2333,-5.2152,-5.1972,-5.161,-5.1248,-5.0793,-5.0337,-4.9971,-4.9787,-4.9604,-4.9308,-4.9308,-6.2048,-6.2048,-6.2048,-6.2048,-6.2048,-6.1921,-6.1969,-6.1868,-6.1398,-6.111,-6.0927,-6.0483,-5.996,-5.9516,-5.9411,-5.9176,-5.8732,-5.8758,-5.8784,-5.8758,-5.8732,-5.8706,-5.8549,-5.8523,-5.8575,-5.8627,-5.8627,-5.8653,-5.8836,-5.9202,-5.9411,-5.9437,-5.983,-6.0169,-6.0091,-6.0222,-6.0274,-6.03,-6.0352,-6.0431,-6.0431,-6.0405,-6.0405,-6.0431,-6.0064,-5.9643,-5.9171,-5.8572,-5.7818,-5.7007,-5.6591,-5.647,-5.6369,-5.6319,-5.642,-5.647,-5.6821,-5.7047,-5.7198,-5.7449,-5.7725,-5.77,-5.77,-5.7926,-5.7851,-5.78,-5.7849,-5.8144,-5.8141,-5.8263,-5.8348,-5.8369,-5.8266,-5.8183,-5.7352,-5.6582,-5.5909,-5.5772,-5.5287,-5.4742,-5.4393,-5.4193,-5.3521,-5.3715,-5.3834,-5.3806,-5.3864,-5.4052,-5.4253,-5.4214,-5.4347,-5.4456,-5.4587,-5.4631,-5.4762,-5.4762,-5.4741,-5.4652,-5.4298,-5.3854,-5.3319,-5.314,-5.3051,-5.2692,-5.2513,-5.2242,-5.1972,-5.1701,-5.1248,-5.0884,-5.0611,-5.0428,-5.0154,-4.9787,-4.9696,-6.2048,-6.2048,-6.2048,-6.2048,-6.2048,-6.2048,-6.2048,-6.1947,-6.1816,-6.1502,-6.1163,-6.0953,-6.0561,-6.0039,-5.9986,-5.9908,-5.9725,-5.9725,-5.9777,-5.9777,-5.9777,-5.9255,-5.8653,-5.8549,-5.8758,-5.9098,-5.915,-5.9359,-5.9751,-5.9908,-5.9986,-5.9986,-6.0195,-6.0274,-6.0248,-6.0692,-6.0875,-6.0953,-6.1319,-6.1476,-6.145,-6.145,-6.1502,-6.1502,-6.1077,-6.0495,-5.9686,-5.8604,-5.7951,-5.7674,-5.7524,-5.7449,-5.7374,-5.7374,-5.7349,-5.7374,-5.7524,-5.7675,-5.77,-5.7851,-5.7926,-5.7901,-5.8001,-5.8077,-5.8478,-5.8504,-5.8703,-5.9002,-5.9153,-5.91,-5.9173,-5.912,-5.9043,-5.8731,-5.8025,-5.7211,-5.6734,-5.6358,-5.598,-5.5473,-5.5392,-5.509,-5.4816,-5.4796,-5.488,-5.4716,-5.4866,-5.5076,-5.5235,-5.5394,-5.5355,-5.5509,-5.5686,-5.5708,-5.573,-5.573,-5.573,-5.573,-5.5379,-5.4917,-5.421,-5.3498,-5.3319,-5.3051,-5.3051,-5.2872,-5.2513,-5.2242,-5.1791,-5.1429,-5.1157,-5.0975,-5.0519,-5.0154,-5.0154,-6.2048,-6.2048,-6.2048,-6.2048,-6.2048,-6.2048,-6.2048,-6.2048,-6.2048,-6.1816,-6.1529,-6.1476,-6.1136,-6.064,-6.0588,-6.0457,-6.0248,-6.0222,-6.0222,-6.0222,-6.0195,-5.983,-5.9359,-5.9228,-5.9411,-5.9673,-5.9725,-5.9882,-6.0195,-6.0457,-6.0588,-6.0666,-6.0849,-6.0927,-6.1032,-6.1267,-6.1476,-6.1529,-6.1816,-6.2048,-6.2048,-6.2048,-6.2048,-6.1898,-6.142,-6.0709,-5.9769,-5.8958,-5.8403,-5.8027,-5.7901,-5.7901,-5.7901,-5.7901,-5.7901,-5.7901,-5.8102,-5.8227,-5.8303,-5.8428,-5.8579,-5.8579,-5.8554,-5.873,-5.8981,-5.9056,-5.9232,-5.9408,-5.9483,-5.9508,-5.9508,-5.9508,-5.9431,-5.912,-5.8575,-5.7947,-5.7314,-5.6997,-5.6741,-5.6435,-5.6311,-5.6313,-5.609,-5.6216,-5.6244,-5.623,-5.6411,-5.6382,-5.6283,-5.6358,-5.6342,-5.6342,-5.6342,-5.6255,-5.6168,-5.6168,-5.6255,-5.6342,-5.6342,-5.5883,-5.5093,-5.4188,-5.3943,-5.3765,-5.3587,-5.3409,-5.3051,-5.2872,-5.2602,-5.2242,-5.1861,-5.159,-5.1248,-5.0884,-5.0793,-6.2048,-6.2048,-6.2048,-6.2048,-6.2048,-6.2048,-6.2048,-6.2048,-6.2048,-6.1973,-6.1921,-6.2022,-6.1633,-6.1215,-6.1189,-6.0927,-6.0483,-6.0588,-6.0509,-6.0561,-6.0561,-6.0457,-6.0431,-6.0091,-6.0143,-6.03,-6.03,-6.0405,-6.064,-6.1032,-6.1189,-6.1267,-6.1659,-6.1894,-6.1764,-6.1969,-6.2022,-6.1894,-6.1921,-6.2048,-6.2048,-6.1973,-6.1973,-6.1747,-6.1041,-6.0329,-5.9741,-5.9357,-5.9031,-5.8127,-5.8077,-5.8177,-5.8127,-5.8102,-5.8127,-5.8227,-5.8579,-5.878,-5.8855,-5.9156,-5.9408,-5.9357,-5.9382,-5.9508,-5.9433,-5.9408,-5.9433,-5.9483,-5.9508,-5.9508,-5.9508,-5.9508,-5.9508,-5.9378,-5.9145,-5.8673,-5.8044,-5.7808,-5.7684,-5.7419,-5.7353,-5.7418,-5.7538,-5.782,-5.8042,-5.7499,-5.7654,-5.7514,-5.7435,-5.7355,-5.7188,-5.6951,-5.6777,-5.6603,-5.6603,-5.6603,-5.669,-5.6864,-5.6951,-5.6668,-5.6058,-5.5335,-5.4917,-5.4652,-5.4475,-5.4121,-5.3587,-5.3409,-5.3319,-5.2961,-5.2513,-5.2513,-5.2402,-5.1972,-5.1701,-6.2048,-6.2048,-6.2048,-6.2048,-6.2048,-6.2048,-6.2048,-6.2048,-6.2048,-6.2048,-6.2048,-6.2048,-6.1894,-6.1764,-6.1738,-6.1711,-6.1502,-6.1502,-6.1607,-6.1607,-6.1607,-6.1581,-6.1372,-6.0744,-6.0535,-6.0797,-6.0927,-6.1136,-6.1502,-6.1581,-6.1764,-6.179,-6.1842,-6.2048,-6.2048,-6.2048,-6.2048,-6.2048,-6.2048,-6.2048,-6.2048,-6.1973,-6.1796,-6.1495,-6.0737,-6.0048,-5.9663,-5.9508,-5.9382,-5.9207,-5.9106,-5.9006,-5.9031,-5.9056,-5.9031,-5.9056,-5.9156,-5.9307,-5.9332,-5.9408,-5.9508,-5.9508,-5.9508,-5.9508,-5.9508,-5.9508,-5.9508,-5.9508,-5.9508,-5.9508,-5.9508,-5.9508,-5.9533,-5.9608,-5.9807,-5.9719,-5.935,-5.8955,-5.8576,-5.837,-5.8548,-5.8714,-5.845,-5.851,-5.8674,-5.8644,-5.8639,-5.8624,-5.8477,-5.8306,-5.8049,-5.7728,-5.7642,-5.7556,-5.7556,-5.7556,-5.7556,-5.7556,-5.7642,-5.7619,-5.7015,-5.6494,-5.6058,-5.5621,-5.5357,-5.4917,-5.4387,-5.4032,-5.3943,-5.3587,-5.323,-5.323,-5.314,-5.2782,-5.2617,-6.2048,-6.2048,-6.2048,-6.2048,-6.2048,-6.2048,-6.2048,-6.2048,-6.2048,-6.2048,-6.2048,-6.2048,-6.2048,-6.2048,-6.2048,-6.2048,-6.2048,-6.2048,-6.1947,-6.1947,-6.2022,-6.2022,-6.1921,-6.145,-6.1241,-6.1502,-6.1502,-6.1711,-6.1894,-6.2048,-6.2022,-6.2048,-6.2048,-6.2048,-6.2048,-6.2048,-6.2048,-6.2048,-6.2048,-6.2048,-6.2048,-6.1973,-6.1646,-6.1117,-6.0431,-5.9869,-5.956,-5.9508,-5.9508,-5.9508,-5.9508,-5.9508,-5.9508,-5.9508,-5.9508,-5.9508,-5.9508,-5.9508,-5.9483,-5.9508,-5.9508,-5.9508,-5.9508,-5.9508,-5.9508,-5.9508,-5.9508,-5.9508,-5.9508,-5.9508,-5.9508,-5.9508,-5.9583,-5.9885,-6.0136,-6.0255,-6.0347,-6.0,-5.9724,-5.9519,-5.978,-5.995,-5.9912,-5.9701,-5.9655,-5.9823,-5.9594,-5.9497,-5.9158,-5.8964,-5.8818,-5.8562,-5.8671,-5.8671,-5.8586,-5.8586,-5.85,-5.8415,-5.8415,-5.8306,-5.8049,-5.7533,-5.7101,-5.6581,-5.5971,-5.573,-5.5291,-5.5005,-5.4741,-5.4741,-5.4564,-5.4121,-5.3765,-5.343,-5.3353,-6.2048,-6.2048,-6.2048,-6.2048,-6.2048,-6.2048,-6.2048,-6.2048,-6.2048,-6.2048,-6.2048,-6.2048,-6.2048,-6.2048,-6.2048,-6.2048,-6.2048,-6.2048,-6.2048,-6.2048,-6.2048,-6.2048,-6.1921,-6.1868,-6.1816,-6.2048,-6.1921,-6.1947,-6.1947,-6.2048,-6.2048,-6.2048,-6.2048,-6.2048,-6.2048,-6.2048,-6.2048,-6.2048,-6.2048,-6.2048,-6.2048,-6.1973,-6.1597,-6.0813,-6.0201,-5.9792,-5.956,-5.9508,-5.9508,-5.9508,-5.9508,-5.9508,-5.9508,-5.9508,-5.9508,-5.9508,-5.9508,-5.9508,-5.9508,-5.9508,-5.9508,-5.9508,-5.9508,-5.9508,-5.9508,-5.9508,-5.9508,-5.9508,-5.9508,-5.9508,-5.9508,-5.9659,-5.9885,-6.0211,-6.0412,-6.0814,-6.1086,-6.1021,-6.0918,-6.0718,-6.0752,-6.099,-6.0963,-6.0861,-6.0851,-6.0817,-6.059,-6.0255,-5.9895,-5.9726,-5.975,-5.975,-5.9835,-5.9666,-5.9666,-5.9581,-5.9412,-5.9266,-5.9182,-5.8988,-5.8903,-5.8562,-5.8049,-5.7037,-5.6516,-5.6342,-5.608,-5.573,-5.573,-5.5906,-5.5643,-5.5005,-5.4586,-5.4164,-5.4331,-6.2048,-6.2048,-6.2048,-6.2048,-6.2048,-6.2048,-6.2048,-6.2048,-6.2048,-6.2048,-6.2048,-6.2048,-6.2048,-6.2048,-6.2048,-6.2048,-6.2048,-6.2048,-6.2048,-6.2048,-6.2048,-6.2048,-6.2048,-6.2048,-6.2048,-6.2048,-6.2048,-6.2048,-6.2048,-6.2048,-6.2048,-6.2048,-6.2048,-6.2048,-6.2048,-6.2048,-6.2048,-6.2048,-6.2048,-6.2048,-6.2048,-6.1898,-6.1521,-6.066,-6.0048,-5.9637,-5.956,-5.9508,-5.9508,-5.9508,-5.9508,-5.9508,-5.9508,-5.9508,-5.9508,-5.9508,-5.9508,-5.9508,-5.9508,-5.9508,-5.9508,-5.9508,-5.9508,-5.9508,-5.9508,-5.9508,-5.9508,-5.9508,-5.9508,-5.9508,-5.9508,-5.9859,-6.0186,-6.0512,-6.109,-6.1667,-6.1893,-6.1958,-6.1921,-6.1496,-6.1687,-6.1828,-6.1763,-6.1589,-6.1423,-6.134,-6.1091,-6.1008,-6.0817,-6.0817,-6.09,-6.1008,-6.1199,-6.0924,-6.0674,-6.0507,-6.0423,-6.0003,-5.9835,-5.9666,-5.9581,-5.9388,-5.8879,-5.7963,-5.736,-5.7101,-5.6864,-5.6516,-5.6342,-5.6342,-5.608,-5.5818,-5.5688,-5.549,-5.6042,-6.2048,-6.2048,-6.2048,-6.2048,-6.2048,-6.2048,-6.2048,-6.2048,-6.2048,-6.2048,-6.2048,-6.2048,-6.2048,-6.2048,-6.2048,-6.2048,-6.2048,-6.2048,-6.2048,-6.2048,-6.2048,-6.2048,-6.2048,-6.2048,-6.2048,-6.2048,-6.2048,-6.2048,-6.2048,-6.2048,-6.2048,-6.2048,-6.2048,-6.2048,-6.2048,-6.2048,-6.2048,-6.2048,-6.2048,-6.1973,-6.1898,-6.1646,-6.0965,-6.0431,-5.9894,-5.9585,-5.9508,-5.9508,-5.9508,-5.9508,-5.9508,-5.9508,-5.9508,-5.9508,-5.9508,-5.9508,-5.9508,-5.9508,-5.9508,-5.9508,-5.9508,-5.9508,-5.9508,-5.9508,-5.9508,-5.9508,-5.9508,-5.9508,-5.9508,-5.9633,-5.991,-6.0186,-6.0563,-6.1165,-6.1718,-6.2094,-6.2395,-6.2672,-6.2408,-6.207,-6.227,-6.2338,-6.2281,-6.2084,-6.1919,-6.1754,-6.1672,-6.1589,-6.1564,-6.1647,-6.1672,-6.1672,-6.1614,-6.1506,-6.1257,-6.1174,-6.0924,-6.059,-6.0423,-6.0171,-6.0003,-5.9835,-5.9497,-5.8988,-5.8477,-5.7963,-5.7619,-5.736,-5.7124,-5.6887,-5.6736,-5.6629,-5.679,-5.6907,-5.7379,-6.2048,-6.2048,-6.2048,-6.2048,-6.2048,-6.2048,-6.2048,-6.2048,-6.2048,-6.2048,-6.2048,-6.2048,-6.2048,-6.2048,-6.2048,-6.2048,-6.2048,-6.2048,-6.2048,-6.2048,-6.2048,-6.2048,-6.2048,-6.2048,-6.2048,-6.2048,-6.2048,-6.2048,-6.2048,-6.2048,-6.2048,-6.2048,-6.2048,-6.2048,-6.2048,-6.2048,-6.2048,-6.2048,-6.2048,-6.1973,-6.1672,-6.1117,-6.0508,-6.0099,-5.974,-5.9508,-5.9508,-5.9508,-5.9508,-5.9508,-5.9508,-5.9508,-5.9508,-5.9508,-5.9508,-5.9508,-5.9508,-5.9508,-5.9508,-5.9508,-5.9508,-5.9508,-5.9508,-5.9508,-5.9508,-5.9508,-5.9508,-5.9508,-5.9659,-5.9834,-6.0211,-6.0537,-6.1065,-6.1667,-6.2069,-6.232,-6.2621,-6.2797,-6.2797,-6.2665,-6.2822,-6.2741,-6.2577,-6.2495,-6.2331,-6.2249,-6.2167,-6.2084,-6.2059,-6.2002,-6.2002,-6.1919,-6.1919,-6.1837,-6.1672,-6.1672,-6.1257,-6.0757,-6.059,-6.0507,-6.0339,-6.0171,-5.9858,-5.9544,-5.9412,-5.8988,-5.8647,-5.8243,-5.7963,-5.7665,-5.7475,-5.7462,-5.7713,-5.804,-5.8498,-6.2048,-6.2048,-6.2048,-6.2048,-6.2048,-6.2048,-6.2048,-6.2048,-6.2048,-6.2048,-6.2048,-6.2048,-6.2048,-6.2048,-6.2048,-6.2048,-6.2048,-6.2048,-6.2048,-6.2048,-6.2048,-6.2048,-6.2048,-6.2048,-6.2048,-6.2048,-6.2048,-6.2048,-6.2048,-6.2048,-6.2048,-6.2048,-6.2048,-6.2048,-6.2048,-6.2048,-6.2048,-6.2048,-6.1973,-6.1823,-6.142,-6.0965,-6.0508,-6.0048,-5.974,-5.9508,-5.9508,-5.9508,-5.9508,-5.9508,-5.9508,-5.9508,-5.9508,-5.9508,-5.9508,-5.9508,-5.9508,-5.9508,-5.9508,-5.9508,-5.9508,-5.9508,-5.9508,-5.9508,-5.9508,-5.9508,-5.9508,-5.9508,-5.9885,-6.0211,-6.0537,-6.1215,-6.1743,-6.2094,-6.2421,-6.2596,-6.2822,-6.2822,-6.2822,-6.2822,-6.2822,-6.2822,-6.2741,-6.2741,-6.2741,-6.2741,-6.2659,-6.2577,-6.2495,-6.2413,-6.2413,-6.2331,-6.2249,-6.2249,-6.2167,-6.2084,-6.1672,-6.1008,-6.0841,-6.0757,-6.0471,-6.0243,-6.0267,-6.0123,-5.9954,-5.988,-5.9489,-5.9123,-5.885,-5.871,-5.8669,-5.8698,-5.8768,-5.9108,-5.9487,-6.2048,-6.2048,-6.2048,-6.2048,-6.2048,-6.2048,-6.2048,-6.2048,-6.2048,-6.2048,-6.2048,-6.2048,-6.2048,-6.2048,-6.2048,-6.2048,-6.2048,-6.2048,-6.2048,-6.2048,-6.2048,-6.2048,-6.2048,-6.2048,-6.2048,-6.2048,-6.2048,-6.2048,-6.2048,-6.2048,-6.2048,-6.2048,-6.2048,-6.2048,-6.2048,-6.2048,-6.2048,-6.1973,-6.1747,-6.142,-6.1041,-6.0584,-6.0201,-5.9817,-5.956,-5.9508,-5.9508,-5.9508,-5.9508,-5.9508,-5.9508,-5.9508,-5.9508,-5.9508,-5.9508,-5.9508,-5.9508,-5.9508,-5.9508,-5.9508,-5.9508,-5.9508,-5.9508,-5.9508,-5.9508,-5.9508,-5.9508,-5.9508,-6.001,-6.0412,-6.0839,-6.1517,-6.2044,-6.2421,-6.2647,-6.2722,-6.2822,-6.2822,-6.2822,-6.2822,-6.2822,-6.2822,-6.2822,-6.2822,-6.2741,-6.2741,-6.2741,-6.2741,-6.2659,-6.2659,-6.2659,-6.2659,-6.2659,-6.2659,-6.2577,-6.2495,-6.2002,-6.1531,-6.1223,-6.1056,-6.0519,-6.0315,-6.0508,-6.0772,-6.0928,-6.0695,-6.0391,-6.0015,-5.9725,-5.979,-5.9899,-5.993,-5.992,-6.016,-6.0501,-6.2048,-6.2048,-6.2048,-6.2048,-6.2048,-6.2048,-6.2048,-6.2048,-6.2048,-6.2048,-6.2048,-6.2048,-6.2048,-6.2048,-6.2048,-6.2048,-6.2048,-6.2048,-6.2048,-6.2048,-6.2048,-6.2048,-6.2048,-6.2048,-6.2048,-6.2048,-6.2048,-6.2048,-6.2048,-6.2048,-6.2048,-6.2048,-6.2048,-6.2048,-6.2048,-6.2048,-6.2048,-6.1973,-6.1672,-6.1193,-6.0737,-6.0355,-5.9971,-5.9663,-5.9508,-5.9508,-5.9508,-5.9508,-5.9508,-5.9508,-5.9508,-5.9508,-5.9508,-5.9508,-5.9508,-5.9508,-5.9508,-5.9508,-5.9508,-5.9508,-5.9508,-5.9508,-5.9508,-5.9508,-5.9508,-5.9508,-5.9633,-5.9734,-6.0286,-6.0814,-6.1341,-6.1893,-6.232,-6.2621,-6.2797,-6.2822,-6.2822,-6.2822,-6.2822,-6.2822,-6.2822,-6.2822,-6.2822,-6.2822,-6.2822,-6.2822,-6.2822,-6.2822,-6.2822,-6.2822,-6.2822,-6.2822,-6.2822,-6.2741,-6.2741,-6.2577,-6.2191,-6.1853,-6.1629,-6.1335,-6.0785,-6.082,-6.1133,-6.1398,-6.1638,-6.1624,-6.1341,-6.1016,-6.0677,-6.0781,-6.0908,-6.109,-6.1174,-6.1346,-6.1268,-6.2048,-6.2048,-6.2048,-6.2048,-6.2048,-6.2048,-6.2048,-6.2048,-6.2048,-6.2048,-6.2048,-6.2048,-6.2048,-6.2048,-6.2048,-6.2048,-6.2048,-6.2048,-6.2048,-6.2048,-6.2048,-6.2048,-6.2048,-6.2048,-6.2048,-6.2048,-6.2048,-6.2048,-6.2048,-6.2048,-6.2048,-6.2048,-6.2048,-6.2048,-6.2048,-6.2048,-6.1973,-6.1823,-6.1495,-6.1117,-6.066,-6.0253,-5.9869,-5.9585,-5.9508,-5.9508,-5.9508,-5.9508,-5.9508,-5.9508,-5.9508,-5.9508,-5.9508,-5.9508,-5.9508,-5.9508,-5.9508,-5.9508,-5.9508,-5.9508,-5.9508,-5.9508,-5.9508,-5.9508,-5.9508,-5.9508,-5.9709,-6.0136,-6.0613,-6.124,-6.1818,-6.2395,-6.2672,-6.2747,-6.2822,-6.2822,-6.2822,-6.2822,-6.2822,-6.2822,-6.2822,-6.2822,-6.2822,-6.2822,-6.2822,-6.2822,-6.2822,-6.2822,-6.2822,-6.2822,-6.2822,-6.2822,-6.2822,-6.2741,-6.2741,-6.252,-6.2159,-6.1943,-6.1649,-6.1425,-6.1111,-6.1387,-6.1734,-6.1831,-6.2023,-6.2215,-6.2336,-6.1993,-6.1739,-6.1864,-6.1946,-6.1979,-6.1953,-6.1918,-6.1728,-6.2048,-6.2048,-6.2048,-6.2048,-6.2048,-6.2048,-6.2048,-6.2048,-6.2048,-6.2048,-6.2048,-6.2048,-6.2048,-6.2048,-6.2048,-6.2048,-6.2048,-6.2048,-6.2048,-6.2048,-6.2048,-6.2048,-6.2048,-6.2048,-6.2048,-6.2048,-6.2048,-6.2048,-6.2048,-6.2048,-6.2048,-6.2048,-6.2048,-6.2048,-6.2048,-6.1973,-6.1898,-6.1571,-6.1193,-6.0737,-6.0355,-5.9946,-5.9637,-5.9585,-5.9508,-5.9508,-5.9508,-5.9508,-5.9508,-5.9508,-5.9508,-5.9508,-5.9508,-5.9508,-5.9508,-5.9508,-5.9508,-5.9508,-5.9508,-5.9508,-5.9508,-5.9508,-5.9508,-5.9508,-5.9508,-5.9508,-5.9784,-6.0286,-6.0864,-6.1416,-6.1969,-6.2471,-6.2797,-6.2822,-6.2822,-6.2822,-6.2822,-6.2822,-6.2822,-6.2822,-6.2822,-6.2822,-6.2822,-6.2822,-6.2822,-6.2822,-6.2822,-6.2822,-6.2822,-6.2822,-6.2822,-6.2822,-6.2822,-6.2741,-6.2659,-6.2488,-6.2151,-6.1924,-6.1775,-6.1668,-6.1556,-6.1927,-6.2287,-6.236,-6.248,-6.272,-6.2841,-6.2817,-6.2744,-6.2624,-6.272,-6.2921,-6.2711,-6.2493,-6.2184,-6.2048,-6.2048,-6.2048,-6.2048,-6.2048,-6.2048,-6.2048,-6.2048,-6.2048,-6.2048,-6.2048,-6.2048,-6.2048,-6.2048,-6.2048,-6.2048,-6.2048,-6.2048,-6.2048,-6.2048,-6.2048,-6.2048,-6.2048,-6.2048,-6.2048,-6.2048,-6.2048,-6.2048,-6.2048,-6.2048,-6.2048,-6.2048,-6.2048,-6.2048,-6.2048,-6.1973,-6.1823,-6.142,-6.0965,-6.0508,-6.0125,-5.9714,-5.9483,-5.9508,-5.9508,-5.9508,-5.9508,-5.9508,-5.9508,-5.9508,-5.9508,-5.9508,-5.9508,-5.9508,-5.9508,-5.9508,-5.9508,-5.9508,-5.9508,-5.9508,-5.9508,-5.9508,-5.9508,-5.9508,-5.9508,-5.9533,-5.9809,-6.0563,-6.1014,-6.1466,-6.2069,-6.2647,-6.2822,-6.2822,-6.2822,-6.2822,-6.2822,-6.2822,-6.2822,-6.2822,-6.2822,-6.2822,-6.2822,-6.2822,-6.2822,-6.2822,-6.2822,-6.2822,-6.2822,-6.2822,-6.2822,-6.2822,-6.2822,-6.2741,-6.2577,-6.2415,-6.2165,-6.1992,-6.1887,-6.203,-6.2158,-6.2504,-6.2768,-6.2841,-6.2985,-6.3249,-6.3249,-6.3105,-6.3153,-6.3249,-6.3274,-6.3161,-6.3161,-6.2831,-6.2653,-6.2048,-6.2048,-6.2048,-6.2048,-6.2048,-6.2048,-6.2048,-6.2048,-6.2048,-6.2048,-6.2048,-6.2048,-6.2048,-6.2048,-6.2048,-6.2048,-6.2048,-6.2048,-6.2048,-6.2048,-6.2048,-6.2048,-6.2048,-6.2048,-6.2048,-6.2048,-6.2048,-6.2048,-6.2048,-6.2048,-6.2048,-6.2048,-6.2048,-6.2048,-6.2048,-6.1973,-6.1823,-6.1344,-6.0889,-6.0431,-6.0048,-5.9637,-5.956,-5.9508,-5.9508,-5.9508,-5.9508,-5.9508,-5.9508,-5.9508,-5.9508,-5.9508,-5.9508,-5.9508,-5.9508,-5.9508,-5.9508,-5.9508,-5.9508,-5.9508,-5.9508,-5.9508,-5.9508,-5.9508,-5.9508,-5.9583,-5.996,-6.0788,-6.114,-6.1718,-6.232,-6.2797,-6.2822,-6.2822,-6.2822,-6.2822,-6.2822,-6.2822,-6.2822,-6.2822,-6.2822,-6.2822,-6.2822,-6.2822,-6.2822,-6.2822,-6.2822,-6.2822,-6.2822,-6.2822,-6.2822,-6.2822,-6.2847,-6.2752,-6.2662,-6.2405,-6.2174,-6.1996,-6.2019,-6.2268,-6.2591,-6.2889,-6.3105,-6.3225,-6.3274,-6.3322,-6.3322,-6.3298,-6.3322,-6.3322,-6.3322,-6.3322,-6.3233,-6.3233,-6.2967,-6.2048,-6.2048,-6.2048,-6.2048,-6.2048,-6.2048,-6.2048,-6.2048,-6.2048,-6.2048,-6.2048,-6.2048,-6.2048,-6.2048,-6.2048,-6.2048,-6.2048,-6.2048,-6.2048,-6.2048,-6.2048,-6.2048,-6.2048,-6.2048,-6.2048,-6.2048,-6.2048,-6.2048,-6.2048,-6.2048,-6.2048,-6.2048,-6.2048,-6.2048,-6.1898,-6.1747,-6.1344,-6.0965,-6.0508,-6.0099,-5.974,-5.9585,-5.9508,-5.9508,-5.9508,-5.9508,-5.9508,-5.9508,-5.9508,-5.9508,-5.9508,-5.9508,-5.9508,-5.9508,-5.9508,-5.9508,-5.9508,-5.9508,-5.9508,-5.9508,-5.9508,-5.9508,-5.9508,-5.9508,-5.9508,-5.9508,-6.0136,-6.0864,-6.1165,-6.1768,-6.2546,-6.2772,-6.2822,-6.2822,-6.2822,-6.2822,-6.2822,-6.2822,-6.2822,-6.2822,-6.2822,-6.2822,-6.2822,-6.2822,-6.2822,-6.2822,-6.2822,-6.2822,-6.2822,-6.2822,-6.2822,-6.2822,-6.2791,-6.2852,-6.2746,-6.2559,-6.2519,-6.2457,-6.2514,-6.2615,-6.2937,-6.3201,-6.3249,-6.3298,-6.3322,-6.3322,-6.3322,-6.3322,-6.3322,-6.3322,-6.3322,-6.3322,-6.3233,-6.3233,-6.3233,-6.2048,-6.2048,-6.2048,-6.2048,-6.2048,-6.2048,-6.2048,-6.2048,-6.2048,-6.2048,-6.2048,-6.2048,-6.2048,-6.2048,-6.2048,-6.2048,-6.2048,-6.2048,-6.2048,-6.2048,-6.2048,-6.2048,-6.2048,-6.2048,-6.2048,-6.2048,-6.2048,-6.2048,-6.2048,-6.2048,-6.2048,-6.2048,-6.1973,-6.1898,-6.1747,-6.1495,-6.1193,-6.0737,-6.0355,-5.9971,-5.9663,-5.9508,-5.9508,-5.9508,-5.9508,-5.9508,-5.9508,-5.9508,-5.9508,-5.9508,-5.9508,-5.9508,-5.9508,-5.9508,-5.9508,-5.9508,-5.9508,-5.9508,-5.9508,-5.9508,-5.9508,-5.9508,-5.9508,-5.9508,-5.9508,-5.9508,-6.0161,-6.0788,-6.1115,-6.1843,-6.2571,-6.2747,-6.2822,-6.2822,-6.2822,-6.2822,-6.2822,-6.2822,-6.2822,-6.2822,-6.2822,-6.2822,-6.2822,-6.2822,-6.2822,-6.2822,-6.2822,-6.2822,-6.2822,-6.2822,-6.2873,-6.2841,-6.2802,-6.2829,-6.2786,-6.2724,-6.2788,-6.2978,-6.2983,-6.2937,-6.3081,-6.3298,-6.3322,-6.3322,-6.3322,-6.3322,-6.3322,-6.3322,-6.3322,-6.3322,-6.3322,-6.3322,-6.3322,-6.3322,-6.3322,-6.2048,-6.2048,-6.2048,-6.2048,-6.2048,-6.2048,-6.2048,-6.2048,-6.2048,-6.2048,-6.2048,-6.2048,-6.2048,-6.2048,-6.2048,-6.2048,-6.2048,-6.2048,-6.2048,-6.2048,-6.2048,-6.2048,-6.2048,-6.2048,-6.2048,-6.2048,-6.2048,-6.2048,-6.2048,-6.2048,-6.2048,-6.2048,-6.2048,-6.1823,-6.1571,-6.1268,-6.1041,-6.0584,-6.0125,-5.9817,-5.956,-5.9508,-5.9508,-5.9508,-5.9508,-5.9508,-5.9508,-5.9508,-5.9508,-5.9508,-5.9508,-5.9508,-5.9508,-5.9508,-5.9508,-5.9508,-5.9508,-5.9508,-5.9508,-5.9508,-5.9508,-5.9508,-5.9508,-5.9508,-5.9508,-5.9533,-6.0111,-6.0763,-6.1215,-6.1918,-6.2571,-6.2697,-6.2822,-6.2822,-6.2822,-6.2822,-6.2822,-6.2822,-6.2822,-6.2822,-6.2822,-6.2822,-6.2822,-6.2822,-6.2822,-6.2822,-6.2822,-6.2822,-6.2822,-6.2822,-6.2923,-6.3042,-6.297,-6.2795,-6.2795,-6.2971,-6.2957,-6.3031,-6.3185,-6.3201,-6.3322,-6.3322,-6.3322,-6.3322,-6.3322,-6.3322,-6.3322,-6.3322,-6.3322,-6.3322,-6.3322,-6.3322,-6.3322,-6.3322,-6.3322,-6.2048,-6.2048,-6.2048,-6.2048,-6.2048,-6.2048,-6.2048,-6.2048,-6.2048,-6.2048,-6.2048,-6.2048,-6.2048,-6.2048,-6.2048,-6.2048,-6.2048,-6.2048,-6.2048,-6.2048,-6.2048,-6.2048,-6.2048,-6.2048,-6.2048,-6.2048,-6.2048,-6.2048,-6.2048,-6.2048,-6.2048,-6.2048,-6.1973,-6.1747,-6.1344,-6.1041,-6.066,-6.0278,-5.9869,-5.9637,-5.956,-5.9508,-5.9508,-5.9508,-5.9508,-5.9508,-5.9508,-5.9508,-5.9508,-5.9508,-5.9508,-5.9508,-5.9508,-5.9508,-5.9508,-5.9508,-5.9508,-5.9508,-5.9508,-5.9508,-5.9508,-5.9508,-5.9508,-5.9508,-5.9508,-5.9633,-6.0035,-6.0713,-6.1215,-6.1793,-6.2471,-6.2772,-6.2822,-6.2822,-6.2822,-6.2822,-6.2822,-6.2822,-6.2822,-6.2822,-6.2822,-6.2822,-6.2822,-6.2822,-6.2822,-6.2822,-6.2847,-6.2847,-6.2923,-6.2948,-6.2884,-6.3085,-6.3228,-6.3097,-6.3227,-6.3313,-6.322,-6.3145,-6.3225,-6.3322,-6.3322,-6.3322,-6.3322,-6.3322,-6.3322,-6.3322,-6.3322,-6.3322,-6.3322,-6.3322,-6.3322,-6.3322,-6.3322,-6.3322,-6.3322,-6.2048,-6.2048,-6.2048,-6.2048,-6.2048,-6.2048,-6.2048,-6.2048,-6.2048,-6.2048,-6.2048,-6.2048,-6.2048,-6.2048,-6.2048,-6.2048,-6.2048,-6.2048,-6.2048,-6.2048,-6.2048,-6.2048,-6.2048,-6.2048,-6.2048,-6.2048,-6.2048,-6.2048,-6.2048,-6.2048,-6.2048,-6.1973,-6.1898,-6.1495,-6.1117,-6.066,-6.0278,-5.9946,-5.9637,-5.956,-5.9508,-5.9508,-5.9508,-5.9508,-5.9508,-5.9508,-5.9508,-5.9508,-5.9508,-5.9508,-5.9508,-5.9508,-5.9508,-5.9508,-5.9508,-5.9508,-5.9508,-5.9508,-5.9508,-5.9508,-5.9508,-5.9508,-5.9508,-5.9508,-5.9508,-5.9558,-6.0211,-6.0889,-6.1165,-6.1567,-6.2245,-6.2822,-6.2822,-6.2822,-6.2822,-6.2822,-6.2822,-6.2822,-6.2822,-6.2822,-6.2822,-6.2822,-6.2822,-6.2822,-6.2822,-6.2822,-6.2923,-6.3048,-6.3174,-6.3299,-6.321,-6.3169,-6.3325,-6.3446,-6.3485,-6.3505,-6.3312,-6.3265,-6.3249,-6.3322,-6.3322,-6.3322,-6.3322,-6.3322,-6.3322,-6.3322,-6.3322,-6.3322,-6.3322,-6.3322,-6.3322,-6.3322,-6.3322,-6.3322,-6.3322,-6.2048,-6.2048,-6.2048,-6.2048,-6.2048,-6.2048,-6.2048,-6.2048,-6.2048,-6.2048,-6.2048,-6.2048,-6.2048,-6.2048,-6.2048,-6.2048,-6.2048,-6.2048,-6.2048,-6.2048,-6.2048,-6.2048,-6.2048,-6.2048,-6.2048,-6.2048,-6.2048,-6.2048,-6.2048,-6.2048,-6.1973,-6.1973,-6.1646,-6.1268,-6.0813,-6.0431,-6.0048,-5.9637,-5.956,-5.9508,-5.9508,-5.9508,-5.9508,-5.9508,-5.9508,-5.9508,-5.9508,-5.9508,-5.9508,-5.9508,-5.9508,-5.9508,-5.9508,-5.9508,-5.9508,-5.9508,-5.9508,-5.9508,-5.9508,-5.9508,-5.9508,-5.9508,-5.9508,-5.9508,-5.9508,-5.9508,-6.0085,-6.0889,-6.124,-6.1768,-6.2446,-6.2747,-6.2822,-6.2822,-6.2822,-6.2822,-6.2822,-6.2822,-6.2822,-6.2822,-6.2822,-6.2822,-6.2822,-6.2822,-6.2822,-6.2822,-6.2873,-6.3048,-6.3342,-6.3543,-6.3627,-6.3368,-6.3503,-6.3669,-6.3519,-6.3487,-6.3354,-6.3322,-6.3322,-6.3322,-6.3322,-6.3322,-6.3322,-6.3322,-6.3322,-6.3322,-6.3322,-6.3322,-6.3322,-6.3322,-6.3322,-6.3322,-6.3322,-6.3322,-6.3322,-6.2048,-6.2048,-6.2048,-6.2048,-6.2048,-6.2048,-6.2048,-6.2048,-6.2048,-6.2048,-6.2048,-6.2048,-6.2048,-6.2048,-6.2048,-6.2048,-6.2048,-6.2048,-6.2048,-6.2048,-6.2048,-6.2048,-6.2048,-6.2048,-6.2048,-6.2048,-6.2048,-6.2048,-6.2048,-6.2048,-6.1973,-6.1973,-6.1571,-6.1117,-6.066,-6.0278,-5.9894,-5.9508,-5.9508,-5.9508,-5.9508,-5.9508,-5.9508,-5.9508,-5.9508,-5.9508,-5.9508,-5.9508,-5.9508,-5.9508,-5.9508,-5.9508,-5.9508,-5.9508,-5.9508,-5.9508,-5.9508,-5.9508,-5.9508,-5.9508,-5.9508,-5.9508,-5.9508,-5.9508,-5.9508,-5.9508,-5.9885,-6.0713,-6.1391,-6.1969,-6.2471,-6.2672,-6.2822,-6.2822,-6.2822,-6.2822,-6.2822,-6.2822,-6.2822,-6.2822,-6.2822,-6.2822,-6.2822,-6.2822,-6.2822,-6.2822,-6.2822,-6.2966,-6.3485,-6.3777,-6.405,-6.3945,-6.3803,-6.3841,-6.3662,-6.3481,-6.3362,-6.3322,-6.3322,-6.3322,-6.3322,-6.3322,-6.3322,-6.3322,-6.3322,-6.3322,-6.3322,-6.3322,-6.3322,-6.3322,-6.3322,-6.3322,-6.3322,-6.3322,-6.3322,-6.2048,-6.2048,-6.2048,-6.2048,-6.2048,-6.2048,-6.2048,-6.2048,-6.2048,-6.2048,-6.2048,-6.2048,-6.2048,-6.2048,-6.2048,-6.2048,-6.2048,-6.2048,-6.2048,-6.2048,-6.2048,-6.2048,-6.2048,-6.2048,-6.2048,-6.2048,-6.2048,-6.2048,-6.2048,-6.1973,-6.1973,-6.1747,-6.1344,-6.0889,-6.0431,-6.0048,-5.974,-5.9508,-5.9508,-5.9508,-5.9508,-5.9508,-5.9508,-5.9508,-5.9508,-5.9508,-5.9508,-5.9508,-5.9508,-5.9508,-5.9508,-5.9508,-5.9508,-5.9508,-5.9508,-5.9508,-5.9508,-5.9508,-5.9508,-5.9508,-5.9508,-5.9508,-5.9508,-5.9508,-5.9508,-5.9558,-6.0035,-6.0788,-6.114,-6.1667,-6.2446,-6.2797,-6.2822,-6.2822,-6.2822,-6.2822,-6.2822,-6.2822,-6.2822,-6.2822,-6.2822,-6.2822,-6.2822,-6.2822,-6.2847,-6.2923,-6.2923,-6.3375,-6.3844,-6.3985,-6.4279,-6.4358,-6.4025,-6.3739,-6.3505,-6.3426,-6.3298,-6.3322,-6.3322,-6.3322,-6.3322,-6.3322,-6.3322,-6.3322,-6.3322,-6.3322,-6.3322,-6.3322,-6.3322,-6.3322,-6.3322,-6.3322,-6.3322,-6.3322,-6.3322,-6.2048,-6.2048,-6.2048,-6.2048,-6.2048,-6.2048,-6.2048,-6.2048,-6.2048,-6.2048,-6.2048,-6.2048,-6.2048,-6.2048,-6.2048,-6.2048,-6.2048,-6.2048,-6.2048,-6.2048,-6.2048,-6.2048,-6.2048,-6.2048,-6.2048,-6.2048,-6.2048,-6.2048,-6.2048,-6.1898,-6.1672,-6.1344,-6.0889,-6.0431,-6.0125,-5.974,-5.9508,-5.9508,-5.9508,-5.9508,-5.9508,-5.9508,-5.9508,-5.9508,-5.9508,-5.9508,-5.9508,-5.9508,-5.9508,-5.9508,-5.9508,-5.9508,-5.9508,-5.9508,-5.9508,-5.9508,-5.9508,-5.9508,-5.9508,-5.9508,-5.9508,-5.9508,-5.9508,-5.9508,-5.9508,-5.9734,-6.0186,-6.0713,-6.1065,-6.1567,-6.2345,-6.2822,-6.2822,-6.2822,-6.2822,-6.2822,-6.2822,-6.2822,-6.2822,-6.2822,-6.2822,-6.2822,-6.2822,-6.2822,-6.2873,-6.2973,-6.3324,-6.3852,-6.427,-6.4165,-6.421,-6.4235,-6.4021,-6.3754,-6.3434,-6.3346,-6.3322,-6.3322,-6.3322,-6.3322,-6.3322,-6.3322,-6.3322,-6.3322,-6.3322,-6.3322,-6.3322,-6.3322,-6.3322,-6.3322,-6.3322,-6.3322,-6.3322,-6.3322,-6.3322,-6.2048,-6.2048,-6.2048,-6.2048,-6.2048,-6.2048,-6.2048,-6.2048,-6.2048,-6.2048,-6.2048,-6.2048,-6.2048,-6.2048,-6.2048,-6.2048,-6.2048,-6.2048,-6.2048,-6.2048,-6.2048,-6.2048,-6.2048,-6.2048,-6.2048,-6.2048,-6.2048,-6.2048,-6.1973,-6.1747,-6.1521,-6.1344,-6.0584,-6.0201,-6.0048,-5.974,-5.9508,-5.9508,-5.9508,-5.9508,-5.9508,-5.9508,-5.9508,-5.9508,-5.9508,-5.9508,-5.9508,-5.9508,-5.9508,-5.9508,-5.9508,-5.9508,-5.9508,-5.9508,-5.9508,-5.9508,-5.9508,-5.9508,-5.9508,-5.9508,-5.9508,-5.9508,-5.9508,-5.9508,-5.9508,-5.9508,-6.0111,-6.0914,-6.1316,-6.1768,-6.2395,-6.2722,-6.2822,-6.2822,-6.2822,-6.2822,-6.2822,-6.2822,-6.2822,-6.2822,-6.2822,-6.2822,-6.2822,-6.2847,-6.2873,-6.3073,-6.345,-6.4002,-6.4387,-6.4353,-6.4247,-6.4059,-6.3914,-6.3586,-6.3322,-6.3322,-6.3322,-6.3322,-6.3322,-6.3322,-6.3322,-6.3322,-6.3322,-6.3322,-6.3322,-6.3322,-6.3322,-6.3322,-6.3322,-6.3322,-6.3322,-6.3322,-6.3322,-6.3322,-6.3322]},{"header":{"parameterUnit":"m.s-1","parameterCategory":1,"la1":31.0,"la2":29.5877,"lo1":-88.7671,"lo2":-86.6584,"dy":0.0162,"dx":0.0185,"nx":115,"ny":88,"refTime":"2024-04-22T00:00:00:Z","depth":0,"parameterNumber":3,"parameterNumberName":"V-component_of_WINDS"},"data":[0.0,0.0,0.0,0.0,0.0,0.0,0.0,0.0,0.0,0.0,0.0,0.0,0.0,0.0,0.0,0.0,0.0,0.0,0.0,0.0,0.0,0.0,0.0,0.0,0.0,0.0,0.0,0.0,0.0,0.0,0.0,0.0,0.0,0.0,0.0,0.0,0.0,0.0,0.0,0.0,0.0,0.0,0.0,0.0,0.0,0.0,0.0,0.0,0.0,0.0,0.0,0.0,0.0,0.0,0.0,0.0,0.0,0.0,0.0,0.0,0.0,0.0,0.0,0.0,0.0,0.0,0.0,0.0,0.0,0.0,0.0,0.0,0.0,0.0,0.0,0.0,0.0,0.0,0.0,0.0,0.0,0.0,0.0,0.0,0.0,0.0,0.0,0.0,0.0,0.0,0.0,0.0,0.0,0.0,0.0,0.0,0.0,0.0,0.0,0.0,0.0,0.0,0.0,0.0,0.0,0.0,0.0,0.0,0.0,0.0,0.0,0.0,0.0,0.0,0.0,0.0,0.0,0.0,0.0,0.0,0.0,0.0,0.0,0.0,0.0,0.0,0.0,0.0,0.0,0.0,0.0,0.0,0.0,0.0,0.0,0.0,0.0,0.0,0.0,0.0,0.0,0.0,0.0,0.0,0.0,0.0,0.0,0.0,0.0,0.0,0.0,0.0,0.0,0.0,0.0,0.0,0.0,0.0,0.0,0.0,0.0,0.0,0.0,0.0,0.0,0.0,0.0,0.0,0.0,0.0,0.0,0.0,0.0,0.0,0.0,0.0,0.0,0.0,0.0,0.0,0.0,0.0,0.0,0.0,0.0,0.0,0.0,0.0,0.0,0.0,0.0,0.0,0.0,0.0,0.0,0.0,0.0,0.0,0.0,0.0,0.0,0.0,0.0,0.0,0.0,0.0,0.0,0.0,0.0,0.0,0.0,0.0,0.0,0.0,0.0,0.0,0.0,0.0,0.0,0.0,0.0,0.0,0.0,0.0,0.0,0.0,0.0,0.0,0.0,0.0,0.0,0.0,0.0,0.0,0.0,0.0,0.0,0.0,0.0,0.0,0.0,0.0,0.0,0.0,0.0,0.0,0.0,0.0,0.0,0.0,0.0,0.0,0.0,0.0,0.0,0.0,0.0,0.0,0.0,0.0,0.0,0.0,0.0,0.0,0.0,0.0,0.0,0.0,0.0,0.0,0.0,0.0,0.0,0.0,0.0,0.0,0.0,0.0,0.0,0.0,0.0,0.0,0.0,0.0,0.0,0.0,0.0,0.0,0.0,0.0,0.0,0.0,0.0,0.0,0.0,0.0,0.0,0.0,0.0,0.0,0.0,0.0,0.0,0.0,0.0,0.0,0.0,0.0,0.0,0.0,0.0,0.0,0.0,0.0,0.0,0.0,0.0,0.0,0.0,0.0,0.0,0.0,0.0,0.0,0.0,0.0,0.0,0.0,0.0,0.0,0.0,0.0,0.0,0.0,0.0,0.0,0.0,0.0,0.0,0.0,0.0,0.0,0.0,0.0,0.0,0.0,0.0,0.0,0.0,0.0,0.0,0.0,0.0,0.0,0.0,0.0,0.0,0.0,0.0,0.0,0.0,0.0,0.0,0.0,0.0,0.0,0.0,0.0,0.0,0.0,0.0,0.0,0.0,0.0,0.0,0.0,0.0,0.0,0.0,0.0,0.0,0.0,0.0,0.0,0.0,0.0,0.0,0.0,0.0,0.0,0.0,0.0,0.0,0.0,0.0,0.0,0.0,0.0,0.0,0.0,0.0,0.0,0.0,0.0,0.0,0.0,0.0,0.0,0.0,0.0,0.0,0.0,0.0,0.0,0.0,0.0,0.0,0.0,0.0,0.0,0.0,0.0,0.0,0.0,0.0,0.0,0.0,0.0,0.0,0.0,0.0,0.0,0.0,0.0,0.0,0.0,0.0,0.0,0.0,0.0,0.0,0.0,0.0,0.0,0.0,0.0,0.0,0.0,0.0,0.0,0.0,0.0,0.0,0.0,0.0,0.0,0.0,0.0,0.0,0.0,0.0,0.0,0.0,0.0,0.0,0.0,0.0,0.0,0.0,0.0,0.0,0.0,0.0,0.0,0.0,0.0,0.0,0.0,0.0,0.0,0.0,0.0,0.0,0.0,0.0,0.0,0.0,0.0,0.0,0.0,0.0,0.0,0.0,0.0,0.0,0.0,0.0,0.0,0.0,0.0,0.0,0.0,0.0,0.0,0.0,0.0,0.0,0.0,0.0,0.0,0.0,0.0,0.0,0.0,0.0,0.0,0.0,0.0,0.0,0.0,0.0,0.0,0.0,0.0,0.0,0.0,0.0,0.0,0.0,0.0,0.0,0.0,0.0,0.0,0.0,0.0,0.0,0.0,0.0,0.0,0.0,0.0,0.0,0.0,0.0,0.0,0.0,0.0,0.0,0.0,0.0,0.0,0.0,0.0,0.0,0.0,0.0,0.0,0.0,0.0,0.0,0.0,0.0,0.0,0.0,0.0,0.0,0.0,0.0,0.0,0.0,0.0,0.0,0.0,0.0,0.0,0.0,0.0,0.0,0.0,0.0,0.0,0.0,0.0,0.0,0.0,0.0,0.0,0.0,0.0,0.0,0.0,0.0,0.0,0.0,0.0,0.0,0.0,0.0,0.0,0.0,0.0,0.0,0.0,0.0,0.0,0.0,0.0,0.0,0.0,0.0,0.0,0.0,0.0,0.0,0.0,0.0,0.0,0.0,0.0,0.0,0.0,0.0,0.0,0.0,0.0,0.0,0.0,0.0,0.0,0.0,0.0,0.0,0.0,0.0,0.0,0.0,0.0,0.0,0.0,0.0,0.0,0.0,0.0,0.0,0.0,0.0,0.0,0.0,0.0,0.0,0.0,0.0,0.0,0.0,0.0,0.0,0.0,0.0,0.0,0.0,0.0,0.0,0.0,0.0,0.0,0.0,0.0,0.0,0.0,0.0,0.0,0.0,0.0,0.0,0.0,0.0,0.0,0.0,0.0,0.0,0.0,0.0,0.0,0.0,0.0,0.0,0.0,0.0,0.0,0.0,0.0,0.0,0.0,0.0,0.0,0.0,0.0,0.0,0.0,0.0,0.0,0.0,0.0,0.0,0.0,0.0,0.0,0.0,0.0,0.0,0.0,0.0,0.0,0.0,0.0,0.0,0.0,0.0,0.0,0.0,0.0,0.0,0.0,0.0,0.0,0.0,0.0,0.0,0.0,0.0,0.0,0.0,0.0,0.0,0.0,0.0,0.0,0.0,0.0,0.0,0.0,0.0,0.0,0.0,0.0,0.0,0.0,0.0,0.0,0.0,0.0,0.0,0.0,0.0,0.0,0.0,0.0,0.0,0.0,0.0,0.0,0.0,0.0,0.0,0.0,0.0,0.0,0.0,0.0,0.0,0.0,0.0,0.0,0.0,0.0,0.0,0.0,0.0,0.0,0.0,0.0,0.0,0.0,0.0,0.0,0.0,0.0,0.0,0.0,0.0,0.0,0.0,0.0,0.0,0.0,0.0,0.0,0.0,0.0,0.0,0.0,0.0,0.0,0.0,0.0,0.0,0.0,0.0,0.0,0.0,0.0,0.0,0.0,0.0,0.0,0.0,0.0,0.0,0.0,0.0,0.0,0.0,0.0,0.0,0.0,0.0,0.0,0.0,0.0,0.0,0.0,0.0,0.0,0.0,0.0,0.0,0.0,0.0,0.0,0.0,0.0,0.0,0.0,0.0,0.0,0.0,0.0,0.0,0.0,0.0,0.0,0.0,0.0,0.0,0.0,0.0,0.0,0.0,0.0,0.0,0.0,0.0,0.0,0.0,0.0,0.0,0.0,0.0,0.0,0.0,0.0,0.0,0.0,0.0,0.0,0.0,0.0,0.0,0.0,0.0,0.0,0.0,0.0,0.0,0.0,0.0,0.0,0.0,0.0,0.0,0.0,0.0,0.0,0.0,0.0,0.0,0.0,0.0,0.0,0.0,0.0,0.0,0.0,0.0,0.0,0.0,0.0,0.0,0.0,0.0,0.0,0.0,0.0,0.0,0.0,0.0,0.0,0.0,0.0,0.0,0.0,0.0,0.0,0.0,0.0,0.0,0.0,0.0,0.0,0.0,0.0,0.0,0.0,0.0,0.0,0.0,0.0,0.0,0.0,0.0,0.0,0.0,0.0,0.0,0.0,0.0,0.0,0.0,0.0,0.0,0.0,0.0,0.0,0.0,0.0,0.0,0.0,0.0,0.0,0.0,0.0,0.0,0.0,0.0,0.0,3.4724,0.0,0.0,0.0,0.0,0.0,0.0,0.0,0.0,0.0,0.0,0.0,0.0,0.0,0.0,0.0,0.0,0.0,0.0,0.0,0.0,0.0,0.0,0.0,0.0,0.0,0.0,0.0,0.0,0.0,0.0,0.0,0.0,0.0,0.0,0.0,0.0,0.0,0.0,0.0,0.0,0.0,0.0,0.0,0.0,0.0,0.0,0.0,0.0,0.0,0.0,0.0,0.0,0.0,0.0,0.0,0.0,0.0,0.0,0.0,0.0,0.0,0.0,0.0,0.0,0.0,0.0,0.0,0.0,0.0,0.0,0.0,0.0,0.0,0.0,0.0,0.0,0.0,0.0,0.0,0.0,0.0,0.0,0.0,0.0,0.0,0.0,0.0,0.0,0.0,0.0,0.0,0.0,0.0,0.0,0.0,0.0,0.0,0.0,0.0,0.0,0.0,0.0,0.0,0.0,0.0,0.0,0.0,0.0,0.0,0.0,3.52,3.5518,3.4911,3.4819,3.541,0.0,0.0,0.0,0.0,0.0,0.0,0.0,0.0,0.0,0.0,0.0,0.0,0.0,0.0,0.0,0.0,0.0,0.0,0.0,0.0,0.0,0.0,0.0,0.0,0.0,0.0,0.0,0.0,0.0,0.0,0.0,0.0,0.0,0.0,0.0,0.0,0.0,0.0,0.0,0.0,0.0,0.0,0.0,0.0,0.0,0.0,0.0,0.0,0.0,0.0,0.0,0.0,0.0,0.0,0.0,0.0,0.0,0.0,0.0,0.0,0.0,0.0,0.0,0.0,0.0,0.0,0.0,0.0,0.0,0.0,0.0,0.0,0.0,0.0,0.0,0.0,0.0,0.0,0.0,0.0,0.0,0.0,0.0,0.0,0.0,0.0,0.0,0.0,0.0,0.0,0.0,0.0,0.0,0.0,0.0,0.0,0.0,0.0,0.0,0.0,0.0,0.0,0.0,0.0,0.0,0.0,0.0,0.0,0.0,0.0,0.0,0.0,3.5791,3.5615,3.5966,0.0,0.0,0.0,0.0,0.0,0.0,0.0,0.0,0.0,0.0,0.0,0.0,0.0,0.0,0.0,0.0,0.0,0.0,0.0,0.0,0.0,0.0,0.0,0.0,0.0,0.0,0.0,0.0,0.0,0.0,0.0,0.0,0.0,0.0,0.0,0.0,0.0,0.0,0.0,0.0,0.0,0.0,0.0,0.0,0.0,0.0,0.0,0.0,0.0,0.0,0.0,0.0,0.0,0.0,0.0,0.0,0.0,0.0,0.0,0.0,0.0,0.0,0.0,0.0,0.0,0.0,0.0,0.0,0.0,0.0,0.0,0.0,0.0,0.0,0.0,0.0,0.0,0.0,0.0,0.0,0.0,0.0,0.0,0.0,0.0,0.0,0.0,0.0,0.0,0.0,0.0,0.0,0.0,0.0,0.0,0.0,0.0,0.0,0.0,0.0,0.0,0.0,0.0,0.0,0.0,0.0,0.0,0.0,0.0,0.0,3.6656,3.7761,3.7157,0.0,3.6384,0.0,0.0,0.0,0.0,0.0,0.0,0.0,0.0,0.0,0.0,0.0,0.0,0.0,0.0,0.0,0.0,0.0,0.0,0.0,0.0,0.0,0.0,0.0,0.0,0.0,0.0,0.0,0.0,0.0,0.0,0.0,0.0,0.0,0.0,0.0,0.0,0.0,0.0,0.0,0.0,0.0,0.0,0.0,0.0,0.0,0.0,0.0,0.0,0.0,0.0,0.0,0.0,0.0,0.0,0.0,0.0,0.0,0.0,0.0,0.0,0.0,0.0,0.0,0.0,0.0,0.0,0.0,0.0,0.0,0.0,0.0,0.0,0.0,0.0,0.0,0.0,0.0,0.0,0.0,0.0,0.0,0.0,0.0,0.0,0.0,0.0,0.0,0.0,0.0,0.0,0.0,0.0,0.0,0.0,0.0,0.0,0.0,0.0,0.0,0.0,0.0,0.0,0.0,0.0,0.0,0.0,0.0,0.0,0.0,0.0,3.7063,3.7809,3.7569,3.7498,0.0,0.0,0.0,0.0,0.0,0.0,0.0,0.0,0.0,0.0,0.0,0.0,0.0,0.0,0.0,0.0,0.0,0.0,0.0,0.0,0.0,0.0,0.0,0.0,0.0,0.0,0.0,0.0,0.0,0.0,0.0,0.0,0.0,0.0,0.0,0.0,0.0,0.0,0.0,0.0,0.0,0.0,0.0,0.0,0.0,0.0,0.0,0.0,0.0,0.0,0.0,0.0,0.0,0.0,0.0,0.0,0.0,0.0,0.0,0.0,0.0,0.0,0.0,0.0,0.0,0.0,0.0,0.0,0.0,0.0,0.0,0.0,0.0,0.0,0.0,0.0,0.0,0.0,0.0,0.0,0.0,0.0,0.0,0.0,0.0,0.0,0.0,0.0,0.0,0.0,0.0,0.0,0.0,0.0,0.0,0.0,0.0,0.0,0.0,0.0,0.0,0.0,0.0,0.0,0.0,0.0,0.0,0.0,0.0,0.0,3.7015,3.7565,3.8016,3.801,3.8122,3.8399,0.0,0.0,0.0,0.0,0.0,0.0,0.0,0.0,0.0,0.0,0.0,0.0,0.0,0.0,0.0,0.0,0.0,0.0,0.0,0.0,0.0,0.0,0.0,0.0,0.0,0.0,0.0,0.0,0.0,0.0,0.0,0.0,0.0,0.0,0.0,0.0,0.0,0.0,0.0,0.0,0.0,0.0,0.0,0.0,0.0,0.0,0.0,0.0,0.0,0.0,0.0,0.0,0.0,0.0,0.0,0.0,0.0,0.0,0.0,0.0,0.0,0.0,0.0,0.0,0.0,0.0,0.0,0.0,0.0,0.0,0.0,0.0,0.0,0.0,0.0,0.0,0.0,0.0,0.0,0.0,0.0,0.0,0.0,0.0,0.0,0.0,0.0,0.0,0.0,0.0,0.0,0.0,0.0,0.0,0.0,0.0,0.0,0.0,0.0,0.0,0.0,0.0,0.0,0.0,0.0,0.0,0.0,0.0,3.7455,3.7723,3.8245,3.8944,3.8749,3.8589,0.0,0.0,0.0,0.0,0.0,0.0,0.0,0.0,0.0,0.0,0.0,0.0,0.0,0.0,0.0,0.0,0.0,0.0,0.0,0.0,0.0,0.0,0.0,0.0,0.0,0.0,0.0,0.0,0.0,0.0,0.0,0.0,0.0,0.0,0.0,0.0,0.0,0.0,0.0,0.0,0.0,0.0,0.0,0.0,0.0,0.0,0.0,0.0,0.0,0.0,0.0,0.0,0.0,0.0,0.0,0.0,0.0,0.0,0.0,0.0,0.0,0.0,0.0,0.0,0.0,0.0,0.0,0.0,0.0,0.0,0.0,0.0,0.0,0.0,0.0,0.0,0.0,0.0,0.0,0.0,0.0,0.0,0.0,0.0,0.0,0.0,0.0,0.0,0.0,0.0,0.0,0.0,0.0,0.0,0.0,0.0,0.0,0.0,0.0,0.0,0.0,0.0,0.0,0.0,0.0,0.0,0.0,0.0,0.0,3.7572,3.8723,3.9606,4.0218,4.0033,3.9643,0.0,0.0,0.0,0.0,0.0,0.0,0.0,0.0,0.0,0.0,0.0,0.0,0.0,0.0,0.0,0.0,0.0,0.0,0.0,0.0,0.0,0.0,0.0,0.0,0.0,0.0,0.0,0.0,0.0,0.0,0.0,0.0,0.0,0.0,0.0,0.0,0.0,0.0,0.0,0.0,0.0,0.0,0.0,0.0,0.0,0.0,0.0,0.0,0.0,0.0,0.0,0.0,0.0,0.0,0.0,0.0,0.0,0.0,0.0,0.0,0.0,0.0,0.0,0.0,0.0,0.0,0.0,0.0,0.0,0.0,0.0,0.0,0.0,0.0,0.0,0.0,0.0,0.0,0.0,0.0,0.0,0.0,0.0,0.0,0.0,0.0,0.0,0.0,0.0,0.0,0.0,0.0,0.0,0.0,0.0,0.0,0.0,0.0,0.0,0.0,0.0,0.0,0.0,0.0,0.0,0.0,0.0,0.0,0.0,3.8216,0.0,4.0584,4.114,4.0755,4.029,0.0,0.0,0.0,0.0,0.0,0.0,0.0,0.0,0.0,0.0,0.0,0.0,0.0,0.0,0.0,0.0,0.0,0.0,0.0,0.0,0.0,0.0,0.0,0.0,0.0,0.0,0.0,0.0,0.0,0.0,0.0,0.0,0.0,0.0,0.0,0.0,0.0,0.0,0.0,0.0,0.0,0.0,0.0,0.0,0.0,0.0,0.0,0.0,0.0,0.0,0.0,0.0,0.0,0.0,0.0,0.0,0.0,0.0,0.0,0.0,0.0,0.0,0.0,0.0,0.0,0.0,0.0,0.0,0.0,0.0,0.0,0.0,0.0,0.0,0.0,0.0,0.0,0.0,0.0,0.0,0.0,0.0,0.0,0.0,0.0,0.0,0.0,0.0,0.0,0.0,0.0,0.0,0.0,0.0,0.0,0.0,0.0,0.0,0.0,0.0,0.0,0.0,0.0,0.0,0.0,0.0,0.0,0.0,3.8053,3.9475,4.0371,4.108,4.155,4.0924,4.0504,0.0,0.0,0.0,0.0,0.0,0.0,0.0,0.0,0.0,0.0,0.0,0.0,0.0,0.0,0.0,0.0,0.0,0.0,0.0,0.0,0.0,0.0,0.0,0.0,0.0,0.0,0.0,0.0,0.0,0.0,0.0,0.0,0.0,0.0,0.0,0.0,0.0,0.0,0.0,0.0,0.0,0.0,0.0,0.0,0.0,0.0,0.0,0.0,0.0,0.0,0.0,0.0,0.0,0.0,0.0,0.0,0.0,0.0,0.0,0.0,0.0,0.0,0.0,0.0,0.0,0.0,0.0,0.0,0.0,0.0,0.0,0.0,0.0,0.0,0.0,0.0,0.0,0.0,0.0,0.0,0.0,0.0,0.0,0.0,0.0,0.0,0.0,0.0,0.0,0.0,0.0,0.0,0.0,0.0,0.0,0.0,0.0,0.0,0.0,0.0,0.0,0.0,0.0,0.0,0.0,0.0,0.0,0.0,0.0,4.0783,4.1214,4.1694,4.2212,4.2023,4.1651,0.0,0.0,0.0,0.0,0.0,0.0,0.0,0.0,0.0,0.0,0.0,0.0,0.0,0.0,0.0,0.0,0.0,0.0,0.0,0.0,0.0,0.0,0.0,0.0,0.0,0.0,0.0,0.0,0.0,0.0,0.0,0.0,0.0,0.0,0.0,0.0,0.0,0.0,0.0,0.0,0.0,0.0,0.0,0.0,0.0,0.0,0.0,0.0,0.0,0.0,0.0,0.0,0.0,0.0,0.0,0.0,0.0,0.0,0.0,0.0,0.0,0.0,0.0,0.0,0.0,0.0,0.0,0.0,0.0,0.0,0.0,0.0,0.0,0.0,0.0,0.0,0.0,0.0,0.0,0.0,0.0,0.0,0.0,0.0,0.0,0.0,0.0,0.0,0.0,0.0,0.0,0.0,0.0,0.0,0.0,0.0,0.0,0.0,0.0,0.0,0.0,0.0,0.0,0.0,0.0,0.0,0.0,0.0,0.0,4.1948,4.221,4.2573,4.3129,4.3122,4.269,4.1765,0.0,0.0,0.0,0.0,0.0,0.0,0.0,0.0,0.0,0.0,0.0,0.0,0.0,0.0,0.0,0.0,0.0,0.0,0.0,0.0,0.0,0.0,0.0,0.0,0.0,0.0,0.0,0.0,0.0,0.0,0.0,0.0,0.0,0.0,0.0,0.0,0.0,0.0,0.0,0.0,0.0,0.0,0.0,0.0,0.0,0.0,0.0,0.0,0.0,0.0,0.0,0.0,0.0,0.0,0.0,0.0,0.0,0.0,0.0,0.0,0.0,0.0,0.0,0.0,0.0,0.0,0.0,0.0,0.0,0.0,0.0,0.0,0.0,0.0,0.0,0.0,0.0,0.0,0.0,0.0,0.0,0.0,0.0,0.0,0.0,0.0,0.0,0.0,0.0,0.0,0.0,0.0,0.0,0.0,0.0,0.0,0.0,0.0,0.0,0.0,0.0,0.0,0.0,0.0,0.0,0.0,0.0,0.0,4.3137,4.3306,4.3612,4.402,4.4125,4.3611,0.0,0.0,0.0,0.0,0.0,0.0,0.0,0.0,0.0,0.0,0.0,0.0,0.0,0.0,0.0,0.0,0.0,0.0,0.0,0.0,0.0,0.0,0.0,0.0,0.0,0.0,0.0,0.0,0.0,0.0,0.0,0.0,0.0,0.0,0.0,0.0,0.0,0.0,0.0,0.0,0.0,0.0,0.0,0.0,0.0,0.0,0.0,0.0,0.0,0.0,0.0,0.0,0.0,0.0,0.0,0.0,0.0,0.0,0.0,0.0,0.0,0.0,0.0,0.0,0.0,0.0,0.0,0.0,0.0,0.0,0.0,0.0,0.0,0.0,0.0,0.0,0.0,0.0,0.0,0.0,0.0,0.0,0.0,0.0,0.0,0.0,0.0,0.0,0.0,0.0,0.0,0.0,0.0,0.0,0.0,0.0,0.0,0.0,0.0,0.0,0.0,0.0,0.0,0.0,0.0,0.0,0.0,0.0,0.0,4.4995,4.4734,4.4571,4.4733,4.4278,4.3815,0.0,0.0,0.0,0.0,0.0,0.0,0.0,0.0,0.0,0.0,0.0,0.0,0.0,0.0,0.0,0.0,0.0,0.0,0.0,0.0,0.0,0.0,0.0,0.0,0.0,0.0,0.0,0.0,0.0,0.0,0.0,0.0,0.0,0.0,0.0,0.0,0.0,0.0,0.0,0.0,0.0,0.0,0.0,0.0,0.0,0.0,0.0,0.0,0.0,0.0,0.0,0.0,0.0,0.0,0.0,0.0,0.0,0.0,0.0,0.0,0.0,0.0,0.0,0.0,0.0,0.0,0.0,0.0,0.0,0.0,0.0,0.0,0.0,0.0,0.0,0.0,0.0,0.0,0.0,0.0,0.0,0.0,0.0,0.0,0.0,0.0,0.0,0.0,0.0,0.0,0.0,0.0,0.0,0.0,0.0,0.0,0.0,0.0,0.0,0.0,0.0,0.0,0.0,0.0,0.0,0.0,0.0,0.0,4.4124,4.5837,4.6085,4.6238,4.646,4.5477,4.4782,0.0,0.0,0.0,0.0,0.0,0.0,0.0,0.0,0.0,0.0,0.0,0.0,0.0,0.0,0.0,0.0,0.0,0.0,0.0,0.0,0.0,0.0,0.0,0.0,0.0,0.0,0.0,0.0,0.0,0.0,0.0,0.0,0.0,0.0,0.0,0.0,0.0,0.0,0.0,0.0,0.0,0.0,0.0,0.0,0.0,0.0,0.0,0.0,0.0,0.0,0.0,0.0,0.0,0.0,0.0,0.0,0.0,0.0,0.0,0.0,0.0,0.0,0.0,0.0,0.0,0.0,0.0,0.0,0.0,0.0,0.0,0.0,0.0,0.0,0.0,0.0,0.0,0.0,0.0,0.0,0.0,0.0,0.0,0.0,0.0,0.0,0.0,0.0,0.0,0.0,0.0,0.0,0.0,0.0,0.0,0.0,0.0,0.0,0.0,0.0,0.0,0.0,0.0,0.0,0.0,0.0,0.0,0.0,4.5343,4.6098,4.7201,4.8045,4.8555,4.7268,4.6072,0.0,0.0,0.0,0.0,0.0,0.0,0.0,0.0,0.0,0.0,0.0,0.0,0.0,0.0,0.0,0.0,0.0,0.0,0.0,0.0,0.0,0.0,0.0,0.0,0.0,0.0,0.0,0.0,0.0,0.0,0.0,0.0,0.0,0.0,0.0,0.0,0.0,0.0,0.0,0.0,0.0,0.0,0.0,0.0,0.0,0.0,0.0,0.0,0.0,0.0,0.0,0.0,0.0,0.0,0.0,0.0,0.0,0.0,0.0,0.0,0.0,0.0,0.0,0.0,0.0,0.0,0.0,0.0,0.0,0.0,0.0,0.0,0.0,0.0,0.0,0.0,0.0,0.0,0.0,0.0,0.0,0.0,0.0,0.0,0.0,0.0,0.0,0.0,0.0,0.0,0.0,0.0,0.0,0.0,0.0,0.0,0.0,0.0,0.0,0.0,0.0,0.0,0.0,0.0,0.0,0.0,0.0,0.0,4.626,4.7346,4.7637,4.8249,4.9262,4.7689,4.6605,0.0,0.0,0.0,0.0,0.0,0.0,0.0,0.0,0.0,0.0,0.0,0.0,0.0,0.0,0.0,0.0,0.0,0.0,0.0,0.0,0.0,0.0,0.0,0.0,0.0,0.0,0.0,0.0,0.0,0.0,0.0,0.0,0.0,0.0,0.0,0.0,0.0,0.0,0.0,0.0,0.0,0.0,0.0,0.0,0.0,0.0,0.0,0.0,4.5809,0.0,0.0,0.0,0.0,0.0,0.0,0.0,0.0,0.0,0.0,0.0,0.0,0.0,0.0,0.0,0.0,0.0,0.0,0.0,0.0,0.0,0.0,0.0,0.0,0.0,0.0,0.0,0.0,0.0,0.0,0.0,0.0,0.0,0.0,0.0,0.0,0.0,0.0,0.0,0.0,0.0,0.0,0.0,0.0,0.0,0.0,0.0,0.0,0.0,0.0,0.0,0.0,0.0,0.0,0.0,0.0,0.0,0.0,0.0,4.694,4.8188,4.8537,4.9018,4.9692,4.8394,4.7385,0.0,0.0,0.0,0.0,0.0,0.0,0.0,0.0,0.0,0.0,0.0,0.0,0.0,0.0,0.0,0.0,0.0,0.0,0.0,0.0,0.0,0.0,0.0,0.0,0.0,0.0,0.0,0.0,0.0,0.0,0.0,0.0,0.0,0.0,0.0,0.0,0.0,0.0,0.0,0.0,0.0,0.0,0.0,0.0,0.0,0.0,0.0,0.0,0.0,0.0,0.0,0.0,0.0,0.0,0.0,0.0,0.0,0.0,0.0,0.0,0.0,0.0,0.0,0.0,0.0,0.0,0.0,0.0,0.0,0.0,0.0,0.0,0.0,0.0,0.0,0.0,0.0,0.0,0.0,0.0,0.0,0.0,0.0,0.0,0.0,0.0,0.0,0.0,0.0,0.0,0.0,0.0,0.0,0.0,0.0,0.0,0.0,0.0,0.0,0.0,0.0,0.0,0.0,0.0,0.0,0.0,0.0,4.6272,4.7503,4.8682,4.9349,4.9815,5.0057,4.9063,4.809,4.7228,0.0,0.0,0.0,0.0,0.0,0.0,0.0,0.0,0.0,0.0,0.0,0.0,0.0,0.0,0.0,0.0,0.0,0.0,0.0,0.0,0.0,0.0,0.0,0.0,0.0,0.0,0.0,0.0,0.0,0.0,0.0,0.0,0.0,0.0,0.0,0.0,0.0,0.0,4.1939,4.3893,0.0,0.0,0.0,0.0,0.0,0.0,0.0,0.0,4.7241,0.0,0.0,0.0,0.0,0.0,0.0,0.0,0.0,0.0,0.0,0.0,0.0,0.0,0.0,0.0,0.0,0.0,0.0,0.0,0.0,0.0,0.0,0.0,0.0,0.0,0.0,0.0,0.0,0.0,0.0,0.0,0.0,0.0,0.0,0.0,0.0,0.0,0.0,0.0,0.0,0.0,0.0,0.0,0.0,0.0,0.0,0.0,0.0,0.0,0.0,0.0,0.0,0.0,0.0,0.0,0.0,4.4879,4.6679,4.7985,4.8663,4.9349,4.9815,5.0057,4.9063,4.8163,4.74,0.0,0.0,0.0,0.0,0.0,0.0,0.0,0.0,0.0,0.0,0.0,0.0,0.0,0.0,0.0,0.0,0.0,0.0,0.0,0.0,0.0,0.0,0.0,0.0,0.0,0.0,0.0,0.0,0.0,0.0,0.0,0.0,0.0,0.0,0.0,0.0,0.0,0.0,0.0,4.6444,4.7968,0.0,0.0,0.0,0.0,0.0,0.0,0.0,0.0,4.9102,0.0,0.0,0.0,0.0,0.0,0.0,0.0,0.0,0.0,0.0,0.0,0.0,0.0,0.0,0.0,0.0,0.0,0.0,0.0,0.0,0.0,0.0,0.0,0.0,0.0,0.0,0.0,0.0,0.0,0.0,0.0,0.0,0.0,0.0,0.0,0.0,0.0,0.0,0.0,0.0,0.0,0.0,0.0,0.0,0.0,0.0,0.0,0.0,0.0,0.0,0.0,0.0,0.0,0.0,0.0,4.5372,4.7015,4.8246,4.9175,4.9524,4.9766,4.9863,4.8969,4.8133,0.0,0.0,0.0,0.0,0.0,0.0,0.0,0.0,0.0,0.0,0.0,0.0,0.0,0.0,0.0,0.0,0.0,0.0,0.0,0.0,0.0,0.0,0.0,0.0,0.0,0.0,0.0,0.0,0.0,0.0,0.0,0.0,0.0,0.0,0.0,0.0,0.0,0.0,0.0,0.0,4.7305,4.8531,5.0021,0.0,0.0,0.0,0.0,0.0,0.0,5.0524,5.035,0.0,0.0,0.0,0.0,0.0,0.0,0.0,0.0,0.0,0.0,0.0,0.0,0.0,0.0,0.0,0.0,0.0,0.0,0.0,0.0,0.0,0.0,0.0,0.0,0.0,0.0,0.0,0.0,0.0,0.0,0.0,0.0,0.0,0.0,0.0,0.0,0.0,0.0,0.0,0.0,0.0,0.0,0.0,0.0,0.0,0.0,0.0,0.0,0.0,0.0,0.0,0.0,0.0,0.0,0.0,4.5837,4.7143,4.8391,4.9611,4.9746,4.9746,4.9717,4.8922,4.8042,0.0,0.0,0.0,0.0,0.0,0.0,0.0,0.0,0.0,0.0,0.0,0.0,0.0,0.0,0.0,0.0,0.0,0.0,0.0,0.0,0.0,0.0,0.0,0.0,0.0,0.0,0.0,0.0,0.0,0.0,0.0,0.0,0.0,0.0,0.0,0.0,0.0,0.0,0.0,0.0,0.0,4.9193,5.0651,5.0982,0.0,0.0,0.0,0.0,5.1292,5.1296,0.0,0.0,0.0,0.0,0.0,0.0,0.0,0.0,0.0,0.0,0.0,0.0,0.0,0.0,0.0,0.0,0.0,0.0,0.0,0.0,0.0,0.0,0.0,0.0,0.0,0.0,0.0,0.0,0.0,0.0,0.0,0.0,0.0,0.0,0.0,0.0,0.0,0.0,0.0,0.0,0.0,0.0,0.0,0.0,0.0,0.0,0.0,0.0,0.0,0.0,0.0,0.0,0.0,0.0,0.0,0.0,4.5837,4.7143,4.8391,4.9659,4.9746,4.9746,4.9717,4.8922,4.7997,0.0,0.0,0.0,0.0,0.0,0.0,0.0,0.0,0.0,0.0,0.0,0.0,0.0,0.0,0.0,0.0,0.0,0.0,0.0,0.0,0.0,0.0,0.0,0.0,0.0,0.0,0.0,0.0,0.0,0.0,0.0,0.0,0.0,0.0,0.0,0.0,0.0,0.0,0.0,0.0,0.0,5.1413,5.2837,5.3599,5.3993,0.0,0.0,5.407,5.4253,5.3259,0.0,0.0,0.0,0.0,0.0,0.0,0.0,0.0,0.0,0.0,0.0,0.0,0.0,0.0,0.0,0.0,0.0,0.0,0.0,0.0,0.0,0.0,0.0,0.0,0.0,0.0,0.0,0.0,0.0,0.0,0.0,0.0,0.0,0.0,0.0,0.0,0.0,0.0,0.0,0.0,0.0,0.0,0.0,0.0,0.0,0.0,0.0,0.0,0.0,0.0,0.0,0.0,0.0,0.0,0.0,4.4821,4.6417,4.8043,4.932,5.024,5.0249,5.0249,5.0299,4.8957,4.7992,0.0,0.0,0.0,0.0,0.0,0.0,0.0,0.0,0.0,0.0,0.0,0.0,0.0,0.0,0.0,0.0,0.0,0.0,0.0,0.0,0.0,0.0,0.0,0.0,0.0,0.0,0.0,0.0,0.0,0.0,0.0,0.0,0.0,0.0,0.0,0.0,0.0,0.0,0.0,0.0,0.0,0.0,5.3268,5.403,0.0,0.0,0.0,5.4527,5.4638,0.0,0.0,0.0,0.0,0.0,0.0,0.0,0.0,0.0,0.0,0.0,0.0,0.0,0.0,0.0,0.0,0.0,0.0,0.0,0.0,0.0,0.0,0.0,0.0,0.0,0.0,0.0,0.0,0.0,0.0,0.0,0.0,0.0,0.0,0.0,0.0,0.0,0.0,0.0,0.0,0.0,0.0,0.0,0.0,0.0,0.0,0.0,0.0,0.0,0.0,0.0,0.0,0.0,0.0,0.0,0.0,0.0,4.7056,4.8798,5.0104,5.0859,5.0917,5.083,5.0705,4.9328,0.0,0.0,0.0,0.0,0.0,0.0,0.0,0.0,0.0,0.0,0.0,0.0,0.0,0.0,0.0,0.0,0.0,0.0,0.0,0.0,0.0,0.0,0.0,0.0,0.0,0.0,0.0,3.9448,0.0,0.0,0.0,0.0,0.0,0.0,0.0,0.0,0.0,0.0,0.0,0.0,0.0,0.0,5.3036,5.4063,5.4858,5.5421,0.0,0.0,5.562,5.562,5.5401,5.5081,0.0,0.0,0.0,0.0,0.0,0.0,0.0,0.0,0.0,0.0,0.0,0.0,0.0,0.0,0.0,0.0,0.0,0.0,0.0,0.0,0.0,0.0,0.0,0.0,0.0,0.0,0.0,0.0,0.0,0.0,0.0,0.0,0.0,0.0,0.0,0.0,0.0,0.0,0.0,0.0,0.0,0.0,0.0,0.0,0.0,0.0,0.0,0.0,0.0,0.0,0.0,0.0,0.0,0.0,4.5837,4.7695,4.903,5.0336,5.1497,5.1556,5.1265,5.0734,5.0204,4.9186,0.0,0.0,0.0,0.0,0.0,0.0,0.0,0.0,0.0,0.0,0.0,0.0,0.0,0.0,0.0,0.0,0.0,0.0,0.0,0.0,0.0,0.0,0.0,0.0,0.0,0.0,0.0,0.0,0.0,0.0,0.0,0.0,0.0,0.0,0.0,0.0,0.0,0.0,0.0,0.0,0.0,5.4096,5.6183,5.7111,5.7806,0.0,0.0,5.8601,5.8601,5.7442,5.6624,5.6749,0.0,0.0,0.0,0.0,0.0,0.0,0.0,0.0,0.0,0.0,0.0,0.0,0.0,0.0,0.0,0.0,0.0,0.0,0.0,0.0,0.0,0.0,0.0,0.0,0.0,0.0,0.0,0.0,0.0,0.0,0.0,0.0,0.0,0.0,0.0,0.0,0.0,0.0,0.0,0.0,0.0,0.0,0.0,0.0,0.0,0.0,0.0,0.0,0.0,0.0,0.0,0.0,0.0,4.6446,4.8333,5.0046,5.1323,5.2165,5.2194,5.2078,5.1897,5.0551,4.9416,0.0,0.0,0.0,0.0,0.0,0.0,0.0,0.0,0.0,0.0,0.0,0.0,0.0,0.0,0.0,0.0,0.0,0.0,0.0,0.0,0.0,0.0,0.0,0.0,0.0,0.0,0.0,0.0,4.4092,4.4953,4.4953,0.0,0.0,0.0,0.0,0.0,0.0,0.0,0.0,0.0,0.0,5.5752,5.6581,5.7707,0.0,0.0,5.8899,5.8899,5.8899,5.8436,5.7945,5.7559,5.6816,0.0,0.0,0.0,0.0,0.0,0.0,0.0,0.0,0.0,0.0,0.0,0.0,0.0,0.0,0.0,0.0,0.0,0.0,0.0,0.0,0.0,0.0,0.0,0.0,0.0,0.0,0.0,0.0,0.0,0.0,0.0,0.0,0.0,0.0,0.0,0.0,0.0,0.0,0.0,0.0,0.0,0.0,0.0,0.0,0.0,0.0,0.0,0.0,0.0,0.0,0.0,0.0,4.7375,4.9291,5.1207,5.2484,5.3123,5.3326,5.3239,5.2833,5.1556,5.0377,0.0,0.0,0.0,0.0,0.0,0.0,0.0,0.0,0.0,0.0,0.0,0.0,0.0,0.0,0.0,0.0,0.0,0.0,0.0,0.0,0.0,0.0,0.0,0.0,0.0,0.0,0.0,0.0,4.5384,4.6212,4.6411,0.0,0.0,0.0,0.0,0.0,0.0,0.0,0.0,0.0,0.0,5.7276,5.7906,5.8899,5.9728,6.0158,6.0225,6.0225,6.0191,5.986,5.9396,5.8866,0.0,0.0,0.0,0.0,0.0,0.0,0.0,0.0,0.0,0.0,0.0,0.0,0.0,0.0,0.0,0.0,0.0,0.0,0.0,0.0,0.0,0.0,0.0,0.0,0.0,0.0,0.0,4.0031,0.0,0.0,4.006,0.0,0.0,0.0,0.0,0.0,0.0,0.0,0.0,0.0,0.0,0.0,0.0,0.0,0.0,0.0,0.0,0.0,0.0,0.0,0.0,0.0,0.0,4.8682,5.0598,5.2484,5.3791,5.4458,5.5039,5.4749,5.3559,5.3442,5.2326,5.0116,0.0,0.0,0.0,0.0,0.0,0.0,0.0,0.0,0.0,0.0,0.0,0.0,0.0,0.0,0.0,0.0,0.0,0.0,0.0,0.0,0.0,0.0,0.0,0.0,0.0,0.0,4.5616,4.6411,4.7173,0.0,0.0,0.0,0.0,0.0,0.0,0.0,0.0,0.0,0.0,5.7276,5.8568,6.0655,6.1053,6.155,6.2984,6.3183,6.3173,6.3107,6.198,6.1053,0.0,0.0,0.0,0.0,0.0,0.0,0.0,0.0,0.0,0.0,0.0,0.0,0.0,0.0,0.0,0.0,0.0,0.0,0.0,0.0,0.0,0.0,0.0,0.0,0.0,0.0,0.0,4.1802,4.1482,0.0,0.0,0.0,0.0,0.0,0.0,0.0,0.0,0.0,0.0,0.0,4.7782,4.8217,0.0,0.0,0.0,0.0,0.0,0.0,0.0,0.0,0.0,0.0,0.0,0.0,4.9349,5.1265,5.2775,5.4023,5.5068,5.53,5.5213,5.4778,5.3965,5.2413,5.0174,0.0,0.0,0.0,0.0,0.0,0.0,0.0,0.0,0.0,0.0,0.0,0.0,0.0,0.0,0.0,0.0,0.0,0.0,0.0,0.0,0.0,0.0,0.0,0.0,0.0,4.6179,0.0,0.0,0.0,0.0,0.0,0.0,0.0,0.0,0.0,0.0,0.0,5.5686,5.7873,5.9231,6.0456,6.1649,6.2245,6.2908,0.0,0.0,0.0,0.0,0.0,0.0,0.0,0.0,0.0,0.0,0.0,0.0,0.0,0.0,5.9066,5.6833,5.6427,5.6427,5.6427,0.0,0.0,0.0,0.0,0.0,0.0,0.0,0.0,0.0,0.0,0.0,0.0,0.0,0.0,4.3776,0.0,4.3834,0.0,0.0,0.0,0.0,0.0,0.0,0.0,0.0,4.8352,4.9233,5.0075,5.0481,5.0801,0.0,5.0162,4.8856,0.0,0.0,0.0,0.0,0.0,0.0,0.0,0.0,5.0519,5.2252,5.3762,5.4923,5.5707,5.5968,5.5968,5.5736,5.4517,5.2966,5.102,5.0298,4.9172,0.0,0.0,0.0,0.0,0.0,0.0,0.0,0.0,0.0,0.0,0.0,0.0,0.0,0.0,0.0,0.0,0.0,0.0,0.0,0.0,0.0,0.0,0.0,4.8233,0.0,0.0,0.0,0.0,0.0,0.0,0.0,0.0,0.0,5.4924,5.6249,5.7873,5.9794,6.1086,6.2212,6.3173,0.0,0.0,0.0,0.0,0.0,0.0,0.0,6.4962,6.4498,6.3769,6.3391,6.3606,6.3459,6.3407,6.3571,0.0,0.0,6.0013,5.9471,5.9471,5.9471,5.9438,5.9471,5.9438,5.9844,6.0419,0.0,0.0,0.0,0.0,0.0,0.0,0.0,0.0,4.6011,4.6011,0.0,4.6011,0.0,0.0,0.0,0.0,4.6894,4.7608,0.0,0.0,5.0531,5.149,5.2572,5.2681,5.2978,5.3471,5.231,5.1701,5.1497,4.8547,0.0,0.0,0.0,0.0,0.0,0.0,5.231,5.3588,5.5445,5.6432,5.649,5.7071,5.7071,5.6432,5.5242,5.3965,5.2739,5.2246,5.1101,4.9054,4.8306,0.0,0.0,0.0,0.0,0.0,0.0,0.0,0.0,0.0,0.0,0.0,0.0,0.0,0.0,0.0,0.0,0.0,0.0,0.0,0.0,4.9392,0.0,0.0,0.0,0.0,0.0,0.0,0.0,0.0,0.0,0.0,5.8038,5.9198,6.0622,6.208,0.0,0.0,0.0,0.0,6.6022,6.7367,6.7645,6.7645,6.7645,6.7049,6.6585,6.6473,0.0,0.0,6.5791,6.5836,6.5978,6.6445,6.6507,6.5708,6.3119,6.2584,6.2516,6.2516,6.2516,6.2516,6.2516,6.2618,6.2854,5.1672,0.0,0.0,0.0,0.0,4.8595,4.8595,4.8595,4.8624,4.8624,4.8624,4.8595,0.0,0.0,0.0,0.0,0.0,0.0,5.0714,5.1149,5.2688,5.3617,5.3965,5.44,5.4691,5.4836,5.4487,5.4081,5.3646,5.2775,5.1062,4.8653,0.0,0.0,0.0,0.0,5.3588,5.4865,5.6316,5.7274,5.7768,5.8406,5.8203,5.71,5.6287,5.5271,5.3994,5.3535,5.2834,5.1647,5.0561,0.0,0.0,0.0,0.0,0.0,0.0,0.0,0.0,0.0,0.0,0.0,0.0,0.0,0.0,0.0,0.0,0.0,0.0,0.0,5.0155,5.0717,5.1181,0.0,0.0,0.0,0.0,0.0,0.0,0.0,0.0,0.0,6.2212,6.1914,6.2278,0.0,0.0,6.5326,6.6738,6.6937,6.7314,6.8241,6.8374,0.0,6.8407,6.8208,6.7877,6.738,6.7102,6.6982,6.7061,6.7243,6.7468,6.7781,6.7924,6.7829,6.7311,6.6271,6.5628,6.5561,6.5527,6.5561,6.5561,6.5933,6.6339,5.5329,5.4081,5.2078,5.1207,5.1236,5.1207,5.1207,5.1207,5.1207,5.1236,5.1236,5.1207,5.1207,5.1207,5.1207,0.0,0.0,0.0,5.2746,5.2833,5.4487,5.5387,5.5649,5.6258,5.6694,5.6926,5.6694,5.6374,5.5997,5.5736,5.4633,5.2746,0.0,0.0,5.2775,5.4023,5.5155,5.6171,5.7448,5.829,5.8697,5.9103,5.8784,5.7739,5.7332,5.6578,5.5329,5.5055,5.4504,5.3596,5.255,5.147,0.0,0.0,0.0,0.0,0.0,0.0,0.0,0.0,0.0,0.0,0.0,4.5086,4.5516,0.0,0.0,0.0,4.9392,5.0817,5.2407,5.2837,0.0,0.0,0.0,0.0,0.0,0.0,0.0,6.0291,6.1285,6.261,6.4895,6.4697,6.4829,6.6121,6.6242,6.6717,6.7877,0.0,6.8738,6.9467,6.9798,6.9997,7.003,6.9997,6.9831,6.9434,6.9368,6.9368,6.9368,6.9462,6.965,6.9883,7.0126,7.0354,7.0659,6.9972,6.9011,6.7963,6.7726,6.7726,6.7726,6.8064,6.8368,5.8377,5.8116,5.5213,5.3907,5.382,5.382,5.382,5.382,5.3762,5.3733,5.3733,5.3675,5.3675,5.3675,5.3675,0.0,5.3762,5.4429,5.4778,5.4865,5.6084,5.6926,5.7477,5.8087,5.8697,5.9277,5.8668,5.8377,5.8319,5.7739,5.7448,5.739,5.5126,5.4255,5.4836,5.5968,5.6868,5.7448,5.8726,5.9393,5.9451,5.9393,5.9074,5.8493,5.8406,5.7797,5.6636,5.649,5.602,5.5118,5.4296,5.3365,5.2383,0.0,0.0,0.0,0.0,0.0,0.0,0.0,0.0,0.0,0.0,0.0,0.0,0.0,0.0,0.0,5.244,0.0,5.4754,5.545,0.0,0.0,0.0,5.7608,5.9098,5.9264,6.0357,6.3206,0.0,0.0,6.6519,6.7281,6.7698,6.7877,6.7797,6.8076,6.8771,6.95,7.0229,7.0825,7.1521,7.1951,7.1786,7.1819,7.1786,7.1753,7.2018,7.1852,7.1819,7.1852,7.2049,7.2193,7.2534,7.272,7.3023,7.3021,7.2631,6.9958,6.9519,6.9519,6.9553,6.962,6.9654,5.9074,5.9016,5.8232,5.7332,5.6403,5.6403,5.6403,5.6374,5.591,5.5736,5.5678,5.5184,5.4952,5.4952,5.4952,5.5242,5.5765,5.6345,5.6897,5.7448,5.8232,5.8697,5.8842,5.8987,5.9161,5.9277,5.9132,5.9074,5.9074,5.89,5.8842,5.8813,5.8203,5.7739,5.7419,5.771,5.8174,5.8813,5.9597,6.0235,6.0729,6.0235,5.9916,5.9742,5.9306,5.8668,5.7884,5.7361,5.6834,5.6376,5.5624,5.4899,5.4183,5.3666,0.0,0.0,0.0,0.0,0.0,0.0,0.0,0.0,0.0,4.9657,5.0221,0.0,5.2142,0.0,5.4957,5.6448,5.7707,5.8005,0.0,0.0,6.0059,6.0622,6.208,6.2245,6.314,6.5459,6.5889,6.6552,6.7976,6.8341,6.8837,6.9931,6.9633,6.9533,7.0262,7.0991,7.1521,7.172,7.1918,7.1985,7.2051,7.2018,7.2051,7.2018,7.2018,7.2018,7.2018,7.2018,7.2116,7.2359,7.2567,7.2773,7.3124,7.3291,7.3308,7.2597,7.2462,7.2462,7.2428,7.2394,7.2394,6.038,6.0148,6.0148,5.9713,5.8987,5.8435,5.8174,5.8174,5.7826,5.7681,5.7681,5.7303,5.7129,5.7129,5.7129,5.7332,5.771,5.8029,5.8377,5.8784,5.9422,5.9713,5.9713,6.0003,6.0148,6.0148,6.0148,6.0148,6.0148,6.0148,6.0148,6.0148,6.0148,5.9974,5.9597,5.9306,5.9335,5.9684,6.0322,6.0816,6.1164,6.0845,6.0496,6.0206,5.9887,5.9277,5.8319,5.7942,5.7505,5.7032,5.6613,5.6244,5.5983,5.5279,5.4598,0.0,0.0,0.0,0.0,0.0,0.0,0.0,0.0,0.0,0.0,0.0,5.4891,5.6349,5.7806,5.9131,6.0258,6.0357,6.0953,6.2411,6.2577,6.3107,6.4564,6.473,6.5425,6.7281,6.7479,6.8042,6.9467,6.9666,7.0063,7.1223,7.1322,7.1289,7.1421,7.2018,7.2515,7.2481,7.278,7.2978,7.2978,7.2978,7.2978,7.2978,7.2978,7.2978,7.2978,7.2978,7.3028,7.3177,7.3487,7.3778,7.3922,7.4222,7.4458,7.4458,7.4458,7.4221,7.3612,7.3477,7.3477,6.1919,6.1454,6.1338,6.1309,6.1222,6.0061,5.9568,5.9539,5.9451,5.9364,5.9306,5.9306,5.9306,5.9306,5.9306,5.9335,5.9422,5.9422,5.948,5.9568,6.009,6.0322,6.0351,6.0932,6.1193,6.1193,6.1193,6.1193,6.1193,6.1193,6.1193,6.1193,6.1193,6.1193,6.1164,6.0613,6.0322,6.0322,6.0903,6.1193,6.1193,6.1193,6.0932,6.0351,6.0322,5.9713,5.8493,5.8435,5.8087,5.7332,5.7335,5.7369,5.7423,5.6462,5.6044,0.0,5.5348,0.0,0.0,0.0,0.0,0.0,0.0,0.0,0.0,5.6912,5.7906,5.9198,6.0589,6.1715,6.2553,6.2652,6.3173,6.4597,6.4796,6.5326,6.6618,6.6784,6.738,6.8804,6.897,6.95,7.0792,7.1024,7.1289,7.2018,7.2581,7.278,7.2481,7.2846,7.3243,7.3243,7.3773,7.4056,7.4038,7.4122,7.4072,7.4155,7.4122,7.4221,7.4122,7.4155,7.4221,7.4371,7.4722,7.5102,7.5252,7.5677,7.6014,7.598,7.598,7.554,7.4289,7.3883,7.3781,6.2819,6.2674,6.2151,6.1919,6.1861,6.1135,6.0845,6.0787,6.0264,5.9742,5.9306,5.9306,5.9306,5.9306,5.9306,5.9568,6.0032,6.0032,6.0322,6.0845,6.0961,6.1019,6.1019,6.1135,6.1193,6.1193,6.1193,6.1193,6.1193,6.1193,6.1193,6.1193,6.1193,6.1193,6.1193,0.0,0.0,0.0,6.1135,6.1193,6.1193,6.1193,6.1135,6.1019,6.1019,0.0,5.919,5.9103,5.8552,5.739,5.7745,0.0,0.0,0.0,0.0,0.0,0.0,0.0,0.0,0.0,0.0,0.0,5.986,5.9507,5.8938,6.0275,6.1293,6.1592,6.2378,6.3405,6.4664,6.4796,6.5392,6.6817,6.7016,6.7347,6.8175,6.8274,6.8837,7.0295,7.0494,7.0792,7.162,7.1786,7.2084,7.278,7.3045,7.331,7.3674,7.389,7.3939,7.4056,7.4122,7.4221,7.4221,7.4255,7.4288,7.4221,7.4221,7.4255,7.4288,7.4288,7.4487,7.4984,7.5522,7.6107,7.6609,7.7226,7.7468,7.7536,7.7502,7.7096,7.5608,7.527,7.527,6.337,6.3051,6.2732,6.2587,0.0,6.2267,6.2122,6.2064,6.1106,6.0526,6.0235,6.0235,6.0235,6.0235,6.0235,6.0409,6.07,6.07,6.0874,6.1193,6.1193,6.1193,6.1193,6.1193,6.1193,6.1193,6.1193,6.1193,6.1193,6.1193,6.1193,6.1193,6.1193,6.1193,6.1193,6.1193,6.1193,6.1193,6.1193,6.1193,6.1193,6.1193,6.1193,6.1193,6.1193,0.0,0.0,0.0,0.0,0.0,0.0,0.0,0.0,5.9272,0.0,5.944,5.9452,5.9572,5.9815,6.044,6.1246,6.2186,6.3042,6.2997,6.1677,6.3035,6.399,6.4156,6.4817,6.5589,6.6374,6.6485,6.6904,6.8009,6.8142,6.844,6.9103,6.9566,7.0063,7.0759,7.1223,7.172,7.2448,7.2548,7.2846,7.3508,7.3641,7.3773,7.4122,7.4221,7.4221,7.4221,7.4221,7.4303,7.4686,7.4701,7.4867,7.5132,7.5231,7.5231,7.5231,7.5231,7.5363,7.5779,7.6255,7.6777,7.7128,7.7664,7.801,7.801,7.801,7.7773,7.6961,7.6826,7.6826,6.3893,6.3428,6.3312,6.3254,6.3254,6.3138,6.3109,6.3022,0.0,0.0,0.0,6.1193,6.1193,6.1193,6.1193,6.1193,6.1193,6.1193,6.1193,6.1222,6.1309,6.1338,6.1338,6.1483,6.1542,6.1542,6.1542,6.1542,6.1542,6.1542,6.1542,6.1542,6.1542,6.1483,6.1367,6.1251,6.1193,6.1193,6.1193,6.1193,6.1193,6.1193,6.1193,6.1193,6.1193,6.0874,6.0235,6.0206,5.9916,5.9335,5.9856,6.0284,6.0482,6.0621,6.0893,6.1294,6.1125,6.1184,6.1701,6.2261,6.3015,6.3934,6.5332,6.5577,6.4205,6.5199,6.5994,6.6212,6.6785,6.7273,6.7685,6.7718,6.8062,6.8804,6.9003,6.9334,6.9931,7.0659,7.1123,7.1289,7.1852,7.2481,7.3177,7.331,7.3508,7.4005,7.4105,7.427,7.4387,7.4453,7.4436,7.4487,7.4652,7.4833,7.5264,7.5463,7.5695,7.6092,7.6225,7.6291,7.6291,7.6291,7.6357,7.649,7.7022,7.7429,7.7597,7.8135,7.8382,7.8382,7.8382,7.8382,7.8382,7.8382,7.828,6.4793,6.4677,6.4125,6.383,6.3801,6.3312,6.3109,6.3022,6.2296,6.1687,6.1193,6.1193,6.1193,6.1193,6.1193,6.1193,6.1193,6.1193,6.1193,6.1222,6.1716,6.1977,6.2006,6.2558,6.2819,6.2819,6.2819,6.2819,6.2819,6.2819,6.2819,6.2819,6.2819,6.2529,6.1977,6.1454,6.1193,6.1193,6.1193,6.1193,6.1193,6.1193,6.1193,6.1193,6.1193,6.0874,6.0235,6.0206,5.9916,5.9335,5.9856,6.0257,6.0284,6.0984,6.1368,6.1478,6.1879,6.225,6.2571,6.3151,6.3806,6.4678,6.5687,6.6187,6.6157,6.6427,6.6653,6.67,6.6864,6.7236,6.8031,6.821,6.8635,6.9552,7.0196,7.0626,7.0759,7.1388,7.2084,7.2614,7.2879,7.321,7.3807,7.3972,7.4005,7.4188,7.437,7.4487,7.5017,7.5098,7.5132,7.5249,7.5628,7.6026,7.6159,7.6159,7.6258,7.6291,7.639,7.649,7.649,7.649,7.6689,7.7152,7.7703,7.8299,7.8853,7.955,7.9719,7.9735,7.9701,7.9735,7.9701,7.9735,7.9431,6.5315,6.4967,6.4677,6.4561,6.4532,6.4241,6.3922,6.3603,6.3283,6.279,6.2267,6.2209,6.2209,6.2238,6.2209,6.2209,6.2209,6.2238,6.2209,6.2238,6.2499,6.2616,6.2645,6.2964,6.3109,6.3109,6.3109,6.3109,6.3109,6.3109,6.3109,6.3109,6.3109,6.2935,6.2645,6.2354,6.2238,6.2209,6.1542,6.1193,6.1193,6.1193,6.1193,6.1193,6.1193,6.1077,6.0758,6.0729,6.0613,6.0322,6.0911,6.1232,6.1202,6.198,6.2378,6.2378,6.2716,6.3108,6.344,6.4151,6.4871,6.5742,6.6234,6.6658,6.6996,6.718,6.7476,6.772,6.7769,6.8209,6.9173,6.9287,6.9631,7.0486,7.0881,7.1095,7.1309,7.1953,7.2564,7.3028,7.3442,7.3807,7.4188,7.4221,7.442,7.4719,7.5032,7.5463,7.5827,7.6192,7.6291,7.596,7.6125,7.6457,7.6821,7.6887,7.7053,7.7417,7.7517,7.7517,7.7517,7.7517,7.7649,7.7914,7.8384,7.8779,7.9336,7.9699,8.0006,8.0209,8.0209,8.0209,8.0209,8.0209,7.9938,6.578,6.5199,6.5199,6.5141,6.4996,6.4996,6.4706,6.427,6.4241,6.398,6.3516,6.3225,6.3109,6.3109,6.3109,6.308,6.3109,6.3109,6.308,6.3109,6.3225,6.3312,6.3341,6.3428,6.3516,6.3516,6.3516,6.3516,6.3516,6.3516,6.3516,6.3516,6.337,6.3312,6.3283,6.3167,6.3109,6.3051,6.2122,6.1629,6.1629,6.1629,6.1542,6.1396,6.1396,6.1338,6.1193,6.1193,6.1253,6.1313,6.1821,6.2175,6.2234,6.2759,6.3137,6.3137,6.3309,6.3595,6.3993,6.49,6.5732,6.6466,6.6805,6.7166,6.7608,6.792,6.8267,6.8643,6.8841,6.9349,7.0056,7.0237,7.0549,7.1105,7.1335,7.1552,7.1736,7.2378,7.2856,7.3208,7.3739,7.4153,7.4319,7.4436,7.4785,7.543,7.6092,7.6523,7.6622,7.7185,7.7351,7.702,7.6821,7.7053,7.7583,7.7649,7.7881,7.8477,7.8477,7.8378,7.8378,7.8477,7.8511,7.8444,7.8691,7.9008,7.9336,7.9647,7.9904,8.0158,8.0209,8.0242,8.0479,8.0513,8.0344,6.6418,6.5867,6.5838,6.5489,6.4996,6.4996,6.4938,6.488,6.488,6.488,6.4648,6.3603,6.3138,6.3109,6.3138,6.3167,6.3138,6.3109,6.3138,6.3225,6.369,6.3951,6.398,6.4532,6.4822,6.4764,6.4735,6.4706,6.4706,6.4735,6.4793,6.4735,6.4241,6.3888,6.3893,6.3399,6.3109,6.3109,6.2964,6.2935,6.2906,6.2906,6.2616,6.2006,6.2006,6.1745,6.128,6.1193,6.1313,6.1554,6.1968,6.2263,6.2586,6.2935,6.3166,6.3166,6.3166,6.3367,6.4054,6.5136,6.5979,6.6368,6.7363,6.806,6.8441,6.8743,6.8946,6.9053,6.9717,7.0215,7.0717,7.0717,7.0884,7.1284,7.1793,7.2106,7.2171,7.2813,7.3272,7.3272,7.3661,7.4079,7.4691,7.5044,7.5496,7.6125,7.6854,7.7318,7.7351,7.7848,7.8279,7.8246,7.8279,7.8246,7.8345,7.8411,7.8411,7.8511,7.8511,7.8511,7.8511,7.8544,7.8544,7.8742,7.887,7.9222,7.9503,7.9596,7.9954,8.0412,8.0513,8.0445,8.0987,8.119,8.0987,6.7086,6.6476,6.6099,6.5577,6.5025,6.4996,6.4996,6.4996,6.4996,6.4996,6.4938,6.4444,6.4212,6.4212,6.4212,6.4212,6.4212,6.4212,6.4212,6.4241,6.4473,6.4619,6.4648,6.4851,6.4996,6.4996,6.4996,6.4996,6.4996,6.4996,6.4996,6.4967,6.4706,6.459,6.4561,6.4328,6.4212,6.4212,6.4212,6.4212,6.4125,6.3457,6.2964,6.2732,6.2703,6.2587,6.2354,6.2325,6.248,6.2754,6.3085,6.3415,6.3773,6.4069,6.4246,6.4216,6.4392,6.4656,6.4888,6.5708,6.6318,6.6571,6.7268,6.7759,6.8123,6.891,6.9418,6.9435,6.9649,7.0115,7.0764,7.0914,7.1233,7.1831,7.2209,7.2391,7.2633,7.2894,7.324,7.3842,7.4078,7.453,7.5345,7.6049,7.6622,7.702,7.7616,7.8014,7.808,7.8345,7.8477,7.8511,7.8511,7.8511,7.8511,7.8511,7.8544,7.8544,7.8511,7.8511,7.861,7.8974,7.9173,7.9173,7.9546,8.0048,8.0708,8.08,8.101,8.1254,8.1494,8.1629,8.19,8.1934,8.1765,6.7754,6.7086,6.6447,6.5838,6.5257,6.5257,6.5141,6.4996,6.4996,6.4996,6.4996,6.4996,6.4996,6.4996,6.4996,6.4996,6.4996,6.4996,6.4996,6.4996,6.4996,6.4996,6.4996,6.4996,6.4996,6.4996,6.4996,6.4996,6.4996,6.4996,6.4996,6.4996,6.4996,6.4996,6.4996,6.4996,6.4996,6.4967,6.4996,6.4996,6.4851,6.4096,6.3545,6.337,6.3341,6.3283,6.3109,6.3109,6.3266,6.3696,6.397,6.4273,6.4695,6.4905,6.5024,6.5024,6.5202,6.538,6.5498,6.609,6.6589,6.6963,6.7403,6.79,6.8302,6.9126,6.9657,6.9682,6.9603,7.004,7.0963,7.1167,7.1478,7.2176,7.224,7.2401,7.2582,7.2798,7.3261,7.4069,7.4404,7.4956,7.5944,7.6901,7.7556,7.7622,7.8093,7.8511,7.8511,7.8511,7.8511,7.8544,7.8676,7.8689,7.8577,7.8776,7.8776,7.8908,7.9007,7.9239,7.9107,7.9637,7.9902,7.9968,8.0432,8.0762,8.0996,8.1344,8.1811,8.2199,8.2441,8.2509,8.2678,8.2678,8.2813,6.8421,6.7754,6.7115,6.6476,6.5896,6.5867,6.5548,6.5054,6.4996,6.4996,6.4996,6.4996,6.4996,6.4996,6.4996,6.4996,6.4996,6.4996,6.4996,6.4996,6.4996,6.4996,6.4996,6.4996,6.4996,6.4996,6.4996,6.4996,6.4996,6.4996,6.4996,6.4996,6.4996,6.4996,6.4996,6.4996,6.4996,6.4996,6.4996,6.4996,6.4996,6.4909,6.4532,6.4067,6.4009,6.3719,6.3254,6.3138,6.3447,6.403,6.418,6.4453,6.4964,6.5024,6.5114,6.5114,6.5084,6.5203,6.5589,6.619,6.6789,6.735,6.8129,6.8911,6.902,6.9485,6.9719,6.9782,6.9771,7.0224,7.1273,7.1374,7.1516,7.1666,7.1698,7.1894,7.2165,7.2831,7.3231,7.3825,7.4648,7.5538,7.6463,7.7423,7.7882,7.8056,7.8263,7.8457,7.8457,7.8457,7.8544,7.8709,7.9041,7.9339,7.8776,7.9173,7.9537,7.9637,7.9902,8.0399,8.0564,8.0631,8.0631,8.0697,8.0929,8.1072,8.1146,8.1524,8.2066,8.245,8.2727,8.2915,8.3389,8.3456,8.3558,6.845,6.787,6.7638,6.7144,6.6535,6.6099,6.5809,6.5548,6.5141,6.4996,6.4996,6.4996,6.4996,6.4996,6.4996,6.4996,6.4996,6.4996,6.4996,6.4996,6.4996,6.4996,6.4996,6.4996,6.4996,6.4996,6.4996,6.4996,6.4996,6.4996,6.4996,6.4996,6.4996,6.4996,6.4996,6.4996,6.4996,6.4996,6.4996,6.4996,6.4996,6.4996,6.4851,6.4677,6.4648,6.4532,6.4299,6.4488,6.4865,6.5329,6.5485,6.5793,6.622,6.6281,6.6281,6.6281,6.6281,6.6341,6.6492,6.6854,6.7246,6.7486,6.8145,6.8654,6.88,6.924,6.953,6.953,6.9703,7.0229,7.0828,7.1035,7.1171,7.1566,7.206,7.2316,7.2554,7.309,7.3779,7.4596,7.5663,7.6603,7.6877,7.7479,7.7774,7.7829,7.8079,7.8242,7.8296,7.8403,7.8656,7.9086,7.9438,7.9703,8.0001,8.0101,8.0299,8.0332,8.0531,8.0631,8.0763,8.126,8.1359,8.1459,8.1591,8.1935,8.2178,8.2615,8.3027,8.3414,8.3573,8.3592,8.4167,8.4031,8.42,6.8567,6.8218,6.8189,6.7812,6.7202,6.6738,6.6418,6.6186,6.5577,6.5286,6.5257,6.5083,6.4996,6.4996,6.4996,6.4996,6.4996,6.4996,6.4996,6.4996,6.4996,6.4996,6.4996,6.4996,6.4996,6.4996,6.4996,6.4996,6.4996,6.4996,6.4996,6.4996,6.4996,6.4996,6.4996,6.4996,6.4996,6.4996,6.4996,6.4996,6.4996,6.4996,6.4996,6.4996,6.4996,6.4996,6.4996,6.5285,6.5664,6.6007,6.6319,6.6629,6.6937,6.6999,6.6999,6.6999,6.6969,6.6999,6.6999,6.7213,6.7335,6.7487,6.7879,6.8119,6.8298,6.8654,6.904,6.9312,6.958,7.0004,7.0762,7.0986,7.1162,7.1678,7.2228,7.2627,7.2803,7.3434,7.4331,7.5338,7.6217,7.6855,7.7088,7.7311,7.7477,7.7444,7.7752,7.7949,7.8234,7.8442,7.8815,7.9507,7.9903,8.0266,8.054,8.0837,8.0994,8.105,8.1337,8.1271,8.1326,8.1823,8.2088,8.2221,8.2476,8.2886,8.3332,8.3775,8.4102,8.4392,8.4384,8.4234,8.4471,8.4539,8.4573,6.8828,6.877,6.876,6.8421,6.7899,6.7754,6.7434,6.6825,6.6215,6.5896,6.5751,6.5286,6.5054,6.4996,6.4996,6.4996,6.4996,6.4996,6.4996,6.4996,6.4996,6.4996,6.4996,6.4996,6.4996,6.4996,6.4996,6.4996,6.4996,6.4996,6.4996,6.4996,6.4996,6.4996,6.4996,6.5054,6.5054,6.5083,6.5141,6.5141,6.5025,6.5141,6.517,6.5112,6.5141,6.5141,6.5118,6.5378,6.5664,6.6007,6.6319,6.6691,6.6937,6.6999,6.6999,6.6999,6.6999,6.6999,6.6999,6.703,6.7152,6.7426,6.7548,6.7759,6.8091,6.8211,6.8544,6.9303,6.9486,6.9942,7.1067,7.128,7.1456,7.1877,7.2226,7.2522,7.288,7.3733,7.4805,7.5867,7.6264,7.6467,7.6726,7.7008,7.7144,7.7255,7.752,7.7937,7.8461,7.8736,7.9107,7.9763,8.0278,8.0687,8.1066,8.1467,8.1647,8.1831,8.2184,8.2284,8.2208,8.2472,8.2496,8.2562,8.2618,8.2996,8.322,8.3665,8.3884,8.4211,8.4339,8.4553,8.4606,8.4606,8.4606,6.876,6.876,6.876,6.8712,6.8479,6.8073,6.7754,6.7492,6.6854,6.6331,6.5954,6.5722,6.5402,6.5054,6.4996,6.4996,6.4996,6.4996,6.4996,6.4996,6.4996,6.4996,6.4996,6.4996,6.4996,6.4996,6.4996,6.4996,6.4996,6.4996,6.4996,6.4996,6.4996,6.4996,6.5054,6.5402,6.5635,6.5693,6.607,6.6302,6.6302,6.6273,6.6273,6.6302,6.6302,6.6229,6.5956,6.5928,6.6007,6.6319,6.6691,6.6876,6.6999,6.6999,6.6999,6.6999,6.6999,6.6999,6.6999,6.7029,6.709,6.7182,6.7365,6.7789,6.8273,6.8516,6.8941,6.9641,6.9762,7.0159,7.0831,7.1076,7.1322,7.1852,7.2373,7.2714,7.3014,7.393,7.4876,7.5539,7.5835,7.6124,7.6353,7.6581,7.6759,7.6993,7.7567,7.8191,7.8476,7.9079,7.9739,8.0427,8.082,8.1057,8.136,8.1531,8.1606,8.1738,8.2116,8.2485,8.2543,8.26,8.2656,8.277,8.2827,8.294,8.322,8.3443,8.372,8.3993,8.4211,8.4372,8.4553,8.4553,8.45,6.876,6.876,6.876,6.876,6.8799,6.8392,6.8218,6.8131,6.7522,6.7028,6.668,6.6389,6.5925,6.5431,6.5315,6.5199,6.5025,6.4996,6.4996,6.4996,6.4996,6.4996,6.4996,6.4996,6.4996,6.4996,6.4996,6.4996,6.4996,6.5199,6.5344,6.5344,6.5548,6.5722,6.5722,6.607,6.6273,6.6331,6.6651,6.6883,6.6883,6.6883,6.6883,6.6883,6.7014,6.7071,6.692,6.6921,6.6823,6.6624,6.6814,6.6999,6.6999,6.6999,6.6999,6.7029,6.7208,6.7358,6.7358,6.7627,6.7747,6.7779,6.7903,6.8206,6.8629,6.8843,6.9269,6.9937,7.0151,7.0423,7.1125,7.1339,7.1502,7.1905,7.2488,7.2979,7.3314,7.4017,7.4687,7.5075,7.5369,7.5629,7.6009,7.6413,7.6567,7.6926,7.7697,7.8517,7.8737,7.9365,8.0124,8.0671,8.0906,8.1141,8.146,8.1558,8.1558,8.1668,8.1818,8.2083,8.2256,8.2256,8.2313,8.2543,8.2656,8.277,8.2996,8.322,8.3499,8.3775,8.3993,8.4102,8.4211,8.4339,8.4339,6.876,6.876,6.876,6.876,6.876,6.877,6.8673,6.8712,6.8189,6.787,6.7667,6.7173,6.6593,6.6099,6.5983,6.5722,6.5228,6.5257,6.5286,6.5257,6.5228,6.5199,6.5025,6.4996,6.5054,6.5112,6.5112,6.5141,6.5344,6.5751,6.5983,6.6012,6.6447,6.6825,6.6738,6.6883,6.6941,6.697,6.7028,6.7115,6.7115,6.7086,6.7086,6.7115,6.7444,6.7712,6.7918,6.8126,6.7846,6.6895,6.7145,6.7298,6.7178,6.7119,6.7238,6.7298,6.7717,6.7986,6.8166,6.8465,6.8794,6.8764,6.8764,6.9034,6.9097,6.919,6.9556,7.0377,7.0531,7.0836,7.1574,7.1759,7.1792,7.201,7.2425,7.3077,7.3691,7.3844,7.4207,7.4659,7.4866,7.5106,7.5731,7.6358,7.6705,7.7201,7.7826,7.8646,7.9124,7.9624,8.0194,8.0545,8.0739,8.0804,8.0998,8.0998,8.0966,8.1025,8.1263,8.1558,8.1909,8.2025,8.2083,8.2313,8.2428,8.26,8.277,8.294,8.322,8.3443,8.3609,8.372,8.3884,8.4102,8.4156,6.876,6.876,6.876,6.876,6.876,6.876,6.876,6.8799,6.8654,6.8305,6.7928,6.7696,6.726,6.668,6.6622,6.6535,6.6331,6.6331,6.6389,6.6389,6.6389,6.5809,6.5141,6.5025,6.5257,6.5635,6.5693,6.5925,6.636,6.6535,6.6622,6.6622,6.6854,6.6941,6.6912,6.7405,6.7609,6.7696,6.8102,6.8276,6.8247,6.8247,6.8305,6.8305,6.8581,6.8679,6.8661,6.8768,6.8758,6.8429,6.8402,6.8465,6.8375,6.8375,6.8345,6.8375,6.8555,6.8734,6.8764,6.8944,6.9034,6.9004,6.9123,6.9213,6.9692,6.9722,7.0115,7.0629,7.0809,7.0903,7.1148,7.1242,7.1307,7.1564,7.2137,7.2735,7.3108,7.3447,7.3784,7.4118,7.4178,7.4791,7.5621,7.6117,7.6585,7.7421,7.8175,7.8839,7.9252,7.9665,8.0167,8.0203,8.0271,8.0303,8.0335,8.0335,8.0335,8.0335,8.0577,8.0846,8.1322,8.1792,8.1909,8.2083,8.2083,8.2198,8.2428,8.26,8.2883,8.3108,8.3276,8.3388,8.3665,8.3884,8.3884,6.876,6.876,6.876,6.876,6.876,6.876,6.876,6.876,6.876,6.8654,6.8334,6.8276,6.7899,6.7347,6.7289,6.7144,6.6912,6.6883,6.6883,6.6883,6.6854,6.6447,6.5925,6.578,6.5983,6.6273,6.6331,6.6506,6.6854,6.7144,6.7289,6.7376,6.758,6.7667,6.7783,6.8044,6.8276,6.8334,6.8654,6.876,6.876,6.876,6.876,6.8895,6.927,6.9531,6.9673,6.9799,6.9602,6.9153,6.9004,6.9004,6.9004,6.9004,6.9004,6.9004,6.9243,6.9393,6.9482,6.9632,6.9812,6.9812,6.9782,6.9991,7.029,7.038,7.059,7.0799,7.0889,7.0919,7.0919,7.0919,7.0984,7.1242,7.1692,7.22,7.2703,7.2952,7.3448,7.388,7.422,7.4561,7.5801,7.6145,7.6707,7.7394,7.8179,7.8681,7.9088,7.9561,7.9907,7.9907,7.9907,7.9969,8.003,8.003,7.9969,7.9907,7.9907,8.0181,8.0726,8.129,8.1499,8.1617,8.1734,8.185,8.2083,8.2198,8.2371,8.26,8.2794,8.2963,8.322,8.3443,8.3499,6.876,6.876,6.876,6.876,6.876,6.876,6.876,6.876,6.876,6.8828,6.877,6.8731,6.845,6.7986,6.7957,6.7667,6.7173,6.7289,6.7202,6.726,6.726,6.7144,6.7115,6.6738,6.6796,6.697,6.697,6.7086,6.7347,6.7783,6.7957,6.8044,6.8479,6.8741,6.8596,6.8673,6.8731,6.8741,6.877,6.876,6.876,6.8828,6.8828,6.903,6.9604,7.017,7.0569,7.0739,7.035,6.9273,6.9213,6.9333,6.9273,6.9243,6.9273,6.9393,6.9812,7.0051,7.0141,7.05,7.0799,7.0739,7.0769,7.0919,7.0829,7.0799,7.0829,7.0889,7.0919,7.0919,7.0919,7.0919,7.0919,7.1078,7.1272,7.1813,7.2322,7.2511,7.3008,7.4158,7.4407,7.4997,7.5838,7.6556,7.7024,7.7528,7.8093,7.8439,7.8691,7.8942,7.9256,7.9475,7.9599,7.9722,7.9722,7.9722,7.9661,7.9537,7.9475,7.9629,8.0059,8.0513,8.0846,8.1025,8.1144,8.1381,8.1734,8.185,8.1909,8.2141,8.2428,8.2428,8.2452,8.277,8.294,6.876,6.876,6.876,6.876,6.876,6.876,6.876,6.876,6.876,6.876,6.876,6.876,6.8741,6.8596,6.8567,6.8538,6.8305,6.8305,6.8421,6.8421,6.8421,6.8392,6.816,6.7463,6.7231,6.7522,6.7667,6.7899,6.8305,6.8392,6.8596,6.8625,6.8683,6.876,6.876,6.876,6.876,6.876,6.876,6.876,6.876,6.8828,6.8934,6.9203,6.9869,7.0462,7.0789,7.0919,7.0769,7.056,7.044,7.032,7.035,7.038,7.035,7.038,7.05,7.0679,7.0709,7.0799,7.0919,7.0919,7.0919,7.0919,7.0919,7.0919,7.0919,7.0919,7.0919,7.0919,7.0919,7.0919,7.0949,7.1038,7.1433,7.1964,7.2319,7.2641,7.3147,7.3711,7.4267,7.4982,7.6174,7.6424,7.6986,7.7647,7.7993,7.8151,7.831,7.8437,7.8628,7.8912,7.8975,7.9037,7.9037,7.9037,7.9037,7.9037,7.8975,7.8943,7.9381,7.9752,8.0059,8.0364,8.0545,8.0846,8.1204,8.144,8.1499,8.1734,8.1967,8.1967,8.2025,8.2256,8.2593,6.876,6.876,6.876,6.876,6.876,6.876,6.876,6.876,6.876,6.876,6.876,6.876,6.876,6.876,6.876,6.876,6.876,6.876,6.8799,6.8799,6.8731,6.8731,6.877,6.8247,6.8015,6.8305,6.8305,6.8538,6.8741,6.876,6.8731,6.876,6.876,6.876,6.876,6.876,6.876,6.876,6.876,6.876,6.876,6.8828,6.9068,6.9537,7.0134,7.0563,7.0824,7.0919,7.0919,7.0919,7.0919,7.0919,7.0919,7.0919,7.0919,7.0919,7.0919,7.0919,7.0889,7.0919,7.0919,7.0919,7.0919,7.0919,7.0919,7.0919,7.0919,7.0919,7.0919,7.0919,7.0919,7.0919,7.1009,7.1368,7.1667,7.2128,7.2559,7.2948,7.3425,7.3994,7.4485,7.5199,7.5828,7.6242,7.6527,7.7089,7.7315,7.7538,7.7797,7.7894,7.8054,7.8246,7.8213,7.8213,7.8277,7.8277,7.8341,7.8405,7.8405,7.8437,7.8628,7.9006,7.9318,7.9691,8.012,8.0335,8.0638,8.0786,8.0966,8.0966,8.1085,8.1381,8.1617,8.1883,8.2353,6.876,6.876,6.876,6.876,6.876,6.876,6.876,6.876,6.876,6.876,6.876,6.876,6.876,6.876,6.876,6.876,6.876,6.876,6.876,6.876,6.876,6.876,6.877,6.8712,6.8654,6.876,6.877,6.8799,6.8799,6.876,6.876,6.876,6.876,6.876,6.876,6.876,6.876,6.876,6.876,6.876,6.876,6.8828,6.9165,6.9803,7.0331,7.0629,7.0824,7.0919,7.0919,7.0919,7.0919,7.0919,7.0919,7.0919,7.0919,7.0919,7.0919,7.0919,7.0919,7.0919,7.0919,7.0919,7.0919,7.0919,7.0919,7.0919,7.0919,7.0919,7.0919,7.0919,7.0919,7.1098,7.1368,7.1757,7.1996,7.2475,7.296,7.337,7.4064,7.448,7.4855,7.5316,7.5789,7.6172,7.6329,7.6457,7.6686,7.695,7.7181,7.7312,7.7343,7.7343,7.7277,7.7408,7.7408,7.7473,7.7603,7.7763,7.7828,7.7925,7.799,7.8246,7.8628,7.9412,7.9784,7.9907,8.0091,8.0335,8.0335,8.0213,8.0396,8.0786,8.1117,8.1446,8.2085,6.876,6.876,6.876,6.876,6.876,6.876,6.876,6.876,6.876,6.876,6.876,6.876,6.876,6.876,6.876,6.876,6.876,6.876,6.876,6.876,6.876,6.876,6.876,6.876,6.876,6.876,6.876,6.876,6.876,6.876,6.876,6.876,6.876,6.876,6.876,6.876,6.876,6.876,6.876,6.876,6.876,6.8895,6.9232,6.9936,7.0462,7.0759,7.0824,7.0919,7.0919,7.0919,7.0919,7.0919,7.0919,7.0919,7.0919,7.0919,7.0919,7.0919,7.0919,7.0919,7.0919,7.0919,7.0919,7.0919,7.0919,7.0919,7.0919,7.0919,7.0919,7.0919,7.0919,7.1338,7.1727,7.2116,7.2804,7.3492,7.3762,7.4166,7.4451,7.46,7.4999,7.5338,7.5594,7.5887,7.6021,7.6088,7.6288,7.6355,7.6457,7.6457,7.6391,7.6355,7.6252,7.6421,7.662,7.6752,7.6818,7.7147,7.7277,7.7408,7.7473,7.7572,7.7959,7.8691,7.9131,7.9318,7.9537,7.9784,7.9907,7.9907,8.0091,8.0274,8.0649,8.1117,8.1733,6.876,6.876,6.876,6.876,6.876,6.876,6.876,6.876,6.876,6.876,6.876,6.876,6.876,6.876,6.876,6.876,6.876,6.876,6.876,6.876,6.876,6.876,6.876,6.876,6.876,6.876,6.876,6.876,6.876,6.876,6.876,6.876,6.876,6.876,6.876,6.876,6.876,6.876,6.876,6.8828,6.8895,6.9068,6.967,7.0134,7.0593,7.0854,7.0919,7.0919,7.0919,7.0919,7.0919,7.0919,7.0919,7.0919,7.0919,7.0919,7.0919,7.0919,7.0919,7.0919,7.0919,7.0919,7.0919,7.0919,7.0919,7.0919,7.0919,7.0919,7.0919,7.1068,7.1398,7.1727,7.2176,7.2894,7.3552,7.4001,7.436,7.4689,7.4706,7.4632,7.4872,7.512,7.5218,7.5482,7.5617,7.5752,7.5819,7.5887,7.5856,7.5789,7.5819,7.5819,7.5917,7.5954,7.6155,7.6221,7.6421,7.6686,7.6818,7.7016,7.7147,7.7277,7.7538,7.7925,7.831,7.8691,7.8943,7.9131,7.935,7.9568,7.9724,7.9943,8.0356,8.0895,8.1566,6.876,6.876,6.876,6.876,6.876,6.876,6.876,6.876,6.876,6.876,6.876,6.876,6.876,6.876,6.876,6.876,6.876,6.876,6.876,6.876,6.876,6.876,6.876,6.876,6.876,6.876,6.876,6.876,6.876,6.876,6.876,6.876,6.876,6.876,6.876,6.876,6.876,6.876,6.876,6.8828,6.9098,6.9537,7.0068,7.0367,7.0724,7.0919,7.0919,7.0919,7.0919,7.0919,7.0919,7.0919,7.0919,7.0919,7.0919,7.0919,7.0919,7.0919,7.0919,7.0919,7.0919,7.0919,7.0919,7.0919,7.0919,7.0919,7.0919,7.0919,7.1098,7.1308,7.1757,7.2146,7.2774,7.3492,7.3971,7.427,7.4629,7.4839,7.4839,7.4847,7.4869,7.4937,7.5074,7.5142,7.5278,7.5346,7.5414,7.5482,7.5452,7.555,7.555,7.5617,7.5617,7.5685,7.5819,7.5819,7.6155,7.6554,7.6686,7.6752,7.6884,7.7016,7.7308,7.76,7.7603,7.7925,7.8182,7.8532,7.8691,7.9006,7.9289,7.9636,7.9985,8.0808,8.1634,6.876,6.876,6.876,6.876,6.876,6.876,6.876,6.876,6.876,6.876,6.876,6.876,6.876,6.876,6.876,6.876,6.876,6.876,6.876,6.876,6.876,6.876,6.876,6.876,6.876,6.876,6.876,6.876,6.876,6.876,6.876,6.876,6.876,6.876,6.876,6.876,6.876,6.876,6.8828,6.8963,6.927,6.967,7.0068,7.0462,7.0724,7.0919,7.0919,7.0919,7.0919,7.0919,7.0919,7.0919,7.0919,7.0919,7.0919,7.0919,7.0919,7.0919,7.0919,7.0919,7.0919,7.0919,7.0919,7.0919,7.0919,7.0919,7.0919,7.0919,7.1368,7.1757,7.2146,7.2954,7.3582,7.4001,7.439,7.4599,7.4869,7.4869,7.4869,7.4869,7.4869,7.4869,7.4937,7.4937,7.4937,7.4937,7.5006,7.5074,7.5142,7.521,7.521,7.5278,7.5346,7.5346,7.5414,7.5482,7.5819,7.6355,7.6488,7.6554,7.688,7.7108,7.7139,7.7301,7.7432,7.7686,7.8232,7.846,7.8274,7.8623,7.9286,7.9508,7.9602,8.0613,8.169,6.876,6.876,6.876,6.876,6.876,6.876,6.876,6.876,6.876,6.876,6.876,6.876,6.876,6.876,6.876,6.876,6.876,6.876,6.876,6.876,6.876,6.876,6.876,6.876,6.876,6.876,6.876,6.876,6.876,6.876,6.876,6.876,6.876,6.876,6.876,6.876,6.876,6.8828,6.903,6.927,6.9604,7.0002,7.0331,7.0658,7.0824,7.0919,7.0919,7.0919,7.0919,7.0919,7.0919,7.0919,7.0919,7.0919,7.0919,7.0919,7.0919,7.0919,7.0919,7.0919,7.0919,7.0919,7.0919,7.0919,7.0919,7.0919,7.0919,7.0919,7.1517,7.1996,7.2505,7.3313,7.3941,7.439,7.4659,7.4749,7.4869,7.4869,7.4869,7.4869,7.4869,7.4869,7.4869,7.4869,7.4937,7.4937,7.4937,7.4937,7.5006,7.5006,7.5006,7.5006,7.5006,7.5006,7.5074,7.5142,7.555,7.5984,7.6282,7.6416,7.6941,7.72,7.7447,7.7785,7.8159,7.8389,7.8526,7.8568,7.8543,7.8984,7.9489,7.971,8.006,8.0563,8.1576,6.876,6.876,6.876,6.876,6.876,6.876,6.876,6.876,6.876,6.876,6.876,6.876,6.876,6.876,6.876,6.876,6.876,6.876,6.876,6.876,6.876,6.876,6.876,6.876,6.876,6.876,6.876,6.876,6.876,6.876,6.876,6.876,6.876,6.876,6.876,6.876,6.876,6.8828,6.9098,6.947,6.9869,7.02,7.0528,7.0789,7.0919,7.0919,7.0919,7.0919,7.0919,7.0919,7.0919,7.0919,7.0919,7.0919,7.0919,7.0919,7.0919,7.0919,7.0919,7.0919,7.0919,7.0919,7.0919,7.0919,7.0919,7.0919,7.1068,7.1188,7.1846,7.2475,7.3103,7.3762,7.427,7.4629,7.4839,7.4869,7.4869,7.4869,7.4869,7.4869,7.4869,7.4869,7.4869,7.4869,7.4869,7.4869,7.4869,7.4869,7.4869,7.4869,7.4869,7.4869,7.4869,7.4937,7.4937,7.5074,7.5444,7.5873,7.6105,7.6593,7.7279,7.7847,7.8247,7.8585,7.8893,7.9053,7.9223,7.8981,7.8897,7.9211,7.9557,8.0155,8.0631,8.104,8.149,6.876,6.876,6.876,6.876,6.876,6.876,6.876,6.876,6.876,6.876,6.876,6.876,6.876,6.876,6.876,6.876,6.876,6.876,6.876,6.876,6.876,6.876,6.876,6.876,6.876,6.876,6.876,6.876,6.876,6.876,6.876,6.876,6.876,6.876,6.876,6.876,6.8828,6.8963,6.9203,6.9537,6.9936,7.0236,7.0563,7.0854,7.0919,7.0919,7.0919,7.0919,7.0919,7.0919,7.0919,7.0919,7.0919,7.0919,7.0919,7.0919,7.0919,7.0919,7.0919,7.0919,7.0919,7.0919,7.0919,7.0919,7.0919,7.0919,7.1158,7.1667,7.2235,7.2984,7.3672,7.436,7.4689,7.4779,7.4869,7.4869,7.4869,7.4869,7.4869,7.4869,7.4869,7.4869,7.4869,7.4869,7.4869,7.4869,7.4869,7.4869,7.4869,7.4869,7.4869,7.4869,7.4869,7.4937,7.4937,7.5172,7.5572,7.6153,7.6642,7.7221,7.7867,7.8395,7.9016,7.9139,7.9386,7.9632,7.9786,7.9706,7.9557,7.9361,7.9644,8.0409,8.0921,8.1243,8.173,6.876,6.876,6.876,6.876,6.876,6.876,6.876,6.876,6.876,6.876,6.876,6.876,6.876,6.876,6.876,6.876,6.876,6.876,6.876,6.876,6.876,6.876,6.876,6.876,6.876,6.876,6.876,6.876,6.876,6.876,6.876,6.876,6.876,6.876,6.876,6.8828,6.8895,6.9136,6.947,6.9869,7.02,7.0498,7.0759,7.0854,7.0919,7.0919,7.0919,7.0919,7.0919,7.0919,7.0919,7.0919,7.0919,7.0919,7.0919,7.0919,7.0919,7.0919,7.0919,7.0919,7.0919,7.0919,7.0919,7.0919,7.0919,7.0919,7.1248,7.1846,7.2535,7.3193,7.3851,7.445,7.4839,7.4869,7.4869,7.4869,7.4869,7.4869,7.4869,7.4869,7.4869,7.4869,7.4869,7.4869,7.4869,7.4869,7.4869,7.4869,7.4869,7.4869,7.4869,7.4869,7.4869,7.4937,7.5006,7.53,7.5731,7.647,7.7142,7.7876,7.8611,7.9263,7.9724,7.9817,7.9971,8.0278,8.0432,8.0402,8.0309,8.0155,8.0278,8.0716,8.1176,8.1442,8.1777,6.876,6.876,6.876,6.876,6.876,6.876,6.876,6.876,6.876,6.876,6.876,6.876,6.876,6.876,6.876,6.876,6.876,6.876,6.876,6.876,6.876,6.876,6.876,6.876,6.876,6.876,6.876,6.876,6.876,6.876,6.876,6.876,6.876,6.876,6.876,6.8828,6.8963,6.927,6.967,7.0068,7.0397,7.0694,7.0889,7.0919,7.0919,7.0919,7.0919,7.0919,7.0919,7.0919,7.0919,7.0919,7.0919,7.0919,7.0919,7.0919,7.0919,7.0919,7.0919,7.0919,7.0919,7.0919,7.0919,7.0919,7.0919,7.0949,7.1278,7.2176,7.2714,7.3253,7.3971,7.4659,7.4869,7.4869,7.4869,7.4869,7.4869,7.4869,7.4869,7.4869,7.4869,7.4869,7.4869,7.4869,7.4869,7.4869,7.4869,7.4869,7.4869,7.4869,7.4869,7.4869,7.4869,7.4937,7.5074,7.5715,7.6425,7.7068,7.7802,7.8685,7.938,8.0001,8.034,8.0432,8.0617,8.0956,8.0956,8.0771,8.0832,8.0956,8.0986,8.1025,8.1025,8.133,8.1467,6.876,6.876,6.876,6.876,6.876,6.876,6.876,6.876,6.876,6.876,6.876,6.876,6.876,6.876,6.876,6.876,6.876,6.876,6.876,6.876,6.876,6.876,6.876,6.876,6.876,6.876,6.876,6.876,6.876,6.876,6.876,6.876,6.876,6.876,6.876,6.8828,6.8963,6.9337,6.9737,7.0134,7.0462,7.0759,7.0824,7.0919,7.0919,7.0919,7.0919,7.0919,7.0919,7.0919,7.0919,7.0919,7.0919,7.0919,7.0919,7.0919,7.0919,7.0919,7.0919,7.0919,7.0919,7.0919,7.0919,7.0919,7.0919,7.1009,7.1457,7.2445,7.2864,7.3552,7.427,7.4839,7.4869,7.4869,7.4869,7.4869,7.4869,7.4869,7.4869,7.4869,7.4869,7.4869,7.4869,7.4869,7.4869,7.4869,7.4869,7.4869,7.4869,7.4869,7.4869,7.4869,7.4899,7.5284,7.5511,7.638,7.7122,7.7765,7.8495,7.9342,7.9933,8.0494,8.0771,8.0925,8.0986,8.1048,8.1048,8.1017,8.1048,8.1048,8.1048,8.1048,8.1117,8.1117,8.1323,6.876,6.876,6.876,6.876,6.876,6.876,6.876,6.876,6.876,6.876,6.876,6.876,6.876,6.876,6.876,6.876,6.876,6.876,6.876,6.876,6.876,6.876,6.876,6.876,6.876,6.876,6.876,6.876,6.876,6.876,6.876,6.876,6.876,6.876,6.8895,6.903,6.9337,6.967,7.0068,7.0367,7.0724,7.0854,7.0919,7.0919,7.0919,7.0919,7.0919,7.0919,7.0919,7.0919,7.0919,7.0919,7.0919,7.0919,7.0919,7.0919,7.0919,7.0919,7.0919,7.0919,7.0919,7.0919,7.0919,7.0919,7.0919,7.0919,7.1667,7.2535,7.2894,7.3612,7.454,7.4809,7.4869,7.4869,7.4869,7.4869,7.4869,7.4869,7.4869,7.4869,7.4869,7.4869,7.4869,7.4869,7.4869,7.4869,7.4869,7.4869,7.4869,7.4869,7.4869,7.4869,7.4997,7.5404,7.5948,7.691,7.7897,7.8696,7.9298,7.9964,8.0555,8.0894,8.0956,8.1017,8.1048,8.1048,8.1048,8.1048,8.1048,8.1048,8.1048,8.1048,8.1117,8.1117,8.1117,6.876,6.876,6.876,6.876,6.876,6.876,6.876,6.876,6.876,6.876,6.876,6.876,6.876,6.876,6.876,6.876,6.876,6.876,6.876,6.876,6.876,6.876,6.876,6.876,6.876,6.876,6.876,6.876,6.876,6.876,6.876,6.876,6.8828,6.8895,6.903,6.9203,6.947,6.9869,7.02,7.0528,7.0789,7.0919,7.0919,7.0919,7.0919,7.0919,7.0919,7.0919,7.0919,7.0919,7.0919,7.0919,7.0919,7.0919,7.0919,7.0919,7.0919,7.0919,7.0919,7.0919,7.0919,7.0919,7.0919,7.0919,7.0919,7.0919,7.1697,7.2445,7.2834,7.3702,7.4569,7.4779,7.4869,7.4869,7.4869,7.4869,7.4869,7.4869,7.4869,7.4869,7.4869,7.4869,7.4869,7.4869,7.4869,7.4869,7.4869,7.4869,7.4869,7.4869,7.4929,7.5057,7.5344,7.588,7.6675,7.7631,7.8582,7.9529,8.0073,8.0555,8.074,8.1017,8.1048,8.1048,8.1048,8.1048,8.1048,8.1048,8.1048,8.1048,8.1048,8.1048,8.1048,8.1048,8.1048,6.876,6.876,6.876,6.876,6.876,6.876,6.876,6.876,6.876,6.876,6.876,6.876,6.876,6.876,6.876,6.876,6.876,6.876,6.876,6.876,6.876,6.876,6.876,6.876,6.876,6.876,6.876,6.876,6.876,6.876,6.876,6.876,6.876,6.8963,6.9136,6.9404,6.9604,7.0002,7.0397,7.0658,7.0824,7.0919,7.0919,7.0919,7.0919,7.0919,7.0919,7.0919,7.0919,7.0919,7.0919,7.0919,7.0919,7.0919,7.0919,7.0919,7.0919,7.0919,7.0919,7.0919,7.0919,7.0919,7.0919,7.0919,7.0919,7.0949,7.1637,7.2415,7.2954,7.3791,7.4569,7.4719,7.4869,7.4869,7.4869,7.4869,7.4869,7.4869,7.4869,7.4869,7.4869,7.4869,7.4869,7.4869,7.4869,7.4869,7.4869,7.4869,7.4869,7.4869,7.4988,7.5297,7.5713,7.6516,7.7373,7.8285,7.9147,8.0134,8.051,8.0894,8.1048,8.1048,8.1048,8.1048,8.1048,8.1048,8.1048,8.1048,8.1048,8.1048,8.1048,8.1048,8.1048,8.1048,8.1048,6.876,6.876,6.876,6.876,6.876,6.876,6.876,6.876,6.876,6.876,6.876,6.876,6.876,6.876,6.876,6.876,6.876,6.876,6.876,6.876,6.876,6.876,6.876,6.876,6.876,6.876,6.876,6.876,6.876,6.876,6.876,6.876,6.8828,6.903,6.9337,6.9604,6.9936,7.0265,7.0563,7.0759,7.0824,7.0919,7.0919,7.0919,7.0919,7.0919,7.0919,7.0919,7.0919,7.0919,7.0919,7.0919,7.0919,7.0919,7.0919,7.0919,7.0919,7.0919,7.0919,7.0919,7.0919,7.0919,7.0919,7.0919,7.0919,7.1068,7.1547,7.2355,7.2954,7.3642,7.445,7.4809,7.4869,7.4869,7.4869,7.4869,7.4869,7.4869,7.4869,7.4869,7.4869,7.4869,7.4869,7.4869,7.4869,7.4869,7.4899,7.4899,7.4988,7.5018,7.5275,7.5515,7.6361,7.7227,7.8079,7.9063,7.9836,8.0641,8.0925,8.1048,8.1048,8.1048,8.1048,8.1048,8.1048,8.1048,8.1048,8.1048,8.1048,8.1048,8.1048,8.1048,8.1048,8.1048,8.1048,6.876,6.876,6.876,6.876,6.876,6.876,6.876,6.876,6.876,6.876,6.876,6.876,6.876,6.876,6.876,6.876,6.876,6.876,6.876,6.876,6.876,6.876,6.876,6.876,6.876,6.876,6.876,6.876,6.876,6.876,6.876,6.8828,6.8895,6.9203,6.9537,6.9936,7.0265,7.0498,7.0759,7.0824,7.0919,7.0919,7.0919,7.0919,7.0919,7.0919,7.0919,7.0919,7.0919,7.0919,7.0919,7.0919,7.0919,7.0919,7.0919,7.0919,7.0919,7.0919,7.0919,7.0919,7.0919,7.0919,7.0919,7.0919,7.0919,7.0979,7.1757,7.2565,7.2894,7.3373,7.418,7.4869,7.4869,7.4869,7.4869,7.4869,7.4869,7.4869,7.4869,7.4869,7.4869,7.4869,7.4869,7.4869,7.4869,7.4869,7.4988,7.5138,7.5288,7.5437,7.5665,7.5953,7.699,7.8001,7.8924,7.9659,8.0311,8.0794,8.0956,8.1048,8.1048,8.1048,8.1048,8.1048,8.1048,8.1048,8.1048,8.1048,8.1048,8.1048,8.1048,8.1048,8.1048,8.1048,8.1048,6.876,6.876,6.876,6.876,6.876,6.876,6.876,6.876,6.876,6.876,6.876,6.876,6.876,6.876,6.876,6.876,6.876,6.876,6.876,6.876,6.876,6.876,6.876,6.876,6.876,6.876,6.876,6.876,6.876,6.876,6.8828,6.8828,6.9068,6.9404,6.9803,7.0134,7.0462,7.0759,7.0824,7.0919,7.0919,7.0919,7.0919,7.0919,7.0919,7.0919,7.0919,7.0919,7.0919,7.0919,7.0919,7.0919,7.0919,7.0919,7.0919,7.0919,7.0919,7.0919,7.0919,7.0919,7.0919,7.0919,7.0919,7.0919,7.0919,7.0919,7.1607,7.2565,7.2984,7.3612,7.442,7.4779,7.4869,7.4869,7.4869,7.4869,7.4869,7.4869,7.4869,7.4869,7.4869,7.4869,7.4869,7.4869,7.4869,7.4869,7.4929,7.5138,7.5656,7.5896,7.6334,7.6701,7.7551,7.8625,7.9498,8.0172,8.0725,8.1048,8.1048,8.1048,8.1048,8.1048,8.1048,8.1048,8.1048,8.1048,8.1048,8.1048,8.1048,8.1048,8.1048,8.1048,8.1048,8.1048,8.1048,6.876,6.876,6.876,6.876,6.876,6.876,6.876,6.876,6.876,6.876,6.876,6.876,6.876,6.876,6.876,6.876,6.876,6.876,6.876,6.876,6.876,6.876,6.876,6.876,6.876,6.876,6.876,6.876,6.876,6.876,6.8828,6.8828,6.9136,6.9537,6.9936,7.0265,7.0593,7.0919,7.0919,7.0919,7.0919,7.0919,7.0919,7.0919,7.0919,7.0919,7.0919,7.0919,7.0919,7.0919,7.0919,7.0919,7.0919,7.0919,7.0919,7.0919,7.0919,7.0919,7.0919,7.0919,7.0919,7.0919,7.0919,7.0919,7.0919,7.0919,7.1368,7.2355,7.3163,7.3851,7.445,7.4689,7.4869,7.4869,7.4869,7.4869,7.4869,7.4869,7.4869,7.4869,7.4869,7.4869,7.4869,7.4869,7.4869,7.4869,7.4869,7.5207,7.5995,7.6514,7.7354,7.7744,7.8265,7.919,8.0034,8.0525,8.0917,8.1048,8.1048,8.1048,8.1048,8.1048,8.1048,8.1048,8.1048,8.1048,8.1048,8.1048,8.1048,8.1048,8.1048,8.1048,8.1048,8.1048,8.1048,6.876,6.876,6.876,6.876,6.876,6.876,6.876,6.876,6.876,6.876,6.876,6.876,6.876,6.876,6.876,6.876,6.876,6.876,6.876,6.876,6.876,6.876,6.876,6.876,6.876,6.876,6.876,6.876,6.876,6.8828,6.8828,6.903,6.9337,6.9737,7.0134,7.0462,7.0724,7.0919,7.0919,7.0919,7.0919,7.0919,7.0919,7.0919,7.0919,7.0919,7.0919,7.0919,7.0919,7.0919,7.0919,7.0919,7.0919,7.0919,7.0919,7.0919,7.0919,7.0919,7.0919,7.0919,7.0919,7.0919,7.0919,7.0919,7.0919,7.0979,7.1547,7.2445,7.2864,7.3492,7.442,7.4839,7.4869,7.4869,7.4869,7.4869,7.4869,7.4869,7.4869,7.4869,7.4869,7.4869,7.4869,7.4869,7.4899,7.4988,7.4988,7.5527,7.6255,7.7104,7.7976,7.877,7.9241,7.9773,8.0556,8.0817,8.1017,8.1048,8.1048,8.1048,8.1048,8.1048,8.1048,8.1048,8.1048,8.1048,8.1048,8.1048,8.1048,8.1048,8.1048,8.1048,8.1048,8.1048,8.1048,6.876,6.876,6.876,6.876,6.876,6.876,6.876,6.876,6.876,6.876,6.876,6.876,6.876,6.876,6.876,6.876,6.876,6.876,6.876,6.876,6.876,6.876,6.876,6.876,6.876,6.876,6.876,6.876,6.876,6.8895,6.9098,6.9337,6.9737,7.0134,7.0397,7.0724,7.0919,7.0919,7.0919,7.0919,7.0919,7.0919,7.0919,7.0919,7.0919,7.0919,7.0919,7.0919,7.0919,7.0919,7.0919,7.0919,7.0919,7.0919,7.0919,7.0919,7.0919,7.0919,7.0919,7.0919,7.0919,7.0919,7.0919,7.0919,7.0919,7.1188,7.1727,7.2355,7.2774,7.3373,7.43,7.4869,7.4869,7.4869,7.4869,7.4869,7.4869,7.4869,7.4869,7.4869,7.4869,7.4869,7.4869,7.4869,7.4929,7.5048,7.5467,7.6096,7.6764,7.7665,7.8589,7.9323,7.9947,8.0509,8.101,8.1079,8.1048,8.1048,8.1048,8.1048,8.1048,8.1048,8.1048,8.1048,8.1048,8.1048,8.1048,8.1048,8.1048,8.1048,8.1048,8.1048,8.1048,8.1048,8.1048,6.876,6.876,6.876,6.876,6.876,6.876,6.876,6.876,6.876,6.876,6.876,6.876,6.876,6.876,6.876,6.876,6.876,6.876,6.876,6.876,6.876,6.876,6.876,6.876,6.876,6.876,6.876,6.876,6.8828,6.903,6.9232,6.9337,7.0002,7.0331,7.0462,7.0724,7.0919,7.0919,7.0919,7.0919,7.0919,7.0919,7.0919,7.0919,7.0919,7.0919,7.0919,7.0919,7.0919,7.0919,7.0919,7.0919,7.0919,7.0919,7.0919,7.0919,7.0919,7.0919,7.0919,7.0919,7.0919,7.0919,7.0919,7.0919,7.0919,7.0919,7.1637,7.2595,7.3073,7.3612,7.436,7.4749,7.4869,7.4869,7.4869,7.4869,7.4869,7.4869,7.4869,7.4869,7.4869,7.4869,7.4869,7.4899,7.4929,7.5168,7.5617,7.6275,7.7074,7.8067,7.9162,7.9816,8.0531,8.084,8.1048,8.1048,8.1048,8.1048,8.1048,8.1048,8.1048,8.1048,8.1048,8.1048,8.1048,8.1048,8.1048,8.1048,8.1048,8.1048,8.1048,8.1048,8.1048,8.1048,8.1048]}]]